Time,TemperatureF,DewpointF,PressureIn,WindDirection,WindDirectionDegrees,WindSpeedMPH,WindSpeedGustMPH,Humidity,HourlyPrecipIn,Conditions,Clouds,dailyrainin,SolarRadiationWatts/m^2,SoftwareType,DateUTC
2013-11-28 00:00:00,30.1,16.3,30.07,NW,306,1.0,6.0,56,0.00,,,0.00,0.00,VWS V14.01,2013-11-28 05:00:00,
2013-11-28 00:01:00,30.3,16.5,30.06,West,276,0.0,1.0,56,0.00,,,1.16,0.00,VWS V14.01,2013-11-28 05:01:00,
2013-11-28 00:02:00,30.3,16.9,30.06,WNW,299,2.0,3.0,57,0.00,,,1.16,0.00,VWS V14.01,2013-11-28 05:02:00,
2013-11-28 00:03:00,30.3,16.5,30.06,WNW,302,7.0,7.0,56,0.00,,,1.16,0.00,VWS V14.01,2013-11-28 05:03:00,
2013-11-28 00:05:00,30.1,16.3,30.07,NW,305,1.0,1.0,56,0.00,,,0.00,0.00,VWS V14.01,2013-11-28 05:05:00,
2013-11-28 00:06:00,30.1,16.3,30.07,NW,304,0.0,2.0,56,0.00,,,0.00,0.00,VWS V14.01,2013-11-28 05:06:00,
2013-11-28 00:07:00,30.1,16.3,30.07,NW,304,0.0,0.0,56,0.00,,,0.00,0.00,VWS V14.01,2013-11-28 05:07:00,
2013-11-28 00:08:00,30.1,16.3,30.07,NW,304,2.0,2.0,56,0.00,,,0.00,0.00,VWS V14.01,2013-11-28 05:08:00,
2013-11-28 00:09:00,30.1,16.3,30.07,NW,304,2.0,4.0,56,0.00,,,0.00,0.00,VWS V14.01,2013-11-28 05:09:00,
2013-11-28 00:10:00,30.1,16.3,30.07,NW,304,0.0,2.0,56,0.00,,,0.00,0.00,VWS V14.01,2013-11-28 05:10:00,
2013-11-28 00:11:00,30.1,16.3,30.07,NW,304,0.0,0.0,56,0.00,,,0.00,0.00,VWS V14.01,2013-11-28 05:11:00,
2013-11-28 00:12:00,30.1,16.3,30.07,NW,307,0.0,0.0,56,0.00,,,0.00,0.00,VWS V14.01,2013-11-28 05:12:00,
2013-11-28 00:13:00,30.1,16.3,30.07,NW,306,1.0,6.0,56,0.00,,,0.00,0.00,VWS V14.01,2013-11-28 05:13:00,
2013-11-28 00:14:00,30.0,16.2,30.07,NW,322,0.0,3.0,56,0.00,,,0.00,0.00,VWS V14.01,2013-11-28 05:14:00,
2013-11-28 00:15:00,30.0,16.2,30.08,NW,321,0.0,0.0,56,0.00,,,0.00,0.00,VWS V14.01,2013-11-28 05:15:00,
2013-11-28 00:16:00,30.0,16.2,30.08,NW,320,0.0,0.0,56,0.00,,,0.00,0.00,VWS V14.01,2013-11-28 05:16:00,
2013-11-28 00:17:00,30.0,16.2,30.08,WNW,295,0.0,4.0,56,0.00,,,0.00,0.00,VWS V14.01,2013-11-28 05:17:00,
2013-11-28 00:18:00,30.1,16.3,30.07,NW,304,0.0,2.0,56,0.00,,,0.00,0.00,VWS V14.01,2013-11-28 05:18:00,
2013-11-28 00:19:00,30.0,16.2,30.08,WNW,293,0.0,0.0,56,0.00,,,0.00,0.00,VWS V14.01,2013-11-28 05:19:00,
2013-11-28 00:20:00,30.0,16.2,30.08,NW,311,2.0,5.0,56,0.00,,,0.00,0.00,VWS V14.01,2013-11-28 05:20:00,
2013-11-28 00:21:00,29.8,16.0,30.08,NW,322,2.0,6.0,56,0.00,,,0.00,0.00,VWS V14.01,2013-11-28 05:21:00,
2013-11-28 00:22:00,29.8,16.0,30.08,WNW,298,3.0,7.0,56,0.00,,,0.00,0.00,VWS V14.01,2013-11-28 05:22:00,
2013-11-28 00:23:00,30.0,16.2,30.08,NW,321,0.0,0.0,56,0.00,,,0.00,0.00,VWS V14.01,2013-11-28 05:23:00,
2013-11-28 00:24:00,29.8,16.0,30.08,NNW,334,2.0,9.0,56,0.00,,,0.00,0.00,VWS V14.01,2013-11-28 05:24:00,
2013-11-28 00:25:00,29.8,16.0,30.08,WNW,297,2.0,4.0,56,0.00,,,0.00,0.00,VWS V14.01,2013-11-28 05:25:00,
2013-11-28 00:26:00,29.8,16.4,30.08,WNW,301,4.0,6.0,57,0.00,,,0.00,0.00,VWS V14.01,2013-11-28 05:26:00,
2013-11-28 00:27:00,29.8,16.4,30.08,North,354,4.0,9.0,57,0.00,,,0.00,0.00,VWS V14.01,2013-11-28 05:27:00,
2013-11-28 00:28:00,30.0,16.2,30.08,NW,311,1.0,2.0,56,0.00,,,0.00,0.00,VWS V14.01,2013-11-28 05:28:00,
2013-11-28 00:29:00,29.8,16.4,30.08,NW,317,5.0,5.0,57,0.00,,,0.00,0.00,VWS V14.01,2013-11-28 05:29:00,
2013-11-28 00:30:00,29.8,16.0,30.09,NW,319,2.0,5.0,56,0.00,,,0.00,0.00,VWS V14.01,2013-11-28 05:30:00,
2013-11-28 00:31:00,29.8,16.4,30.09,WNW,301,4.0,8.0,57,0.00,,,0.00,0.00,VWS V14.01,2013-11-28 05:31:00,
2013-11-28 00:32:00,29.8,16.0,30.09,NNW,328,6.0,10.0,56,0.00,,,0.00,0.00,VWS V14.01,2013-11-28 05:32:00,
2013-11-28 00:33:00,29.8,16.4,30.08,WNW,296,3.0,3.0,57,0.00,,,0.00,0.00,VWS V14.01,2013-11-28 05:33:00,
2013-11-28 00:35:00,29.8,16.0,30.09,NNW,339,5.0,5.0,56,0.00,,,0.00,0.00,VWS V14.01,2013-11-28 05:35:00,
2013-11-28 00:36:00,29.8,16.0,30.09,NNW,339,0.0,5.0,56,0.00,,,0.00,0.00,VWS V14.01,2013-11-28 05:36:00,
2013-11-28 00:37:00,29.8,16.0,30.09,West,275,3.0,3.0,56,0.00,,,0.00,0.00,VWS V14.01,2013-11-28 05:37:00,
2013-11-28 00:38:00,29.8,16.4,30.09,NW,321,0.0,2.0,57,0.00,,,0.00,0.00,VWS V14.01,2013-11-28 05:38:00,
2013-11-28 00:39:00,29.8,16.0,30.09,North,0,4.0,9.0,56,0.00,,,0.00,0.00,VWS V14.01,2013-11-28 05:39:00,
2013-11-28 00:40:00,29.8,16.0,30.09,North,4,0.0,4.0,56,0.00,,,0.00,0.00,VWS V14.01,2013-11-28 05:40:00,
2013-11-28 00:41:00,29.8,16.0,30.09,NW,319,3.0,3.0,56,0.00,,,0.00,0.00,VWS V14.01,2013-11-28 05:41:00,
2013-11-28 00:42:00,29.8,16.0,30.09,NNW,347,2.0,4.0,56,0.00,,,0.00,0.00,VWS V14.01,2013-11-28 05:42:00,
2013-11-28 00:43:00,29.8,16.0,30.09,NNW,339,0.0,5.0,56,0.00,,,0.00,0.00,VWS V14.01,2013-11-28 05:43:00,
2013-11-28 00:44:00,29.8,16.0,30.09,North,351,6.0,6.0,56,0.00,,,0.00,0.00,VWS V14.01,2013-11-28 05:44:00,
2013-11-28 00:45:00,29.8,16.0,30.10,WNW,303,5.0,8.0,56,0.00,,,0.00,0.00,VWS V14.01,2013-11-28 05:45:00,
2013-11-28 00:46:00,29.7,15.9,30.10,West,263,5.0,7.0,56,0.00,,,0.00,0.00,VWS V14.01,2013-11-28 05:46:00,
2013-11-28 00:47:00,29.7,15.9,30.10,NW,321,1.0,5.0,56,0.00,,,0.00,0.00,VWS V14.01,2013-11-28 05:47:00,
2013-11-28 00:48:00,29.8,16.0,30.09,NW,317,1.0,2.0,56,0.00,,,0.00,0.00,VWS V14.01,2013-11-28 05:48:00,
2013-11-28 00:49:00,29.7,15.9,30.10,West,275,0.0,3.0,56,0.00,,,0.00,0.00,VWS V14.01,2013-11-28 05:49:00,
2013-11-28 00:50:00,29.7,15.9,30.10,NW,323,0.0,2.0,56,0.00,,,0.00,0.00,VWS V14.01,2013-11-28 05:50:00,
2013-11-28 00:51:00,29.7,15.9,30.10,NW,324,0.0,0.0,56,0.00,,,0.00,0.00,VWS V14.01,2013-11-28 05:51:00,
2013-11-28 00:52:00,29.7,15.9,30.10,WNW,297,0.0,2.0,56,0.00,,,0.00,0.00,VWS V14.01,2013-11-28 05:52:00,
2013-11-28 00:53:00,29.7,15.9,30.10,NW,316,6.0,6.0,56,0.00,,,0.00,0.00,VWS V14.01,2013-11-28 05:53:00,
2013-11-28 00:54:00,29.7,15.9,30.10,WNW,295,8.0,8.0,56,0.00,,,0.00,0.00,VWS V14.01,2013-11-28 05:54:00,
2013-11-28 00:55:00,29.7,15.9,30.10,West,275,4.0,8.0,56,0.00,,,0.00,0.00,VWS V14.01,2013-11-28 05:55:00,
2013-11-28 00:56:00,29.7,15.9,30.10,WNW,296,6.0,9.0,56,0.00,,,0.00,0.00,VWS V14.01,2013-11-28 05:56:00,
2013-11-28 00:57:00,29.7,15.9,30.10,WNW,298,3.0,11.0,56,0.00,,,0.00,0.00,VWS V14.01,2013-11-28 05:57:00,
2013-11-28 00:58:00,29.7,15.9,30.10,NW,324,0.0,0.0,56,0.00,,,0.00,0.00,VWS V14.01,2013-11-28 05:58:00,
2013-11-28 00:59:00,29.7,15.9,30.10,NW,319,9.0,12.0,56,0.00,,,0.00,0.00,VWS V14.01,2013-11-28 05:59:00,
2013-11-28 01:00:00,29.7,15.9,30.10,NW,304,6.0,9.0,56,0.00,,,0.00,0.00,VWS V14.01,2013-11-28 06:00:00,
2013-11-28 01:01:00,29.7,15.5,30.10,NW,321,4.0,6.0,55,0.00,,,0.00,0.00,VWS V14.01,2013-11-28 06:01:00,
2013-11-28 01:02:00,29.7,15.5,30.10,NNW,334,6.0,9.0,55,0.00,,,0.00,0.00,VWS V14.01,2013-11-28 06:02:00,
2013-11-28 01:03:00,29.7,15.9,30.10,NW,307,6.0,7.0,56,0.00,,,0.00,0.00,VWS V14.01,2013-11-28 06:03:00,
2013-11-28 01:04:00,29.7,15.9,30.10,North,0,2.0,2.0,56,0.00,,,0.00,0.00,VWS V14.01,2013-11-28 06:04:00,
2013-11-28 01:05:00,29.7,15.9,30.10,NW,322,7.0,7.0,56,0.00,,,0.00,0.00,VWS V14.01,2013-11-28 06:05:00,
2013-11-28 01:06:00,29.7,15.9,30.10,NW,313,0.0,9.0,56,0.00,,,0.00,0.00,VWS V14.01,2013-11-28 06:06:00,
2013-11-28 01:07:00,29.7,15.9,30.10,WNW,297,1.0,5.0,56,0.00,,,0.00,0.00,VWS V14.01,2013-11-28 06:07:00,
2013-11-28 01:08:00,29.7,15.9,30.10,NW,309,6.0,6.0,56,0.00,,,0.00,0.00,VWS V14.01,2013-11-28 06:08:00,
2013-11-28 01:09:00,29.7,15.9,30.10,NW,307,7.0,9.0,56,0.00,,,0.00,0.00,VWS V14.01,2013-11-28 06:09:00,
2013-11-28 01:10:00,29.7,15.9,30.10,NNW,334,5.0,13.0,56,0.00,,,0.00,0.00,VWS V14.01,2013-11-28 06:10:00,
2013-11-28 01:11:00,29.7,15.9,30.10,WNW,295,0.0,5.0,56,0.00,,,0.00,0.00,VWS V14.01,2013-11-28 06:11:00,
2013-11-28 01:12:00,29.7,15.9,30.10,NW,309,0.0,4.0,56,0.00,,,0.00,0.00,VWS V14.01,2013-11-28 06:12:00,
2013-11-28 01:13:00,29.7,15.9,30.10,NW,313,0.0,9.0,56,0.00,,,0.00,0.00,VWS V14.01,2013-11-28 06:13:00,
2013-11-28 01:14:00,29.5,15.8,30.10,North,0,0.0,5.0,56,0.00,,,0.00,0.00,VWS V14.01,2013-11-28 06:14:00,
2013-11-28 01:15:00,29.5,15.8,30.10,North,358,0.0,3.0,56,0.00,,,0.00,0.00,VWS V14.01,2013-11-28 06:15:00,
2013-11-28 01:16:00,29.5,15.8,30.10,North,351,8.0,8.0,56,0.00,,,0.00,0.00,VWS V14.01,2013-11-28 06:16:00,
2013-11-28 01:17:00,29.5,15.8,30.10,WNW,300,2.0,8.0,56,0.00,,,0.00,0.00,VWS V14.01,2013-11-28 06:17:00,
2013-11-28 01:18:00,29.7,15.9,30.10,WNW,293,0.0,5.0,56,0.00,,,0.00,0.00,VWS V14.01,2013-11-28 06:18:00,
2013-11-28 01:19:00,29.5,15.8,30.10,NW,323,2.0,4.0,56,0.00,,,0.00,0.00,VWS V14.01,2013-11-28 06:19:00,
2013-11-28 01:20:00,29.5,16.2,30.10,NNW,342,3.0,5.0,57,0.00,,,0.00,0.00,VWS V14.01,2013-11-28 06:20:00,
2013-11-28 01:21:00,29.5,15.8,30.10,NW,325,0.0,3.0,56,0.00,,,0.00,0.00,VWS V14.01,2013-11-28 06:21:00,
2013-11-28 01:22:00,29.5,16.2,30.10,NW,321,5.0,5.0,57,0.00,,,0.00,0.00,VWS V14.01,2013-11-28 06:22:00,
2013-11-28 01:23:00,29.5,16.2,30.10,North,0,6.0,6.0,57,0.00,,,0.00,0.00,VWS V14.01,2013-11-28 06:23:00,
2013-11-28 01:24:00,29.5,15.8,30.10,NNW,345,4.0,6.0,56,0.00,,,0.00,0.00,VWS V14.01,2013-11-28 06:24:00,
2013-11-28 01:25:00,29.4,16.1,30.10,NNW,334,4.0,5.0,57,0.00,,,0.00,0.00,VWS V14.01,2013-11-28 06:25:00,
2013-11-28 01:26:00,29.4,16.1,30.10,NNW,342,1.0,5.0,57,0.00,,,0.00,0.00,VWS V14.01,2013-11-28 06:26:00,
2013-11-28 01:27:00,29.4,16.5,30.10,WNW,303,5.0,6.0,58,0.00,,,0.00,0.00,VWS V14.01,2013-11-28 06:27:00,
2013-11-28 01:28:00,29.4,16.1,30.10,NNW,327,0.0,6.0,57,0.00,,,0.00,0.00,VWS V14.01,2013-11-28 06:28:00,
2013-11-28 01:29:00,29.5,15.8,30.10,NW,325,0.0,3.0,56,0.00,,,0.00,0.00,VWS V14.01,2013-11-28 06:29:00,
2013-11-28 01:30:00,29.4,16.1,30.10,NW,326,3.0,6.0,57,0.00,,,0.00,0.00,VWS V14.01,2013-11-28 06:30:00,
2013-11-28 01:31:00,29.4,16.1,30.10,NNW,328,4.0,7.0,57,0.00,,,0.00,0.00,VWS V14.01,2013-11-28 06:31:00,
2013-11-28 01:32:00,29.4,16.1,30.10,WNW,299,3.0,4.0,57,0.00,,,0.00,0.00,VWS V14.01,2013-11-28 06:32:00,
2013-11-28 01:33:00,29.4,16.1,30.10,North,358,0.0,5.0,57,0.00,,,0.00,0.00,VWS V14.01,2013-11-28 06:33:00,
2013-11-28 01:34:00,29.4,16.1,30.10,NNW,342,1.0,5.0,57,0.00,,,0.00,0.00,VWS V14.01,2013-11-28 06:34:00,
2013-11-28 01:35:00,29.4,16.1,30.10,NNW,340,0.0,4.0,57,0.00,,,0.00,0.00,VWS V14.01,2013-11-28 06:35:00,
2013-11-28 01:36:00,29.4,16.1,30.10,NNW,340,2.0,8.0,57,0.00,,,0.00,0.00,VWS V14.01,2013-11-28 06:36:00,
2013-11-28 01:37:00,29.4,16.1,30.10,North,358,2.0,4.0,57,0.00,,,0.00,0.00,VWS V14.01,2013-11-28 06:37:00,
2013-11-28 01:38:00,29.4,16.1,30.10,NNW,332,5.0,7.0,57,0.00,,,0.00,0.00,VWS V14.01,2013-11-28 06:38:00,
2013-11-28 01:39:00,29.4,16.1,30.10,NW,323,4.0,7.0,57,0.00,,,0.00,0.00,VWS V14.01,2013-11-28 06:39:00,
2013-11-28 01:40:00,29.4,16.1,30.10,NW,321,3.0,6.0,57,0.00,,,0.00,0.00,VWS V14.01,2013-11-28 06:40:00,
2013-11-28 01:41:00,29.4,16.1,30.10,NW,305,6.0,11.0,57,0.00,,,0.00,0.00,VWS V14.01,2013-11-28 06:41:00,
2013-11-28 01:42:00,29.4,16.1,30.10,NNW,340,2.0,9.0,57,0.00,,,0.00,0.00,VWS V14.01,2013-11-28 06:42:00,
2013-11-28 01:43:00,29.4,16.1,30.10,NNW,339,12.0,12.0,57,0.00,,,0.00,0.00,VWS V14.01,2013-11-28 06:43:00,
2013-11-28 01:44:00,29.4,16.1,30.10,NNW,340,2.0,8.0,57,0.00,,,0.00,0.00,VWS V14.01,2013-11-28 06:44:00,
2013-11-28 01:45:00,29.4,15.7,30.11,NW,306,5.0,5.0,56,0.00,,,0.00,0.00,VWS V14.01,2013-11-28 06:45:00,
2013-11-28 01:46:00,29.4,15.7,30.11,NW,304,0.0,5.0,56,0.00,,,0.00,0.00,VWS V14.01,2013-11-28 06:46:00,
2013-11-28 01:47:00,29.4,15.7,30.11,NNW,335,2.0,7.0,56,0.00,,,0.00,0.00,VWS V14.01,2013-11-28 06:47:00,
2013-11-28 01:48:00,29.4,15.7,30.11,NNW,343,7.0,10.0,56,0.00,,,0.00,0.00,VWS V14.01,2013-11-28 06:48:00,
2013-11-28 01:49:00,29.4,16.1,30.10,NW,305,6.0,11.0,57,0.00,,,0.00,0.00,VWS V14.01,2013-11-28 06:49:00,
2013-11-28 01:50:00,29.5,15.8,30.11,NNW,336,2.0,4.0,56,0.00,,,0.00,0.00,VWS V14.01,2013-11-28 06:50:00,
2013-11-28 01:51:00,29.5,15.8,30.11,NNW,336,2.0,2.0,56,0.00,,,0.00,0.00,VWS V14.01,2013-11-28 06:51:00,
2013-11-28 01:52:00,29.5,15.8,30.11,NW,308,12.0,12.0,56,0.00,,,0.00,0.00,VWS V14.01,2013-11-28 06:52:00,
2013-11-28 01:53:00,29.5,15.8,30.11,North,0,7.0,12.0,56,0.00,,,0.00,0.00,VWS V14.01,2013-11-28 06:53:00,
2013-11-28 01:54:00,29.4,15.7,30.11,NW,304,0.0,5.0,56,0.00,,,0.00,0.00,VWS V14.01,2013-11-28 06:54:00,
2013-11-28 01:55:00,29.5,15.8,30.11,NW,316,6.0,6.0,56,0.00,,,0.00,0.00,VWS V14.01,2013-11-28 06:55:00,
2013-11-28 01:56:00,29.5,15.8,30.11,North,2,10.0,14.0,56,0.00,,,0.00,0.00,VWS V14.01,2013-11-28 06:56:00,
2013-11-28 01:57:00,29.5,15.8,30.11,North,6,3.0,10.0,56,0.00,,,0.00,0.00,VWS V14.01,2013-11-28 06:57:00,
2013-11-28 01:58:00,29.5,15.3,30.11,North,351,2.0,7.0,55,0.00,,,0.00,0.00,VWS V14.01,2013-11-28 06:58:00,
2013-11-28 01:59:00,29.5,15.8,30.11,North,349,0.0,2.0,56,0.00,,,0.00,0.00,VWS V14.01,2013-11-28 06:59:00,
2013-11-28 02:00:00,29.5,15.3,30.11,NW,314,6.0,9.0,55,0.00,,,0.00,0.00,VWS V14.01,2013-11-28 07:00:00,
2013-11-28 02:01:00,29.5,15.3,30.11,NNE,30,1.0,7.0,55,0.00,,,0.00,0.00,VWS V14.01,2013-11-28 07:01:00,
2013-11-28 02:02:00,29.5,15.3,30.11,North,356,1.0,6.0,55,0.00,,,0.00,0.00,VWS V14.01,2013-11-28 07:02:00,
2013-11-28 02:03:00,29.5,15.8,30.11,North,0,7.0,9.0,56,0.00,,,0.00,0.00,VWS V14.01,2013-11-28 07:03:00,
2013-11-28 02:04:00,29.5,15.8,30.11,North,0,5.0,10.0,56,0.00,,,0.00,0.00,VWS V14.01,2013-11-28 07:04:00,
2013-11-28 02:05:00,29.4,15.2,30.11,North,356,1.0,6.0,55,0.00,,,0.00,0.00,VWS V14.01,2013-11-28 07:05:00,
2013-11-28 02:06:00,29.4,15.2,30.11,WSW,256,3.0,13.0,55,0.00,,,0.00,0.00,VWS V14.01,2013-11-28 07:06:00,
2013-11-28 02:07:00,29.4,15.2,30.11,North,1,5.0,15.0,55,0.00,,,0.00,0.00,VWS V14.01,2013-11-28 07:07:00,
2013-11-28 02:08:00,29.4,15.2,30.11,NNW,334,13.0,13.0,55,0.00,,,0.00,0.00,VWS V14.01,2013-11-28 07:08:00,
2013-11-28 02:09:00,29.5,15.3,30.11,North,357,3.0,5.0,55,0.00,,,0.00,0.00,VWS V14.01,2013-11-28 07:09:00,
2013-11-28 02:10:00,29.4,14.8,30.11,North,351,9.0,9.0,54,0.00,,,0.00,0.00,VWS V14.01,2013-11-28 07:10:00,
2013-11-28 02:11:00,29.4,14.8,30.11,WNW,302,0.0,9.0,54,0.00,,,0.00,0.00,VWS V14.01,2013-11-28 07:11:00,
2013-11-28 02:12:00,29.4,15.2,30.11,NW,313,4.0,6.0,55,0.00,,,0.00,0.00,VWS V14.01,2013-11-28 07:12:00,
2013-11-28 02:13:00,29.4,15.2,30.11,NW,323,0.0,4.0,55,0.00,,,0.00,0.00,VWS V14.01,2013-11-28 07:13:00,
2013-11-28 02:14:00,29.4,15.2,30.11,North,350,2.0,5.0,55,0.00,,,0.00,0.00,VWS V14.01,2013-11-28 07:14:00,
2013-11-28 02:15:00,29.4,15.2,30.12,NNE,16,0.0,3.0,55,0.00,,,0.00,0.00,VWS V14.01,2013-11-28 07:15:00,
2013-11-28 02:16:00,29.4,15.2,30.12,NNE,12,3.0,5.0,55,0.00,,,0.00,0.00,VWS V14.01,2013-11-28 07:16:00,
2013-11-28 02:17:00,29.4,15.2,30.12,NNW,343,6.0,11.0,55,0.00,,,0.00,0.00,VWS V14.01,2013-11-28 07:17:00,
2013-11-28 02:18:00,29.4,15.2,30.12,NNW,338,0.0,6.0,55,0.00,,,0.00,0.00,VWS V14.01,2013-11-28 07:18:00,
2013-11-28 02:19:00,29.4,14.8,30.11,North,349,6.0,6.0,54,0.00,,,0.00,0.00,VWS V14.01,2013-11-28 07:19:00,
2013-11-28 02:20:00,29.3,14.7,30.12,North,8,9.0,12.0,54,0.00,,,0.00,0.00,VWS V14.01,2013-11-28 07:20:00,
2013-11-28 02:21:00,29.3,15.1,30.12,WNW,302,7.0,11.0,55,0.00,,,0.00,0.00,VWS V14.01,2013-11-28 07:21:00,
2013-11-28 02:22:00,29.3,14.7,30.12,NNW,345,5.0,11.0,54,0.00,,,0.00,0.00,VWS V14.01,2013-11-28 07:22:00,
2013-11-28 02:23:00,29.3,14.7,30.12,NW,319,5.0,10.0,54,0.00,,,0.00,0.00,VWS V14.01,2013-11-28 07:23:00,
2013-11-28 02:24:00,29.4,15.2,30.12,WNW,293,11.0,11.0,55,0.00,,,0.00,0.00,VWS V14.01,2013-11-28 07:24:00,
2013-11-28 02:25:00,29.3,14.7,30.12,NW,315,1.0,9.0,54,0.00,,,0.00,0.00,VWS V14.01,2013-11-28 07:25:00,
2013-11-28 02:26:00,29.3,14.7,30.12,NNE,27,0.0,10.0,54,0.00,,,0.00,0.00,VWS V14.01,2013-11-28 07:26:00,
2013-11-28 02:27:00,29.3,14.7,30.12,NNE,12,6.0,6.0,54,0.00,,,0.00,0.00,VWS V14.01,2013-11-28 07:27:00,
2013-11-28 02:28:00,29.3,14.7,30.12,North,0,4.0,11.0,54,0.00,,,0.00,0.00,VWS V14.01,2013-11-28 07:28:00,
2013-11-28 02:29:00,29.3,15.1,30.12,NNW,329,3.0,9.0,55,0.00,,,0.00,0.00,VWS V14.01,2013-11-28 07:29:00,
2013-11-28 02:30:00,29.3,14.7,30.12,NNW,345,5.0,11.0,54,0.00,,,0.00,0.00,VWS V14.01,2013-11-28 07:30:00,
2013-11-28 02:31:00,29.3,14.7,30.12,NNE,24,14.0,14.0,54,0.00,,,0.00,0.00,VWS V14.01,2013-11-28 07:31:00,
2013-11-28 02:32:00,29.3,14.7,30.12,NW,307,9.0,14.0,54,0.00,,,0.00,0.00,VWS V14.01,2013-11-28 07:32:00,
2013-11-28 02:33:00,29.3,14.7,30.12,North,0,10.0,10.0,54,0.00,,,0.00,0.00,VWS V14.01,2013-11-28 07:33:00,
2013-11-28 02:34:00,29.3,14.3,30.12,North,0,6.0,12.0,53,0.00,,,0.00,0.00,VWS V14.01,2013-11-28 07:34:00,
2013-11-28 02:35:00,29.3,14.7,30.12,NNE,12,6.0,6.0,54,0.00,,,0.00,0.00,VWS V14.01,2013-11-28 07:35:00,
2013-11-28 02:36:00,29.3,14.3,30.12,NW,315,2.0,5.0,53,0.00,,,0.00,0.00,VWS V14.01,2013-11-28 07:36:00,
2013-11-28 02:37:00,29.3,14.3,30.12,NW,315,0.0,2.0,53,0.00,,,0.00,0.00,VWS V14.01,2013-11-28 07:37:00,
2013-11-28 02:38:00,29.3,14.7,30.12,NNW,345,5.0,6.0,54,0.00,,,0.00,0.00,VWS V14.01,2013-11-28 07:38:00,
2013-11-28 02:39:00,29.1,14.5,30.12,NW,322,3.0,14.0,54,0.00,,,0.00,0.00,VWS V14.01,2013-11-28 07:39:00,
2013-11-28 02:40:00,29.3,14.7,30.12,NW,307,9.0,14.0,54,0.00,,,0.00,0.00,VWS V14.01,2013-11-28 07:40:00,
2013-11-28 02:41:00,29.1,14.1,30.12,North,356,1.0,11.0,53,0.00,,,0.00,0.00,VWS V14.01,2013-11-28 07:41:00,
2013-11-28 02:42:00,29.1,14.1,30.12,NNW,345,4.0,10.0,53,0.00,,,0.00,0.00,VWS V14.01,2013-11-28 07:42:00,
2013-11-28 02:43:00,29.1,14.1,30.12,North,10,6.0,6.0,53,0.00,,,0.00,0.00,VWS V14.01,2013-11-28 07:43:00,
2013-11-28 02:44:00,29.1,14.1,30.12,NNW,337,8.0,8.0,53,0.00,,,0.00,0.00,VWS V14.01,2013-11-28 07:44:00,
2013-11-28 02:45:00,29.3,14.3,30.12,NW,315,0.0,0.0,53,0.00,,,0.00,0.00,VWS V14.01,2013-11-28 07:45:00,
2013-11-28 02:46:00,29.1,14.1,30.13,NNW,338,7.0,7.0,53,0.00,,,0.00,0.00,VWS V14.01,2013-11-28 07:46:00,
2013-11-28 02:47:00,29.1,14.1,30.13,NW,319,5.0,10.0,53,0.00,,,0.00,0.00,VWS V14.01,2013-11-28 07:47:00,
2013-11-28 02:48:00,29.1,14.1,30.13,NW,316,0.0,5.0,53,0.00,,,0.00,0.00,VWS V14.01,2013-11-28 07:48:00,
2013-11-28 02:49:00,29.1,14.1,30.13,NW,315,0.0,1.0,53,0.00,,,0.00,0.00,VWS V14.01,2013-11-28 07:49:00,
2013-11-28 02:50:00,29.1,14.1,30.12,NNW,345,4.0,10.0,53,0.00,,,0.00,0.00,VWS V14.01,2013-11-28 07:50:00,
2013-11-28 02:51:00,29.1,14.5,30.13,NNW,345,1.0,5.0,54,0.00,,,0.00,0.00,VWS V14.01,2013-11-28 07:51:00,
2013-11-28 02:52:00,29.1,14.1,30.13,North,4,3.0,4.0,53,0.00,,,0.00,0.00,VWS V14.01,2013-11-28 07:52:00,
2013-11-28 02:53:00,29.1,14.1,30.13,NNE,18,4.0,4.0,53,0.00,,,0.00,0.00,VWS V14.01,2013-11-28 07:53:00,
2013-11-28 02:54:00,29.1,14.1,30.13,North,11,6.0,6.0,53,0.00,,,0.00,0.00,VWS V14.01,2013-11-28 07:54:00,
2013-11-28 02:55:00,29.1,14.1,30.13,NNW,332,5.0,5.0,53,0.00,,,0.00,0.00,VWS V14.01,2013-11-28 07:55:00,
2013-11-28 02:56:00,29.1,14.1,30.13,North,0,0.0,4.0,53,0.00,,,0.00,0.00,VWS V14.01,2013-11-28 07:56:00,
2013-11-28 02:57:00,29.1,14.1,30.13,NW,321,0.0,2.0,53,0.00,,,0.00,0.00,VWS V14.01,2013-11-28 07:57:00,
2013-11-28 02:58:00,29.0,14.4,30.13,North,356,2.0,2.0,54,0.00,,,0.00,0.00,VWS V14.01,2013-11-28 07:58:00,
2013-11-28 02:59:00,29.0,14.4,30.13,NNW,340,0.0,2.0,54,0.00,,,0.00,0.00,VWS V14.01,2013-11-28 07:59:00,
2013-11-28 03:00:00,29.1,14.1,30.13,North,5,0.0,3.0,53,0.00,,,0.00,0.00,VWS V14.01,2013-11-28 08:00:00,
2013-11-28 03:01:00,29.0,14.4,30.15,West,268,0.0,3.0,54,0.00,,,0.00,0.00,VWS V14.01,2013-11-28 08:01:00,
2013-11-28 03:02:00,29.0,14.4,30.15,NW,320,0.0,3.0,54,0.00,,,0.00,0.00,VWS V14.01,2013-11-28 08:02:00,
2013-11-28 03:03:00,29.0,14.4,30.15,NW,323,0.0,0.0,54,0.00,,,0.00,0.00,VWS V14.01,2013-11-28 08:03:00,
2013-11-28 03:04:00,28.8,14.3,30.15,NW,320,0.0,0.0,54,0.00,,,0.00,0.00,VWS V14.01,2013-11-28 08:04:00,
2013-11-28 03:05:00,29.0,14.0,30.13,NW,321,0.0,0.0,53,0.00,,,0.00,0.00,VWS V14.01,2013-11-28 08:05:00,
2013-11-28 03:06:00,28.8,14.7,30.15,NW,318,0.0,0.0,55,0.00,,,0.00,0.00,VWS V14.01,2013-11-28 08:06:00,
2013-11-28 03:07:00,28.8,14.7,30.15,NW,311,3.0,5.0,55,0.00,,,0.00,0.00,VWS V14.01,2013-11-28 08:07:00,
2013-11-28 03:08:00,28.7,14.6,30.15,NNW,342,1.0,3.0,55,0.00,,,0.00,0.00,VWS V14.01,2013-11-28 08:08:00,
2013-11-28 03:09:00,28.7,14.2,30.15,NNW,342,0.0,1.0,54,0.00,,,0.00,0.00,VWS V14.01,2013-11-28 08:09:00,
2013-11-28 03:10:00,29.0,14.4,30.15,NW,323,0.0,0.0,54,0.00,,,0.00,0.00,VWS V14.01,2013-11-28 08:10:00,
2013-11-28 03:11:00,28.7,14.2,30.15,North,358,0.0,3.0,54,0.00,,,0.00,0.00,VWS V14.01,2013-11-28 08:11:00,
2013-11-28 03:12:00,28.7,14.2,30.15,NW,316,1.0,2.0,54,0.00,,,0.00,0.00,VWS V14.01,2013-11-28 08:12:00,
2013-11-28 03:13:00,28.7,14.2,30.15,NNW,345,4.0,4.0,54,0.00,,,0.00,0.00,VWS V14.01,2013-11-28 08:13:00,
2013-11-28 03:14:00,28.7,14.2,30.15,North,349,0.0,4.0,54,0.00,,,0.00,0.00,VWS V14.01,2013-11-28 08:14:00,
2013-11-28 03:15:00,28.8,14.7,30.15,NW,319,1.0,3.0,55,0.00,,,0.00,0.00,VWS V14.01,2013-11-28 08:15:00,
2013-11-28 03:16:00,28.5,14.4,30.15,NNW,347,0.0,0.0,55,0.00,,,0.00,0.00,VWS V14.01,2013-11-28 08:16:00,
2013-11-28 03:17:00,28.5,14.4,30.15,North,358,0.0,1.0,55,0.00,,,0.00,0.00,VWS V14.01,2013-11-28 08:17:00,
2013-11-28 03:18:00,28.5,14.0,30.15,North,350,0.0,0.0,54,0.00,,,0.00,0.00,VWS V14.01,2013-11-28 08:18:00,
2013-11-28 03:19:00,28.5,14.4,30.15,NNW,342,0.0,3.0,55,0.00,,,0.00,0.00,VWS V14.01,2013-11-28 08:19:00,
2013-11-28 03:20:00,28.7,14.2,30.15,NW,320,2.0,2.0,54,0.00,,,0.00,0.00,VWS V14.01,2013-11-28 08:20:00,
2013-11-28 03:21:00,28.5,14.0,30.15,North,358,0.0,9.0,54,0.00,,,0.00,0.00,VWS V14.01,2013-11-28 08:21:00,
2013-11-28 03:22:00,28.5,14.0,30.15,North,357,3.0,3.0,54,0.00,,,0.00,0.00,VWS V14.01,2013-11-28 08:22:00,
2013-11-28 03:23:00,28.5,14.0,30.15,WNW,299,3.0,3.0,54,0.00,,,0.00,0.00,VWS V14.01,2013-11-28 08:23:00,
2013-11-28 03:24:00,28.5,14.0,30.15,North,349,0.0,3.0,54,0.00,,,0.00,0.00,VWS V14.01,2013-11-28 08:24:00,
2013-11-28 03:25:00,28.5,14.4,30.15,North,350,0.0,0.0,55,0.00,,,0.00,0.00,VWS V14.01,2013-11-28 08:25:00,
2013-11-28 03:26:00,28.5,14.0,30.15,North,349,0.0,0.0,54,0.00,,,0.00,0.00,VWS V14.01,2013-11-28 08:26:00,
2013-11-28 03:27:00,28.5,14.0,30.15,NW,321,3.0,4.0,54,0.00,,,0.00,0.00,VWS V14.01,2013-11-28 08:27:00,
2013-11-28 03:28:00,28.5,14.0,30.15,WNW,296,0.0,4.0,54,0.00,,,0.00,0.00,VWS V14.01,2013-11-28 08:28:00,
2013-11-28 03:29:00,28.5,14.0,30.15,NW,310,0.0,0.0,54,0.00,,,0.00,0.00,VWS V14.01,2013-11-28 08:29:00,
2013-11-28 03:30:00,28.5,14.0,30.15,WNW,299,3.0,3.0,54,0.00,,,0.00,0.00,VWS V14.01,2013-11-28 08:30:00,
2013-11-28 03:31:00,28.4,13.9,30.16,NW,304,0.0,0.0,54,0.00,,,0.00,0.00,VWS V14.01,2013-11-28 08:31:00,
2013-11-28 03:32:00,28.4,13.9,30.16,NW,304,0.0,0.0,54,0.00,,,0.00,0.00,VWS V14.01,2013-11-28 08:32:00,
2013-11-28 03:33:00,28.4,13.9,30.16,NW,304,0.0,0.0,54,0.00,,,0.00,0.00,VWS V14.01,2013-11-28 08:33:00,
2013-11-28 03:34:00,28.4,14.3,30.16,NNW,333,4.0,4.0,55,0.00,,,0.00,0.00,VWS V14.01,2013-11-28 08:34:00,
2013-11-28 03:35:00,28.5,14.0,30.15,WNW,296,0.0,4.0,54,0.00,,,0.00,0.00,VWS V14.01,2013-11-28 08:35:00,
2013-11-28 03:36:00,28.4,14.3,30.16,NW,307,0.0,1.0,55,0.00,,,0.00,0.00,VWS V14.01,2013-11-28 08:36:00,
2013-11-28 03:37:00,28.4,14.3,30.16,NNW,334,0.0,2.0,55,0.00,,,0.00,0.00,VWS V14.01,2013-11-28 08:37:00,
2013-11-28 03:38:00,28.4,14.3,30.16,NNW,334,0.0,0.0,55,0.00,,,0.00,0.00,VWS V14.01,2013-11-28 08:38:00,
2013-11-28 03:39:00,28.4,14.3,30.16,NNW,334,0.0,0.0,55,0.00,,,0.00,0.00,VWS V14.01,2013-11-28 08:39:00,
2013-11-28 03:40:00,28.4,13.9,30.16,NW,304,0.0,0.0,54,0.00,,,0.00,0.00,VWS V14.01,2013-11-28 08:40:00,
2013-11-28 03:41:00,28.2,14.1,30.16,NNW,334,0.0,0.0,55,0.00,,,0.00,0.00,VWS V14.01,2013-11-28 08:41:00,
2013-11-28 03:42:00,28.2,14.1,30.16,NNW,334,0.0,0.0,55,0.00,,,0.00,0.00,VWS V14.01,2013-11-28 08:42:00,
2013-11-28 03:43:00,28.2,14.1,30.16,NNW,334,0.0,0.0,55,0.00,,,0.00,0.00,VWS V14.01,2013-11-28 08:43:00,
2013-11-28 03:44:00,28.2,14.1,30.16,NNW,328,0.0,2.0,55,0.00,,,0.00,0.00,VWS V14.01,2013-11-28 08:44:00,
2013-11-28 03:45:00,28.4,14.3,30.16,NNW,334,0.0,0.0,55,0.00,,,0.00,0.00,VWS V14.01,2013-11-28 08:45:00,
2013-11-28 03:46:00,28.1,14.0,30.16,NNW,328,2.0,2.0,55,0.00,,,0.00,0.00,VWS V14.01,2013-11-28 08:46:00,
2013-11-28 03:47:00,28.1,14.0,30.16,NNW,328,0.0,2.0,55,0.00,,,0.00,0.00,VWS V14.01,2013-11-28 08:47:00,
2013-11-28 03:48:00,28.1,14.0,30.16,NNW,329,0.0,2.0,55,0.00,,,0.00,0.00,VWS V14.01,2013-11-28 08:48:00,
2013-11-28 03:49:00,28.1,14.0,30.16,NW,319,4.0,4.0,55,0.00,,,0.00,0.00,VWS V14.01,2013-11-28 08:49:00,
2013-11-28 03:50:00,27.9,13.8,30.16,NNW,341,0.0,4.0,55,0.00,,,0.00,0.00,VWS V14.01,2013-11-28 08:50:00,
2013-11-28 03:51:00,28.2,14.1,30.16,NNW,334,0.0,0.0,55,0.00,,,0.00,0.00,VWS V14.01,2013-11-28 08:51:00,
2013-11-28 03:52:00,27.9,13.8,30.16,NNW,341,0.0,0.0,55,0.00,,,0.00,0.00,VWS V14.01,2013-11-28 08:52:00,
2013-11-28 03:53:00,27.9,13.8,30.16,NNW,341,0.0,0.0,55,0.00,,,0.00,0.00,VWS V14.01,2013-11-28 08:53:00,
2013-11-28 03:54:00,27.9,14.2,30.16,NNW,341,3.0,4.0,56,0.00,,,0.00,0.00,VWS V14.01,2013-11-28 08:54:00,
2013-11-28 03:55:00,27.9,13.8,30.16,NNW,342,0.0,3.0,55,0.00,,,0.00,0.00,VWS V14.01,2013-11-28 08:55:00,
2013-11-28 03:56:00,28.1,14.0,30.16,NNW,329,0.0,2.0,55,0.00,,,0.00,0.00,VWS V14.01,2013-11-28 08:56:00,
2013-11-28 03:57:00,27.8,13.8,30.16,NNW,347,5.0,5.0,55,0.00,,,0.00,0.00,VWS V14.01,2013-11-28 08:57:00,
2013-11-28 03:58:00,27.8,13.8,30.16,North,357,0.0,5.0,55,0.00,,,0.00,0.00,VWS V14.01,2013-11-28 08:58:00,
2013-11-28 03:59:00,27.8,13.8,30.16,North,357,0.0,0.0,55,0.00,,,0.00,0.00,VWS V14.01,2013-11-28 08:59:00,
2013-11-28 04:00:00,27.8,13.8,30.17,North,357,0.0,0.0,55,0.00,,,0.00,0.00,VWS V14.01,2013-11-28 09:00:00,
2013-11-28 04:01:00,27.9,13.8,30.16,NNW,341,0.0,0.0,55,0.00,,,0.00,0.00,VWS V14.01,2013-11-28 09:01:00,
2013-11-28 04:02:00,27.8,14.2,30.17,NNW,348,0.0,0.0,56,0.00,,,0.00,0.00,VWS V14.01,2013-11-28 09:02:00,
2013-11-28 04:03:00,27.8,14.2,30.17,NNW,348,0.0,0.0,56,0.00,,,0.00,0.00,VWS V14.01,2013-11-28 09:03:00,
2013-11-28 04:04:00,27.8,14.2,30.17,NNW,348,0.0,0.0,56,0.00,,,0.00,0.00,VWS V14.01,2013-11-28 09:04:00,
2013-11-28 04:05:00,27.6,14.0,30.17,NNW,347,0.0,0.0,56,0.00,,,0.00,0.00,VWS V14.01,2013-11-28 09:05:00,
2013-11-28 04:06:00,27.8,13.8,30.16,North,357,0.0,5.0,55,0.00,,,0.00,0.00,VWS V14.01,2013-11-28 09:06:00,
2013-11-28 04:07:00,27.6,14.0,30.17,North,358,0.0,5.0,56,0.00,,,0.00,0.00,VWS V14.01,2013-11-28 09:07:00,
2013-11-28 04:08:00,27.6,14.0,30.17,North,356,0.0,0.0,56,0.00,,,0.00,0.00,VWS V14.01,2013-11-28 09:08:00,
2013-11-28 04:09:00,27.6,14.0,30.17,North,356,0.0,0.0,56,0.00,,,0.00,0.00,VWS V14.01,2013-11-28 09:09:00,
2013-11-28 04:10:00,27.6,14.0,30.17,NW,305,0.0,1.0,56,0.00,,,0.00,0.00,VWS V14.01,2013-11-28 09:10:00,
2013-11-28 04:11:00,27.8,14.2,30.17,NNW,348,0.0,0.0,56,0.00,,,0.00,0.00,VWS V14.01,2013-11-28 09:11:00,
2013-11-28 04:12:00,27.6,14.0,30.17,NW,305,0.0,0.0,56,0.00,,,0.00,0.00,VWS V14.01,2013-11-28 09:12:00,
2013-11-28 04:13:00,27.6,14.0,30.17,WNW,298,0.0,5.0,56,0.00,,,0.00,0.00,VWS V14.01,2013-11-28 09:13:00,
2013-11-28 04:14:00,27.6,13.6,30.17,WNW,298,0.0,3.0,55,0.00,,,0.00,0.00,VWS V14.01,2013-11-28 09:14:00,
2013-11-28 04:15:00,27.6,14.0,30.18,WNW,298,0.0,0.0,56,0.00,,,0.00,0.00,VWS V14.01,2013-11-28 09:15:00,
2013-11-28 04:16:00,27.6,13.6,30.17,North,356,0.0,0.0,55,0.00,,,0.00,0.00,VWS V14.01,2013-11-28 09:16:00,
2013-11-28 04:17:00,27.6,14.0,30.18,WNW,299,0.0,0.0,56,0.00,,,0.00,0.00,VWS V14.01,2013-11-28 09:17:00,
2013-11-28 04:18:00,27.6,14.0,30.18,WNW,299,1.0,1.0,56,0.00,,,0.00,0.00,VWS V14.01,2013-11-28 09:18:00,
2013-11-28 04:19:00,27.6,14.0,30.18,WNW,299,0.0,2.0,56,0.00,,,0.00,0.00,VWS V14.01,2013-11-28 09:19:00,
2013-11-28 04:20:00,27.5,14.3,30.18,WNW,298,0.0,0.0,57,0.00,,,0.00,0.00,VWS V14.01,2013-11-28 09:20:00,
2013-11-28 04:21:00,27.6,14.0,30.17,WNW,299,0.0,0.0,56,0.00,,,0.00,0.00,VWS V14.01,2013-11-28 09:21:00,
2013-11-28 04:22:00,27.5,14.3,30.18,WNW,291,0.0,3.0,57,0.00,,,0.00,0.00,VWS V14.01,2013-11-28 09:22:00,
2013-11-28 04:23:00,27.5,14.3,30.18,WNW,290,3.0,3.0,57,0.00,,,0.00,0.00,VWS V14.01,2013-11-28 09:23:00,
2013-11-28 04:24:00,27.5,14.3,30.18,WNW,290,3.0,3.0,57,0.00,,,0.00,0.00,VWS V14.01,2013-11-28 09:24:00,
2013-11-28 04:25:00,27.5,14.3,30.18,WNW,282,0.0,4.0,57,0.00,,,0.00,0.00,VWS V14.01,2013-11-28 09:25:00,
2013-11-28 04:26:00,27.6,14.0,30.18,WNW,299,2.0,2.0,56,0.00,,,0.00,0.00,VWS V14.01,2013-11-28 09:26:00,
2013-11-28 04:27:00,27.5,13.9,30.18,WNW,290,0.0,3.0,56,0.00,,,0.00,0.00,VWS V14.01,2013-11-28 09:27:00,
2013-11-28 04:28:00,27.5,13.9,30.18,WNW,290,0.0,0.0,56,0.00,,,0.00,0.00,VWS V14.01,2013-11-28 09:28:00,
2013-11-28 04:29:00,27.5,14.3,30.18,WNW,290,0.0,0.0,57,0.00,,,0.00,0.00,VWS V14.01,2013-11-28 09:29:00,
2013-11-28 04:30:00,27.5,14.3,30.19,WNW,290,0.0,3.0,57,0.00,,,0.00,0.00,VWS V14.01,2013-11-28 09:30:00,
2013-11-28 04:31:00,27.5,14.3,30.18,WNW,290,3.0,3.0,57,0.00,,,0.00,0.00,VWS V14.01,2013-11-28 09:31:00,
2013-11-28 04:32:00,27.5,14.3,30.19,WNW,290,0.0,0.0,57,0.00,,,0.00,0.00,VWS V14.01,2013-11-28 09:32:00,
2013-11-28 04:33:00,27.5,14.3,30.19,WNW,290,0.0,0.0,57,0.00,,,0.00,0.00,VWS V14.01,2013-11-28 09:33:00,
2013-11-28 04:34:00,27.5,14.3,30.19,WNW,290,0.0,0.0,57,0.00,,,0.00,0.00,VWS V14.01,2013-11-28 09:34:00,
2013-11-28 04:35:00,27.5,14.3,30.19,WNW,290,0.0,0.0,57,0.00,,,0.00,0.00,VWS V14.01,2013-11-28 09:35:00,
2013-11-28 04:36:00,27.5,13.9,30.18,WNW,290,0.0,0.0,56,0.00,,,0.00,0.00,VWS V14.01,2013-11-28 09:36:00,
2013-11-28 04:37:00,27.3,14.5,30.19,WNW,290,0.0,0.0,58,0.00,,,0.00,0.00,VWS V14.01,2013-11-28 09:37:00,
2013-11-28 04:38:00,27.3,14.5,30.19,WNW,290,0.0,0.0,58,0.00,,,0.00,0.00,VWS V14.01,2013-11-28 09:38:00,
2013-11-28 04:39:00,27.3,14.5,30.19,WNW,290,0.0,0.0,58,0.00,,,0.00,0.00,VWS V14.01,2013-11-28 09:39:00,
2013-11-28 04:40:00,27.2,14.8,30.19,WNW,290,0.0,0.0,59,0.00,,,0.00,0.00,VWS V14.01,2013-11-28 09:40:00,
2013-11-28 04:41:00,27.5,14.3,30.19,WNW,290,0.0,0.0,57,0.00,,,0.00,0.00,VWS V14.01,2013-11-28 09:41:00,
2013-11-28 04:42:00,27.2,14.8,30.19,WNW,290,0.0,0.0,59,0.00,,,0.00,0.00,VWS V14.01,2013-11-28 09:42:00,
2013-11-28 04:43:00,27.2,14.8,30.19,WNW,290,2.0,3.0,59,0.00,,,0.00,0.00,VWS V14.01,2013-11-28 09:43:00,
2013-11-28 04:44:00,27.0,14.6,30.19,WNW,290,0.0,2.0,59,0.00,,,0.00,0.00,VWS V14.01,2013-11-28 09:44:00,
2013-11-28 04:45:00,27.0,14.6,30.19,WNW,290,0.0,2.0,59,0.00,,,0.00,0.00,VWS V14.01,2013-11-28 09:45:00,
2013-11-28 04:46:00,27.3,14.5,30.19,WNW,290,0.0,0.0,58,0.00,,,0.00,0.00,VWS V14.01,2013-11-28 09:46:00,
2013-11-28 04:47:00,27.0,14.2,30.19,WNW,290,0.0,0.0,58,0.00,,,0.00,0.00,VWS V14.01,2013-11-28 09:47:00,
2013-11-28 04:48:00,27.0,14.2,30.19,WNW,290,0.0,0.0,58,0.00,,,0.00,0.00,VWS V14.01,2013-11-28 09:48:00,
2013-11-28 04:49:00,26.9,14.1,30.19,WNW,290,0.0,0.0,58,0.00,,,0.00,0.00,VWS V14.01,2013-11-28 09:49:00,
2013-11-28 04:50:00,26.9,14.5,30.19,WNW,290,0.0,0.0,59,0.00,,,0.00,0.00,VWS V14.01,2013-11-28 09:50:00,
2013-11-28 04:51:00,27.0,14.6,30.19,WNW,290,2.0,2.0,59,0.00,,,0.00,0.00,VWS V14.01,2013-11-28 09:51:00,
2013-11-28 04:52:00,26.9,14.5,30.19,WNW,290,0.0,0.0,59,0.00,,,0.00,0.00,VWS V14.01,2013-11-28 09:52:00,
2013-11-28 04:53:00,26.7,14.3,30.19,WNW,290,0.0,0.0,59,0.00,,,0.00,0.00,VWS V14.01,2013-11-28 09:53:00,
2013-11-28 04:54:00,26.7,14.3,30.19,WNW,290,0.0,0.0,59,0.00,,,0.00,0.00,VWS V14.01,2013-11-28 09:54:00,
2013-11-28 04:55:00,26.7,14.7,30.19,WNW,290,0.0,0.0,60,0.00,,,0.00,0.00,VWS V14.01,2013-11-28 09:55:00,
2013-11-28 04:56:00,26.9,14.1,30.19,WNW,290,0.0,0.0,58,0.00,,,0.00,0.00,VWS V14.01,2013-11-28 09:56:00,
2013-11-28 04:57:00,26.6,14.6,30.19,WNW,290,0.0,0.0,60,0.00,,,0.00,0.00,VWS V14.01,2013-11-28 09:57:00,
2013-11-28 04:58:00,26.6,14.6,30.19,WNW,290,0.0,0.0,60,0.00,,,0.00,0.00,VWS V14.01,2013-11-28 09:58:00,
2013-11-28 04:59:00,26.6,14.6,30.19,WNW,290,0.0,0.0,60,0.00,,,0.00,0.00,VWS V14.01,2013-11-28 09:59:00,
2013-11-28 05:00:00,26.4,14.4,30.20,WNW,290,0.0,0.0,60,0.00,,,0.00,0.00,VWS V14.01,2013-11-28 10:00:00,
2013-11-28 05:01:00,26.7,14.3,30.19,WNW,290,0.0,0.0,59,0.00,,,0.00,0.00,VWS V14.01,2013-11-28 10:01:00,
2013-11-28 05:02:00,26.4,14.8,30.20,WNW,290,0.0,0.0,61,0.00,,,0.00,0.00,VWS V14.01,2013-11-28 10:02:00,
2013-11-28 05:03:00,26.4,14.8,30.20,WNW,290,0.0,0.0,61,0.00,,,0.00,0.00,VWS V14.01,2013-11-28 10:03:00,
2013-11-28 05:04:00,26.3,14.7,30.20,WNW,290,0.0,0.0,61,0.00,,,0.00,0.00,VWS V14.01,2013-11-28 10:04:00,
2013-11-28 05:05:00,26.3,14.7,30.20,WNW,290,0.0,0.0,61,0.00,,,0.00,0.00,VWS V14.01,2013-11-28 10:05:00,
2013-11-28 05:06:00,26.6,14.6,30.19,WNW,290,0.0,0.0,60,0.00,,,0.00,0.00,VWS V14.01,2013-11-28 10:06:00,
2013-11-28 05:07:00,26.3,15.1,30.20,WNW,290,0.0,0.0,62,0.00,,,0.00,0.00,VWS V14.01,2013-11-28 10:07:00,
2013-11-28 05:08:00,26.1,14.9,30.20,WNW,290,0.0,0.0,62,0.00,,,0.00,0.00,VWS V14.01,2013-11-28 10:08:00,
2013-11-28 05:09:00,26.1,14.9,30.20,WNW,290,0.0,0.0,62,0.00,,,0.00,0.00,VWS V14.01,2013-11-28 10:09:00,
2013-11-28 05:10:00,26.0,15.1,30.20,WNW,290,0.0,0.0,63,0.00,,,0.00,0.00,VWS V14.01,2013-11-28 10:10:00,
2013-11-28 05:11:00,26.4,14.8,30.20,WNW,290,0.0,0.0,61,0.00,,,0.00,0.00,VWS V14.01,2013-11-28 10:11:00,
2013-11-28 05:12:00,26.0,14.8,30.20,WNW,290,0.0,0.0,62,0.00,,,0.00,0.00,VWS V14.01,2013-11-28 10:12:00,
2013-11-28 05:13:00,26.0,15.1,30.20,WNW,290,0.0,0.0,63,0.00,,,0.00,0.00,VWS V14.01,2013-11-28 10:13:00,
2013-11-28 05:14:00,25.8,14.6,30.21,WNW,290,0.0,0.0,62,0.00,,,0.00,0.00,VWS V14.01,2013-11-28 10:14:00,
2013-11-28 05:15:00,25.8,14.6,30.21,WNW,290,0.0,0.0,62,0.00,,,0.00,0.00,VWS V14.01,2013-11-28 10:15:00,
2013-11-28 05:16:00,25.8,14.6,30.21,WNW,290,0.0,0.0,62,0.00,,,0.00,0.00,VWS V14.01,2013-11-28 10:16:00,
2013-11-28 05:17:00,26.1,14.9,30.20,WNW,290,0.0,0.0,62,0.00,,,0.00,0.00,VWS V14.01,2013-11-28 10:17:00,
2013-11-28 05:18:00,25.8,14.6,30.21,WNW,290,0.0,0.0,62,0.00,,,0.00,0.00,VWS V14.01,2013-11-28 10:18:00,
2013-11-28 05:19:00,25.8,14.6,30.21,WNW,290,0.0,0.0,62,0.00,,,0.00,0.00,VWS V14.01,2013-11-28 10:19:00,
2013-11-28 05:20:00,25.8,15.0,30.21,WNW,290,0.0,0.0,63,0.00,,,0.00,0.00,VWS V14.01,2013-11-28 10:20:00,
2013-11-28 05:21:00,25.8,14.6,30.21,WNW,290,0.0,0.0,62,0.00,,,0.00,0.00,VWS V14.01,2013-11-28 10:21:00,
2013-11-28 05:22:00,25.8,14.6,30.20,WNW,290,0.0,0.0,62,0.00,,,0.00,0.00,VWS V14.01,2013-11-28 10:22:00,
2013-11-28 05:23:00,25.8,14.6,30.21,WNW,290,0.0,0.0,62,0.00,,,0.00,0.00,VWS V14.01,2013-11-28 10:23:00,
2013-11-28 05:24:00,25.7,14.5,30.21,WNW,290,0.0,2.0,62,0.00,,,0.00,0.00,VWS V14.01,2013-11-28 10:24:00,
2013-11-28 05:25:00,25.7,14.5,30.21,WNW,290,0.0,0.0,62,0.00,,,0.00,0.00,VWS V14.01,2013-11-28 10:25:00,
2013-11-28 05:26:00,25.7,14.5,30.21,WNW,290,0.0,0.0,62,0.00,,,0.00,0.00,VWS V14.01,2013-11-28 10:26:00,
2013-11-28 05:27:00,25.8,14.6,30.21,WNW,290,0.0,0.0,62,0.00,,,0.00,0.00,VWS V14.01,2013-11-28 10:27:00,
2013-11-28 05:28:00,25.7,14.5,30.21,WNW,290,0.0,0.0,62,0.00,,,0.00,0.00,VWS V14.01,2013-11-28 10:28:00,
2013-11-28 05:29:00,25.7,14.5,30.21,WNW,290,0.0,0.0,62,0.00,,,0.00,0.00,VWS V14.01,2013-11-28 10:29:00,
2013-11-28 05:30:00,25.7,14.5,30.21,WNW,290,0.0,0.0,62,0.00,,,0.00,0.00,VWS V14.01,2013-11-28 10:30:00,
2013-11-28 05:31:00,25.7,14.9,30.21,WNW,290,0.0,2.0,63,0.00,,,0.00,0.00,VWS V14.01,2013-11-28 10:31:00,
2013-11-28 05:32:00,25.7,14.5,30.21,WNW,290,0.0,2.0,62,0.00,,,0.00,0.00,VWS V14.01,2013-11-28 10:32:00,
2013-11-28 05:33:00,25.7,14.9,30.21,WNW,290,0.0,0.0,63,0.00,,,0.00,0.00,VWS V14.01,2013-11-28 10:33:00,
2013-11-28 05:34:00,25.7,14.9,30.21,WNW,290,0.0,0.0,63,0.00,,,0.00,0.00,VWS V14.01,2013-11-28 10:34:00,
2013-11-28 05:35:00,25.6,14.8,30.21,WNW,290,0.0,0.0,63,0.00,,,0.00,0.00,VWS V14.01,2013-11-28 10:35:00,
2013-11-28 05:36:00,25.6,14.8,30.21,WNW,290,0.0,0.0,63,0.00,,,0.00,0.00,VWS V14.01,2013-11-28 10:36:00,
2013-11-28 05:37:00,25.7,14.5,30.21,WNW,290,0.0,0.0,62,0.00,,,0.00,0.00,VWS V14.01,2013-11-28 10:37:00,
2013-11-28 05:38:00,25.6,14.8,30.21,WNW,290,0.0,0.0,63,0.00,,,0.00,0.00,VWS V14.01,2013-11-28 10:38:00,
2013-11-28 05:39:00,25.6,14.8,30.21,WNW,290,0.0,0.0,63,0.00,,,0.00,0.00,VWS V14.01,2013-11-28 10:39:00,
2013-11-28 05:40:00,25.6,14.8,30.21,WNW,290,0.0,0.0,63,0.00,,,0.00,0.00,VWS V14.01,2013-11-28 10:40:00,
2013-11-28 05:41:00,25.4,14.9,30.21,WNW,290,0.0,0.0,64,0.00,,,0.00,0.00,VWS V14.01,2013-11-28 10:41:00,
2013-11-28 05:42:00,25.7,14.9,30.21,WNW,290,0.0,0.0,63,0.00,,,0.00,0.00,VWS V14.01,2013-11-28 10:42:00,
2013-11-28 05:43:00,25.4,14.9,30.21,WNW,290,0.0,0.0,64,0.00,,,0.00,0.00,VWS V14.01,2013-11-28 10:43:00,
2013-11-28 05:44:00,25.4,14.9,30.21,WNW,290,0.0,0.0,64,0.00,,,0.00,0.00,VWS V14.01,2013-11-28 10:44:00,
2013-11-28 05:45:00,25.4,14.9,30.21,WNW,290,0.0,0.0,64,0.00,,,0.00,0.00,VWS V14.01,2013-11-28 10:45:00,
2013-11-28 05:46:00,25.4,15.3,30.21,WNW,290,0.0,0.0,65,0.00,,,0.00,0.00,VWS V14.01,2013-11-28 10:46:00,
2013-11-28 05:47:00,25.6,14.8,30.21,WNW,290,0.0,0.0,63,0.00,,,0.00,0.00,VWS V14.01,2013-11-28 10:47:00,
2013-11-28 05:48:00,25.3,15.2,30.21,WNW,290,0.0,0.0,65,0.00,,,0.00,0.00,VWS V14.01,2013-11-28 10:48:00,
2013-11-28 05:49:00,25.3,15.6,30.21,WNW,290,0.0,0.0,66,0.00,,,0.00,0.00,VWS V14.01,2013-11-28 10:49:00,
2013-11-28 05:50:00,25.3,15.6,30.21,WNW,290,0.0,0.0,66,0.00,,,0.00,0.00,VWS V14.01,2013-11-28 10:50:00,
2013-11-28 05:51:00,25.3,15.2,30.21,WNW,290,0.0,0.0,65,0.00,,,0.00,0.00,VWS V14.01,2013-11-28 10:51:00,
2013-11-28 05:52:00,25.4,14.9,30.21,WNW,290,0.0,0.0,64,0.00,,,0.00,0.00,VWS V14.01,2013-11-28 10:52:00,
2013-11-28 05:53:00,25.1,15.4,30.21,WNW,290,0.0,0.0,66,0.00,,,0.00,0.00,VWS V14.01,2013-11-28 10:53:00,
2013-11-28 05:54:00,25.1,15.0,30.21,WNW,290,0.0,0.0,65,0.00,,,0.00,0.00,VWS V14.01,2013-11-28 10:54:00,
2013-11-28 05:55:00,25.1,15.4,30.21,WNW,290,0.0,0.0,66,0.00,,,0.00,0.00,VWS V14.01,2013-11-28 10:55:00,
2013-11-28 05:56:00,25.1,15.4,30.21,WNW,290,1.0,1.0,66,0.00,,,0.00,0.00,VWS V14.01,2013-11-28 10:56:00,
2013-11-28 05:57:00,25.3,15.6,30.21,WNW,290,0.0,0.0,66,0.00,,,0.00,0.00,VWS V14.01,2013-11-28 10:57:00,
2013-11-28 05:58:00,25.0,15.3,30.21,WNW,290,0.0,0.0,66,0.00,,,0.00,0.00,VWS V14.01,2013-11-28 10:58:00,
2013-11-28 05:59:00,25.0,15.3,30.23,WNW,290,0.0,0.0,66,0.00,,,0.00,0.00,VWS V14.01,2013-11-28 10:59:00,
2013-11-28 06:00:00,25.0,15.3,30.23,WNW,290,0.0,0.0,66,0.00,,,0.00,0.00,VWS V14.01,2013-11-28 11:00:00,
2013-11-28 06:01:00,24.8,15.1,30.23,WNW,290,0.0,0.0,66,0.00,,,0.00,0.00,VWS V14.01,2013-11-28 11:01:00,
2013-11-28 06:02:00,25.1,15.0,30.21,WNW,290,0.0,0.0,65,0.00,,,0.00,0.00,VWS V14.01,2013-11-28 11:02:00,
2013-11-28 06:03:00,24.8,15.1,30.23,WNW,290,0.0,0.0,66,0.00,,,0.00,0.00,VWS V14.01,2013-11-28 11:03:00,
2013-11-28 06:04:00,24.8,15.4,30.23,WNW,290,0.0,0.0,67,0.00,,,0.00,0.00,VWS V14.01,2013-11-28 11:04:00,
2013-11-28 06:05:00,24.7,15.3,30.23,WNW,290,0.0,0.0,67,0.00,,,0.00,0.00,VWS V14.01,2013-11-28 11:05:00,
2013-11-28 06:06:00,24.7,15.3,30.23,WNW,290,0.0,0.0,67,0.00,,,0.00,0.00,VWS V14.01,2013-11-28 11:06:00,
2013-11-28 06:07:00,25.0,15.3,30.23,WNW,290,0.0,0.0,66,0.00,,,0.00,0.00,VWS V14.01,2013-11-28 11:07:00,
2013-11-28 06:08:00,24.7,15.3,30.23,WNW,290,0.0,0.0,67,0.00,,,0.00,0.00,VWS V14.01,2013-11-28 11:08:00,
2013-11-28 06:09:00,24.7,15.3,30.23,WNW,290,0.0,0.0,67,0.00,,,0.00,0.00,VWS V14.01,2013-11-28 11:09:00,
2013-11-28 06:10:00,24.5,15.5,30.23,WNW,290,0.0,0.0,68,0.00,,,0.00,0.00,VWS V14.01,2013-11-28 11:10:00,
2013-11-28 06:11:00,24.5,15.5,30.23,WNW,290,0.0,0.0,68,0.00,,,0.00,0.00,VWS V14.01,2013-11-28 11:11:00,
2013-11-28 06:12:00,24.7,15.3,30.23,WNW,290,0.0,0.0,67,0.00,,,0.00,0.00,VWS V14.01,2013-11-28 11:12:00,
2013-11-28 06:13:00,24.4,15.4,30.23,WNW,290,0.0,0.0,68,0.00,,,0.00,0.00,VWS V14.01,2013-11-28 11:13:00,
2013-11-28 06:14:00,24.4,15.4,30.24,WNW,290,0.0,0.0,68,0.00,,,0.00,0.00,VWS V14.01,2013-11-28 11:14:00,
2013-11-28 06:15:00,24.4,15.4,30.24,WNW,290,0.0,0.0,68,0.00,,,0.00,0.00,VWS V14.01,2013-11-28 11:15:00,
2013-11-28 06:16:00,24.4,15.4,30.24,WNW,290,0.0,0.0,68,0.00,,,0.00,0.00,VWS V14.01,2013-11-28 11:16:00,
2013-11-28 06:17:00,24.5,15.5,30.23,WNW,290,0.0,0.0,68,0.00,,,0.00,0.00,VWS V14.01,2013-11-28 11:17:00,
2013-11-28 06:18:00,24.2,15.2,30.24,WNW,290,0.0,0.0,68,0.00,,,0.00,0.00,VWS V14.01,2013-11-28 11:18:00,
2013-11-28 06:19:00,24.2,15.5,30.24,WNW,290,0.0,0.0,69,0.00,,,0.00,0.00,VWS V14.01,2013-11-28 11:19:00,
2013-11-28 06:20:00,24.2,15.5,30.24,WNW,290,0.0,0.0,69,0.00,,,0.00,0.00,VWS V14.01,2013-11-28 11:20:00,
2013-11-28 06:21:00,24.1,15.4,30.24,WNW,290,0.0,0.0,69,0.00,,,0.00,0.00,VWS V14.01,2013-11-28 11:21:00,
2013-11-28 06:22:00,24.4,15.4,30.24,WNW,290,0.0,0.0,68,0.00,,,0.00,0.00,VWS V14.01,2013-11-28 11:22:00,
2013-11-28 06:23:00,24.1,15.4,30.24,WNW,290,0.0,0.0,69,0.00,,,0.00,0.00,VWS V14.01,2013-11-28 11:23:00,
2013-11-28 06:24:00,24.1,15.1,30.24,WNW,290,0.0,0.0,68,0.00,,,0.00,0.00,VWS V14.01,2013-11-28 11:24:00,
2013-11-28 06:25:00,23.9,15.2,30.24,WNW,290,0.0,0.0,69,0.00,,,0.00,0.00,VWS V14.01,2013-11-28 11:25:00,
2013-11-28 06:26:00,23.9,15.2,30.24,WNW,290,0.0,0.0,69,0.00,,,0.00,0.00,VWS V14.01,2013-11-28 11:26:00,
2013-11-28 06:27:00,24.2,15.5,30.24,WNW,290,0.0,0.0,69,0.00,,,0.00,0.00,VWS V14.01,2013-11-28 11:27:00,
2013-11-28 06:28:00,23.8,15.1,30.24,WNW,290,0.0,0.0,69,0.00,,,0.00,0.00,VWS V14.01,2013-11-28 11:28:00,
2013-11-28 06:29:00,23.8,15.1,30.25,WNW,290,0.0,0.0,69,0.00,,,0.00,0.00,VWS V14.01,2013-11-28 11:29:00,
2013-11-28 06:30:00,23.6,15.3,30.25,WNW,290,0.0,0.0,70,0.00,,,0.00,0.00,VWS V14.01,2013-11-28 11:30:00,
2013-11-28 06:31:00,23.6,15.3,30.25,WNW,290,0.0,0.0,70,0.00,,,0.00,0.00,VWS V14.01,2013-11-28 11:31:00,
2013-11-28 06:32:00,23.9,15.2,30.24,WNW,290,0.0,0.0,69,0.00,,,0.00,0.00,VWS V14.01,2013-11-28 11:32:00,
2013-11-28 06:33:00,23.6,15.3,30.25,WNW,290,0.0,0.0,70,0.00,,,0.00,0.00,VWS V14.01,2013-11-28 11:33:00,
2013-11-28 06:34:00,23.6,15.3,30.25,WNW,290,0.0,0.0,70,0.00,,,0.00,0.00,VWS V14.01,2013-11-28 11:34:00,
2013-11-28 06:35:00,23.5,15.5,30.25,WNW,290,0.0,0.0,71,0.00,,,0.00,0.00,VWS V14.01,2013-11-28 11:35:00,
2013-11-28 06:36:00,23.5,15.5,30.25,WNW,290,0.0,0.0,71,0.00,,,0.00,0.00,VWS V14.01,2013-11-28 11:36:00,
2013-11-28 06:37:00,23.5,15.5,30.25,WNW,290,0.0,0.0,71,0.00,,,0.00,0.00,VWS V14.01,2013-11-28 11:37:00,
2013-11-28 06:38:00,23.8,15.5,30.25,WNW,290,0.0,0.0,70,0.00,,,0.00,0.00,VWS V14.01,2013-11-28 11:38:00,
2013-11-28 06:39:00,23.5,15.8,30.25,WNW,290,0.0,0.0,72,0.00,,,0.00,0.00,VWS V14.01,2013-11-28 11:39:00,
2013-11-28 06:40:00,23.5,15.8,30.25,WNW,290,0.0,0.0,72,0.00,,,0.00,0.00,VWS V14.01,2013-11-28 11:40:00,
2013-11-28 06:41:00,23.5,15.8,30.25,WNW,290,0.0,0.0,72,0.00,,,0.00,0.00,VWS V14.01,2013-11-28 11:41:00,
2013-11-28 06:42:00,23.5,15.8,30.25,WNW,290,0.0,0.0,72,0.00,,,0.00,0.00,VWS V14.01,2013-11-28 11:42:00,
2013-11-28 06:43:00,23.5,15.5,30.25,WNW,290,0.0,0.0,71,0.00,,,0.00,0.00,VWS V14.01,2013-11-28 11:43:00,
2013-11-28 06:44:00,23.3,15.6,30.25,WNW,290,0.0,0.0,72,0.00,,,0.00,0.00,VWS V14.01,2013-11-28 11:44:00,
2013-11-28 06:45:00,23.3,15.6,30.26,WNW,290,0.0,0.0,72,0.00,,,0.00,0.00,VWS V14.01,2013-11-28 11:45:00,
2013-11-28 06:46:00,23.3,15.6,30.26,WNW,290,0.0,0.0,72,0.00,,,0.00,0.00,VWS V14.01,2013-11-28 11:46:00,
2013-11-28 06:47:00,23.3,15.6,30.26,WNW,290,0.0,0.0,72,0.00,,,0.00,0.00,VWS V14.01,2013-11-28 11:47:00,
2013-11-28 06:48:00,23.5,15.8,30.25,WNW,290,0.0,0.0,72,0.00,,,0.00,0.00,VWS V14.01,2013-11-28 11:48:00,
2013-11-28 06:49:00,23.2,15.8,30.26,WNW,290,0.0,0.0,73,0.00,,,0.00,0.00,VWS V14.01,2013-11-28 11:49:00,
2013-11-28 06:50:00,23.2,15.8,30.26,WNW,290,0.0,0.0,73,0.00,,,0.00,0.00,VWS V14.01,2013-11-28 11:50:00,
2013-11-28 06:51:00,23.2,15.8,30.26,WNW,290,0.0,0.0,73,0.00,,,0.00,0.00,VWS V14.01,2013-11-28 11:51:00,
2013-11-28 06:52:00,23.2,15.8,30.26,WNW,290,0.0,0.0,73,0.00,,,0.00,0.00,VWS V14.01,2013-11-28 11:52:00,
2013-11-28 06:53:00,23.3,15.6,30.26,WNW,290,0.0,0.0,72,0.00,,,0.00,0.00,VWS V14.01,2013-11-28 11:53:00,
2013-11-28 06:54:00,23.2,15.8,30.26,WNW,290,0.0,0.0,73,0.00,,,0.00,0.00,VWS V14.01,2013-11-28 11:54:00,
2013-11-28 06:55:00,23.2,16.2,30.26,WNW,290,0.0,0.0,74,0.00,,,0.00,5.00,VWS V14.01,2013-11-28 11:55:00,
2013-11-28 06:56:00,23.2,16.2,30.26,WNW,290,0.0,0.0,74,0.00,,,0.00,5.00,VWS V14.01,2013-11-28 11:56:00,
2013-11-28 06:57:00,23.2,16.2,30.26,WNW,290,0.0,0.0,74,0.00,,,0.00,5.00,VWS V14.01,2013-11-28 11:57:00,
2013-11-28 06:58:00,23.2,15.8,30.26,WNW,290,0.0,0.0,73,0.00,,,0.00,0.00,VWS V14.01,2013-11-28 11:58:00,
2013-11-28 06:59:00,23.2,16.2,30.26,WNW,290,0.0,0.0,74,0.00,,,0.00,5.00,VWS V14.01,2013-11-28 11:59:00,
2013-11-28 07:00:00,23.3,16.6,30.26,WNW,290,0.0,0.0,75,0.00,,,0.00,5.00,VWS V14.01,2013-11-28 12:00:00,
2013-11-28 07:01:00,23.3,16.6,30.26,WNW,290,0.0,0.0,75,0.00,,,0.00,7.00,VWS V14.01,2013-11-28 12:01:00,
2013-11-28 07:02:00,23.3,16.6,30.26,WNW,290,0.0,0.0,75,0.00,,,0.00,7.00,VWS V14.01,2013-11-28 12:02:00,
2013-11-28 07:03:00,23.2,16.2,30.26,WNW,290,0.0,0.0,74,0.00,,,0.00,5.00,VWS V14.01,2013-11-28 12:03:00,
2013-11-28 07:04:00,23.3,16.9,30.26,WNW,290,0.0,0.0,76,0.00,,,0.00,7.00,VWS V14.01,2013-11-28 12:04:00,
2013-11-28 07:05:00,23.3,16.9,30.26,WNW,290,0.0,0.0,76,0.00,,,0.00,7.00,VWS V14.01,2013-11-28 12:05:00,
2013-11-28 07:06:00,23.3,16.9,30.26,WNW,290,0.0,0.0,76,0.00,,,0.00,9.00,VWS V14.01,2013-11-28 12:06:00,
2013-11-28 07:07:00,23.3,16.9,30.26,WNW,290,0.0,0.0,76,0.00,,,0.00,9.00,VWS V14.01,2013-11-28 12:07:00,
2013-11-28 07:08:00,23.2,16.5,30.26,WNW,290,0.0,0.0,75,0.00,,,0.00,5.00,VWS V14.01,2013-11-28 12:08:00,
2013-11-28 07:09:00,23.3,16.9,30.26,WNW,290,0.0,0.0,76,0.00,,,0.00,9.00,VWS V14.01,2013-11-28 12:09:00,
2013-11-28 07:10:00,23.3,17.2,30.26,WNW,290,0.0,0.0,77,0.00,,,0.00,9.00,VWS V14.01,2013-11-28 12:10:00,
2013-11-28 07:11:00,23.3,17.2,30.26,WNW,290,0.0,0.0,77,0.00,,,0.00,11.00,VWS V14.01,2013-11-28 12:11:00,
2013-11-28 07:12:00,23.2,17.1,30.26,WNW,290,0.0,0.0,77,0.00,,,0.00,11.00,VWS V14.01,2013-11-28 12:12:00,
2013-11-28 07:13:00,23.3,16.9,30.26,WNW,290,0.0,0.0,76,0.00,,,0.00,7.00,VWS V14.01,2013-11-28 12:13:00,
2013-11-28 07:14:00,23.2,17.1,30.26,WNW,290,0.0,0.0,77,0.00,,,0.00,11.00,VWS V14.01,2013-11-28 12:14:00,
2013-11-28 07:15:00,23.2,17.4,30.27,WNW,290,0.0,0.0,78,0.00,,,0.00,11.00,VWS V14.01,2013-11-28 12:15:00,
2013-11-28 07:16:00,23.2,17.4,30.27,WNW,290,0.0,0.0,78,0.00,,,0.00,11.00,VWS V14.01,2013-11-28 12:16:00,
2013-11-28 07:17:00,23.2,17.4,30.27,WNW,290,0.0,0.0,78,0.00,,,0.00,12.00,VWS V14.01,2013-11-28 12:17:00,
2013-11-28 07:18:00,23.3,17.2,30.26,WNW,290,0.0,0.0,77,0.00,,,0.00,11.00,VWS V14.01,2013-11-28 12:18:00,
2013-11-28 07:19:00,23.2,17.4,30.27,WNW,290,0.0,0.0,78,0.00,,,0.00,12.00,VWS V14.01,2013-11-28 12:19:00,
2013-11-28 07:20:00,23.2,17.4,30.27,WNW,290,0.0,0.0,78,0.00,,,0.00,12.00,VWS V14.01,2013-11-28 12:20:00,
2013-11-28 07:21:00,23.2,17.4,30.27,WNW,290,0.0,0.0,78,0.00,,,0.00,12.00,VWS V14.01,2013-11-28 12:21:00,
2013-11-28 07:22:00,23.0,17.2,30.27,WNW,290,0.0,0.0,78,0.00,,,0.00,12.00,VWS V14.01,2013-11-28 12:22:00,
2013-11-28 07:23:00,23.2,17.4,30.27,WNW,290,0.0,0.0,78,0.00,,,0.00,11.00,VWS V14.01,2013-11-28 12:23:00,
2013-11-28 07:24:00,23.0,17.2,30.27,WNW,290,0.0,0.0,78,0.00,,,0.00,14.00,VWS V14.01,2013-11-28 12:24:00,
2013-11-28 07:25:00,23.0,17.2,30.27,WNW,290,0.0,0.0,78,0.00,,,0.00,14.00,VWS V14.01,2013-11-28 12:25:00,
2013-11-28 07:26:00,23.0,17.5,30.27,WNW,290,0.0,0.0,79,0.00,,,0.00,14.00,VWS V14.01,2013-11-28 12:26:00,
2013-11-28 07:27:00,23.0,17.5,30.27,WNW,290,0.0,0.0,79,0.00,,,0.00,16.00,VWS V14.01,2013-11-28 12:27:00,
2013-11-28 07:28:00,23.2,17.4,30.27,WNW,290,0.0,0.0,78,0.00,,,0.00,12.00,VWS V14.01,2013-11-28 12:28:00,
2013-11-28 07:29:00,23.0,17.5,30.27,WNW,290,0.0,0.0,79,0.00,,,0.00,18.00,VWS V14.01,2013-11-28 12:29:00,
2013-11-28 07:30:00,23.0,17.5,30.29,WNW,290,0.0,0.0,79,0.00,,,0.00,18.00,VWS V14.01,2013-11-28 12:30:00,
2013-11-28 07:31:00,23.0,17.5,30.29,WNW,290,0.0,0.0,79,0.00,,,0.00,18.00,VWS V14.01,2013-11-28 12:31:00,
2013-11-28 07:32:00,23.0,17.5,30.29,WNW,290,0.0,0.0,79,0.00,,,0.00,19.00,VWS V14.01,2013-11-28 12:32:00,
2013-11-28 07:33:00,23.0,17.5,30.27,WNW,290,0.0,0.0,79,0.00,,,0.00,14.00,VWS V14.01,2013-11-28 12:33:00,
2013-11-28 07:34:00,23.0,17.5,30.29,WNW,290,0.0,0.0,79,0.00,,,0.00,19.00,VWS V14.01,2013-11-28 12:34:00,
2013-11-28 07:35:00,23.0,17.5,30.29,WNW,290,0.0,0.0,79,0.00,,,0.00,21.00,VWS V14.01,2013-11-28 12:35:00,
2013-11-28 07:36:00,23.0,17.5,30.29,WNW,290,0.0,0.0,79,0.00,,,0.00,21.00,VWS V14.01,2013-11-28 12:36:00,
2013-11-28 07:37:00,23.2,17.7,30.29,WNW,290,0.0,0.0,79,0.00,,,0.00,19.00,VWS V14.01,2013-11-28 12:37:00,
2013-11-28 07:38:00,23.0,17.5,30.29,WNW,290,0.0,0.0,79,0.00,,,0.00,18.00,VWS V14.01,2013-11-28 12:38:00,
2013-11-28 07:39:00,23.3,17.8,30.29,WNW,290,0.0,0.0,79,0.00,,,0.00,19.00,VWS V14.01,2013-11-28 12:39:00,
2013-11-28 07:40:00,23.3,17.8,30.29,WNW,290,0.0,0.0,79,0.00,,,0.00,21.00,VWS V14.01,2013-11-28 12:40:00,
2013-11-28 07:41:00,23.3,17.8,30.29,WNW,290,0.0,0.0,79,0.00,,,0.00,21.00,VWS V14.01,2013-11-28 12:41:00,
2013-11-28 07:42:00,23.3,17.8,30.29,WNW,290,0.0,0.0,79,0.00,,,0.00,21.00,VWS V14.01,2013-11-28 12:42:00,
2013-11-28 07:43:00,23.0,17.5,30.29,WNW,290,0.0,0.0,79,0.00,,,0.00,21.00,VWS V14.01,2013-11-28 12:43:00,
2013-11-28 07:44:00,23.5,18.0,30.29,WNW,290,0.0,0.0,79,0.00,,,0.00,21.00,VWS V14.01,2013-11-28 12:44:00,
2013-11-28 07:45:00,23.6,18.1,30.29,WNW,290,0.0,0.0,79,0.00,,,0.00,21.00,VWS V14.01,2013-11-28 12:45:00,
2013-11-28 07:46:00,23.6,17.8,30.29,WNW,290,0.0,0.0,78,0.00,,,0.00,21.00,VWS V14.01,2013-11-28 12:46:00,
2013-11-28 07:47:00,23.6,17.8,30.29,WNW,290,0.0,0.0,78,0.00,,,0.00,21.00,VWS V14.01,2013-11-28 12:47:00,
2013-11-28 07:48:00,23.3,17.8,30.29,WNW,290,0.0,0.0,79,0.00,,,0.00,21.00,VWS V14.01,2013-11-28 12:48:00,
2013-11-28 07:49:00,23.8,18.0,30.29,WNW,290,0.0,0.0,78,0.00,,,0.00,23.00,VWS V14.01,2013-11-28 12:49:00,
2013-11-28 07:50:00,23.9,18.0,30.29,WNW,290,0.0,0.0,78,0.00,,,0.00,23.00,VWS V14.01,2013-11-28 12:50:00,
2013-11-28 07:51:00,23.9,18.0,30.29,WNW,290,0.0,0.0,78,0.00,,,0.00,23.00,VWS V14.01,2013-11-28 12:51:00,
2013-11-28 07:52:00,24.1,18.2,30.29,WNW,290,0.0,0.0,78,0.00,,,0.00,23.00,VWS V14.01,2013-11-28 12:52:00,
2013-11-28 07:53:00,24.1,18.2,30.29,WNW,290,0.0,0.0,78,0.00,,,0.00,23.00,VWS V14.01,2013-11-28 12:53:00,
2013-11-28 07:54:00,23.6,17.8,30.29,WNW,290,0.0,0.0,78,0.00,,,0.00,21.00,VWS V14.01,2013-11-28 12:54:00,
2013-11-28 07:55:00,24.2,18.3,30.29,WNW,290,0.0,0.0,78,0.00,,,0.00,23.00,VWS V14.01,2013-11-28 12:55:00,
2013-11-28 07:56:00,24.4,18.5,30.29,WNW,290,0.0,0.0,78,0.00,,,0.00,23.00,VWS V14.01,2013-11-28 12:56:00,
2013-11-28 07:57:00,24.5,18.0,30.29,WNW,290,0.0,0.0,76,0.00,,,0.00,58.00,VWS V14.01,2013-11-28 12:57:00,
2013-11-28 07:58:00,24.5,18.0,30.29,WNW,290,0.0,0.0,76,0.00,,,0.00,91.00,VWS V14.01,2013-11-28 12:58:00,
2013-11-28 07:59:00,23.9,18.0,30.29,WNW,290,0.0,0.0,78,0.00,,,0.00,23.00,VWS V14.01,2013-11-28 12:59:00,
2013-11-28 08:00:00,24.8,17.7,30.30,WNW,290,3.0,4.0,74,0.00,,,0.00,91.00,VWS V14.01,2013-11-28 13:00:00,
2013-11-28 08:01:00,25.1,18.0,30.30,WNW,290,5.0,5.0,74,0.00,,,0.00,62.00,VWS V14.01,2013-11-28 13:01:00,
2013-11-28 08:02:00,25.3,17.5,30.30,West,281,5.0,5.0,72,0.00,,,0.00,49.00,VWS V14.01,2013-11-28 13:02:00,
2013-11-28 08:03:00,25.4,17.3,30.30,WNW,283,3.0,6.0,71,0.00,,,0.00,49.00,VWS V14.01,2013-11-28 13:03:00,
2013-11-28 08:04:00,24.4,18.5,30.29,WNW,290,0.0,0.0,78,0.00,,,0.00,23.00,VWS V14.01,2013-11-28 13:04:00,
2013-11-28 08:05:00,26.0,17.6,30.30,WNW,283,0.0,0.0,70,0.00,,,0.00,181.00,VWS V14.01,2013-11-28 13:05:00,
2013-11-28 08:06:00,26.1,17.3,30.30,WNW,283,0.0,0.0,69,0.00,,,0.00,183.00,VWS V14.01,2013-11-28 13:06:00,
2013-11-28 08:07:00,26.4,17.3,30.30,WNW,283,0.0,0.0,68,0.00,,,0.00,183.00,VWS V14.01,2013-11-28 13:07:00,
2013-11-28 08:08:00,26.6,17.5,30.30,WNW,283,0.0,0.0,68,0.00,,,0.00,185.00,VWS V14.01,2013-11-28 13:08:00,
2013-11-28 08:09:00,25.1,18.0,30.30,WNW,290,5.0,5.0,74,0.00,,,0.00,62.00,VWS V14.01,2013-11-28 13:09:00,
2013-11-28 08:10:00,27.0,17.5,30.30,WNW,283,0.0,0.0,67,0.00,,,0.00,185.00,VWS V14.01,2013-11-28 13:10:00,
2013-11-28 08:11:00,27.3,17.8,30.30,WNW,283,0.0,0.0,67,0.00,,,0.00,185.00,VWS V14.01,2013-11-28 13:11:00,
2013-11-28 08:12:00,27.6,17.7,30.30,WNW,283,0.0,0.0,66,0.00,,,0.00,185.00,VWS V14.01,2013-11-28 13:12:00,
2013-11-28 08:13:00,27.9,18.0,30.30,WNW,283,0.0,0.0,66,0.00,,,0.00,186.00,VWS V14.01,2013-11-28 13:13:00,
2013-11-28 08:14:00,26.1,17.3,30.30,WNW,283,0.0,0.0,69,0.00,,,0.00,183.00,VWS V14.01,2013-11-28 13:14:00,
2013-11-28 08:15:00,28.4,17.8,30.32,WNW,283,0.0,0.0,64,0.00,,,0.00,192.00,VWS V14.01,2013-11-28 13:15:00,
2013-11-28 08:16:00,28.8,18.2,30.32,WNW,283,0.0,0.0,64,0.00,,,0.00,197.00,VWS V14.01,2013-11-28 13:16:00,
2013-11-28 08:17:00,29.1,18.5,30.32,WNW,283,0.0,2.0,64,0.00,,,0.00,199.00,VWS V14.01,2013-11-28 13:17:00,
2013-11-28 08:18:00,29.3,18.3,30.32,WNW,283,1.0,1.0,63,0.00,,,0.00,200.00,VWS V14.01,2013-11-28 13:18:00,
2013-11-28 08:19:00,27.2,17.7,30.30,WNW,283,0.0,0.0,67,0.00,,,0.00,185.00,VWS V14.01,2013-11-28 13:19:00,
2013-11-28 08:20:00,29.5,17.7,30.32,WNW,283,0.0,0.0,61,0.00,,,0.00,206.00,VWS V14.01,2013-11-28 13:20:00,
2013-11-28 08:21:00,29.8,17.6,30.32,WNW,283,0.0,4.0,60,0.00,,,0.00,211.00,VWS V14.01,2013-11-28 13:21:00,
2013-11-28 08:22:00,30.0,17.8,30.32,WNW,283,0.0,2.0,60,0.00,,,0.00,214.00,VWS V14.01,2013-11-28 13:22:00,
2013-11-28 08:23:00,30.1,17.9,30.32,NW,311,4.0,4.0,60,0.00,,,0.00,216.00,VWS V14.01,2013-11-28 13:23:00,
2013-11-28 08:24:00,28.8,18.2,30.32,WNW,283,0.0,0.0,64,0.00,,,0.00,197.00,VWS V14.01,2013-11-28 13:24:00,
2013-11-28 08:25:00,30.3,17.3,30.32,NW,311,1.0,1.0,58,0.00,,,0.00,221.00,VWS V14.01,2013-11-28 13:25:00,
2013-11-28 08:26:00,30.4,17.4,30.32,NW,311,0.0,1.0,58,0.00,,,0.00,227.00,VWS V14.01,2013-11-28 13:26:00,
2013-11-28 08:27:00,30.4,17.0,30.32,NNW,330,0.0,3.0,57,0.00,,,0.00,229.00,VWS V14.01,2013-11-28 13:27:00,
2013-11-28 08:28:00,30.6,17.2,30.32,NNW,345,0.0,3.0,57,0.00,,,0.00,232.00,VWS V14.01,2013-11-28 13:28:00,
2013-11-28 08:29:00,29.8,17.6,30.32,WNW,283,0.0,4.0,60,0.00,,,0.00,211.00,VWS V14.01,2013-11-28 13:29:00,
2013-11-28 08:30:00,30.7,17.3,30.32,NNW,344,0.0,0.0,57,0.00,,,0.00,236.00,VWS V14.01,2013-11-28 13:30:00,
2013-11-28 08:31:00,30.9,17.1,30.32,NNW,330,3.0,3.0,56,0.00,,,0.00,237.00,VWS V14.01,2013-11-28 13:31:00,
2013-11-28 08:32:00,30.9,16.6,30.32,NW,322,1.0,4.0,55,0.00,,,0.00,241.00,VWS V14.01,2013-11-28 13:32:00,
2013-11-28 08:33:00,31.0,16.7,30.32,NW,322,0.0,1.0,55,0.00,,,0.00,244.00,VWS V14.01,2013-11-28 13:33:00,
2013-11-28 08:34:00,30.4,17.4,30.32,NW,311,0.0,1.0,58,0.00,,,0.00,227.00,VWS V14.01,2013-11-28 13:34:00,
2013-11-28 08:35:00,31.2,16.9,30.32,NW,322,0.0,0.0,55,0.00,,,0.00,251.00,VWS V14.01,2013-11-28 13:35:00,
2013-11-28 08:36:00,31.2,16.9,30.32,NW,322,0.0,0.0,55,0.00,,,0.00,253.00,VWS V14.01,2013-11-28 13:36:00,
2013-11-28 08:37:00,31.3,17.0,30.32,NW,322,0.0,0.0,55,0.00,,,0.00,257.00,VWS V14.01,2013-11-28 13:37:00,
2013-11-28 08:38:00,31.5,17.2,30.32,NNE,13,5.0,5.0,55,0.00,,,0.00,258.00,VWS V14.01,2013-11-28 13:38:00,
2013-11-28 08:39:00,30.9,17.1,30.32,NW,322,4.0,4.0,56,0.00,,,0.00,241.00,VWS V14.01,2013-11-28 13:39:00,
2013-11-28 08:40:00,31.6,17.3,30.32,NNW,347,2.0,3.0,55,0.00,,,0.00,265.00,VWS V14.01,2013-11-28 13:40:00,
2013-11-28 08:41:00,31.6,16.9,30.32,NNW,347,3.0,4.0,54,0.00,,,0.00,267.00,VWS V14.01,2013-11-28 13:41:00,
2013-11-28 08:42:00,31.8,17.1,30.32,NNW,347,0.0,3.0,54,0.00,,,0.00,271.00,VWS V14.01,2013-11-28 13:42:00,
2013-11-28 08:43:00,31.8,17.1,30.32,NNW,347,0.0,0.0,54,0.00,,,0.00,272.00,VWS V14.01,2013-11-28 13:43:00,
2013-11-28 08:44:00,31.3,17.0,30.32,NW,322,0.0,0.0,55,0.00,,,0.00,257.00,VWS V14.01,2013-11-28 13:44:00,
2013-11-28 08:45:00,32.1,17.8,30.32,NNW,347,0.0,0.0,55,0.00,,,0.00,278.00,VWS V14.01,2013-11-28 13:45:00,
2013-11-28 08:46:00,32.2,17.4,30.32,North,358,0.0,3.0,54,0.00,,,0.00,281.00,VWS V14.01,2013-11-28 13:46:00,
2013-11-28 08:47:00,32.4,17.6,30.32,North,358,0.0,0.0,54,0.00,,,0.00,285.00,VWS V14.01,2013-11-28 13:47:00,
2013-11-28 08:48:00,32.5,17.7,30.32,West,278,3.0,4.0,54,0.00,,,0.00,287.00,VWS V14.01,2013-11-28 13:48:00,
2013-11-28 08:49:00,31.8,17.1,30.32,NNW,347,0.0,3.0,54,0.00,,,0.00,271.00,VWS V14.01,2013-11-28 13:49:00,
2013-11-28 08:50:00,32.7,17.5,30.32,WNW,298,0.0,4.0,53,0.00,,,0.00,292.00,VWS V14.01,2013-11-28 13:50:00,
2013-11-28 08:51:00,32.8,17.6,30.32,NW,315,6.0,6.0,53,0.00,,,0.00,295.00,VWS V14.01,2013-11-28 13:51:00,
2013-11-28 08:52:00,32.8,17.1,30.32,NNW,335,1.0,6.0,52,0.00,,,0.00,299.00,VWS V14.01,2013-11-28 13:52:00,
2013-11-28 08:53:00,32.9,17.7,30.32,NNW,335,0.0,1.0,53,0.00,,,0.00,301.00,VWS V14.01,2013-11-28 13:53:00,
2013-11-28 08:54:00,32.2,17.4,30.32,North,358,0.0,0.0,54,0.00,,,0.00,285.00,VWS V14.01,2013-11-28 13:54:00,
2013-11-28 08:55:00,33.1,17.4,30.32,NNW,343,3.0,3.0,52,0.00,,,0.00,306.00,VWS V14.01,2013-11-28 13:55:00,
2013-11-28 08:56:00,33.2,17.9,30.32,NNW,344,0.0,3.0,53,0.00,,,0.00,308.00,VWS V14.01,2013-11-28 13:56:00,
2013-11-28 08:57:00,33.2,17.5,30.32,NNW,344,0.0,0.0,52,0.00,,,0.00,311.00,VWS V14.01,2013-11-28 13:57:00,
2013-11-28 08:58:00,33.4,17.7,30.32,NNW,345,0.0,0.0,52,0.00,,,0.00,315.00,VWS V14.01,2013-11-28 13:58:00,
2013-11-28 08:59:00,32.8,17.1,30.32,NNW,330,4.0,6.0,52,0.00,,,0.00,295.00,VWS V14.01,2013-11-28 13:59:00,
2013-11-28 09:00:00,33.5,17.8,30.33,NW,306,2.0,4.0,52,0.00,,,0.00,322.00,VWS V14.01,2013-11-28 14:00:00,
2013-11-28 09:01:00,33.7,17.5,30.33,NW,306,0.0,2.0,51,0.00,,,0.00,322.00,VWS V14.01,2013-11-28 14:01:00,
2013-11-28 09:02:00,33.8,18.0,30.33,NW,305,5.0,5.0,52,0.00,,,0.00,323.00,VWS V14.01,2013-11-28 14:02:00,
2013-11-28 09:03:00,33.8,17.6,30.33,NW,319,1.0,5.0,51,0.00,,,0.00,329.00,VWS V14.01,2013-11-28 14:03:00,
2013-11-28 09:04:00,33.2,17.5,30.32,NNW,344,0.0,0.0,52,0.00,,,0.00,309.00,VWS V14.01,2013-11-28 14:04:00,
2013-11-28 09:05:00,34.0,17.8,30.33,North,352,1.0,3.0,51,0.00,,,0.00,334.00,VWS V14.01,2013-11-28 14:05:00,
2013-11-28 09:06:00,34.1,17.9,30.33,North,352,0.0,1.0,51,0.00,,,0.00,336.00,VWS V14.01,2013-11-28 14:06:00,
2013-11-28 09:07:00,34.1,17.9,30.33,North,352,0.0,0.0,51,0.00,,,0.00,338.00,VWS V14.01,2013-11-28 14:07:00,
2013-11-28 09:08:00,34.3,18.1,30.33,North,352,0.0,0.0,51,0.00,,,0.00,341.00,VWS V14.01,2013-11-28 14:08:00,
2013-11-28 09:09:00,33.8,18.0,30.33,NW,306,0.0,0.0,52,0.00,,,0.00,323.00,VWS V14.01,2013-11-28 14:09:00,
2013-11-28 09:10:00,34.7,17.5,30.33,North,352,0.0,0.0,49,0.00,,,0.00,346.00,VWS V14.01,2013-11-28 14:10:00,
2013-11-28 09:11:00,34.9,18.2,30.33,North,349,0.0,0.0,50,0.00,,,0.00,348.00,VWS V14.01,2013-11-28 14:11:00,
2013-11-28 09:12:00,35.0,18.2,30.33,North,349,0.0,2.0,50,0.00,,,0.00,352.00,VWS V14.01,2013-11-28 14:12:00,
2013-11-28 09:13:00,35.2,18.4,30.33,North,349,0.0,4.0,50,0.00,,,0.00,355.00,VWS V14.01,2013-11-28 14:13:00,
2013-11-28 09:14:00,35.3,18.1,30.33,NW,311,3.0,3.0,49,0.00,,,0.00,357.00,VWS V14.01,2013-11-28 14:14:00,
2013-11-28 09:15:00,34.1,17.9,30.33,North,352,0.0,0.0,51,0.00,,,0.00,338.00,VWS V14.01,2013-11-28 14:15:00,
2013-11-28 09:16:00,35.5,18.2,30.33,NW,317,2.0,2.0,49,0.00,,,0.00,362.00,VWS V14.01,2013-11-28 14:16:00,
2013-11-28 09:17:00,35.5,18.2,30.33,NNW,340,5.0,6.0,49,0.00,,,0.00,364.00,VWS V14.01,2013-11-28 14:17:00,
2013-11-28 09:18:00,35.6,18.3,30.33,WNW,301,7.0,7.0,49,0.00,,,0.00,366.00,VWS V14.01,2013-11-28 14:18:00,
2013-11-28 09:19:00,35.5,17.8,30.33,North,0,5.0,8.0,48,0.00,,,0.00,369.00,VWS V14.01,2013-11-28 14:19:00,
2013-11-28 09:20:00,35.0,18.2,30.33,North,349,0.0,2.0,50,0.00,,,0.00,352.00,VWS V14.01,2013-11-28 14:20:00,
2013-11-28 09:21:00,35.5,18.2,30.33,NW,308,0.0,6.0,49,0.00,,,0.00,374.00,VWS V14.01,2013-11-28 14:21:00,
2013-11-28 09:22:00,35.5,18.2,30.33,NW,308,0.0,0.0,49,0.00,,,0.00,376.00,VWS V14.01,2013-11-28 14:22:00,
2013-11-28 09:23:00,35.5,18.2,30.33,NW,308,3.0,3.0,49,0.00,,,0.00,378.00,VWS V14.01,2013-11-28 14:23:00,
2013-11-28 09:24:00,35.5,18.2,30.33,North,350,0.0,4.0,49,0.00,,,0.00,383.00,VWS V14.01,2013-11-28 14:24:00,
2013-11-28 09:25:00,35.5,17.8,30.33,NW,310,3.0,6.0,48,0.00,,,0.00,364.00,VWS V14.01,2013-11-28 14:25:00,
2013-11-28 09:26:00,35.6,18.3,30.33,WNW,296,0.0,5.0,49,0.00,,,0.00,385.00,VWS V14.01,2013-11-28 14:26:00,
2013-11-28 09:27:00,35.6,17.9,30.33,NW,325,0.0,6.0,48,0.00,,,0.00,388.00,VWS V14.01,2013-11-28 14:27:00,
2013-11-28 09:28:00,35.6,17.9,30.33,NW,325,0.0,2.0,48,0.00,,,0.00,392.00,VWS V14.01,2013-11-28 14:28:00,
2013-11-28 09:29:00,35.6,18.3,30.33,NW,305,0.0,3.0,49,0.00,,,0.00,394.00,VWS V14.01,2013-11-28 14:29:00,
2013-11-28 09:30:00,35.5,18.2,30.33,NW,308,0.0,0.0,49,0.00,,,0.00,376.00,VWS V14.01,2013-11-28 14:30:00,
2013-11-28 09:31:00,35.8,18.5,30.33,North,9,4.0,4.0,49,0.00,,,0.00,396.00,VWS V14.01,2013-11-28 14:31:00,
2013-11-28 09:32:00,35.8,18.5,30.33,North,10,1.0,7.0,49,0.00,,,0.00,401.00,VWS V14.01,2013-11-28 14:32:00,
2013-11-28 09:33:00,35.8,18.5,30.33,North,0,3.0,4.0,49,0.00,,,0.00,403.00,VWS V14.01,2013-11-28 14:33:00,
2013-11-28 09:34:00,35.8,18.5,30.33,North,4,5.0,9.0,49,0.00,,,0.00,406.00,VWS V14.01,2013-11-28 14:34:00,
2013-11-28 09:35:00,35.6,17.9,30.33,NW,325,3.0,6.0,48,0.00,,,0.00,388.00,VWS V14.01,2013-11-28 14:35:00,
2013-11-28 09:36:00,35.9,18.6,30.33,NNE,15,5.0,6.0,49,0.00,,,0.00,411.00,VWS V14.01,2013-11-28 14:36:00,
2013-11-28 09:37:00,35.9,19.1,30.33,North,0,0.0,5.0,50,0.00,,,0.00,411.00,VWS V14.01,2013-11-28 14:37:00,
2013-11-28 09:38:00,35.9,18.6,30.33,North,0,8.0,9.0,49,0.00,,,0.00,415.00,VWS V14.01,2013-11-28 14:38:00,
2013-11-28 09:39:00,35.9,18.1,30.33,NNW,330,2.0,8.0,48,0.00,,,0.00,417.00,VWS V14.01,2013-11-28 14:39:00,
2013-11-28 09:40:00,35.8,18.5,30.33,North,10,4.0,7.0,49,0.00,,,0.00,401.00,VWS V14.01,2013-11-28 14:40:00,
2013-11-28 09:41:00,35.9,17.6,30.33,NNW,338,0.0,0.0,47,0.00,,,0.00,418.00,VWS V14.01,2013-11-28 14:41:00,
2013-11-28 09:42:00,35.9,17.6,30.33,NNW,338,0.0,0.0,47,0.00,,,0.00,418.00,VWS V14.01,2013-11-28 14:42:00,
2013-11-28 09:43:00,35.9,18.1,30.33,NNE,13,4.0,9.0,48,0.00,,,0.00,418.00,VWS V14.01,2013-11-28 14:43:00,
2013-11-28 09:44:00,36.0,18.2,30.33,East,85,0.0,5.0,48,0.00,,,0.00,427.00,VWS V14.01,2013-11-28 14:44:00,
2013-11-28 09:45:00,35.9,19.1,30.33,North,358,0.0,0.0,50,0.00,,,0.00,413.00,VWS V14.01,2013-11-28 14:45:00,
2013-11-28 09:46:00,36.0,18.2,30.33,NNW,338,0.0,0.0,48,0.00,,,0.00,432.00,VWS V14.01,2013-11-28 14:46:00,
2013-11-28 09:47:00,36.0,16.7,30.33,North,4,4.0,5.0,45,0.00,,,0.00,434.00,VWS V14.01,2013-11-28 14:47:00,
2013-11-28 09:48:00,36.2,17.9,30.33,North,358,10.0,13.0,47,0.00,,,0.00,436.00,VWS V14.01,2013-11-28 14:48:00,
2013-11-28 09:49:00,36.0,17.2,30.33,NNE,27,2.0,10.0,46,0.00,,,0.00,439.00,VWS V14.01,2013-11-28 14:49:00,
2013-11-28 09:50:00,35.9,17.6,30.33,NNW,338,0.0,0.0,47,0.00,,,0.00,418.00,VWS V14.01,2013-11-28 14:50:00,
2013-11-28 09:51:00,36.0,17.2,30.33,NE,44,0.0,7.0,46,0.00,,,0.00,443.00,VWS V14.01,2013-11-28 14:51:00,
2013-11-28 09:52:00,36.0,17.2,30.33,NNW,340,6.0,9.0,46,0.00,,,0.00,445.00,VWS V14.01,2013-11-28 14:52:00,
2013-11-28 09:53:00,36.0,17.7,30.33,North,0,4.0,6.0,47,0.00,,,0.00,448.00,VWS V14.01,2013-11-28 14:53:00,
2013-11-28 09:54:00,36.2,17.9,30.33,NNW,338,6.0,7.0,47,0.00,,,0.00,448.00,VWS V14.01,2013-11-28 14:54:00,
2013-11-28 09:55:00,36.2,17.4,30.33,North,0,13.0,13.0,46,0.00,,,0.00,436.00,VWS V14.01,2013-11-28 14:55:00,
2013-11-28 09:56:00,36.2,17.4,30.33,NNE,22,0.0,4.0,46,0.00,,,0.00,454.00,VWS V14.01,2013-11-28 14:56:00,
2013-11-28 09:57:00,36.3,17.0,30.33,NNW,330,7.0,10.0,45,0.00,,,0.00,455.00,VWS V14.01,2013-11-28 14:57:00,
2013-11-28 09:58:00,36.3,17.0,30.33,NW,308,0.0,11.0,45,0.00,,,0.00,457.00,VWS V14.01,2013-11-28 14:58:00,
2013-11-28 09:59:00,36.5,17.2,30.33,NW,317,0.0,0.0,45,0.00,,,0.00,457.00,VWS V14.01,2013-11-28 14:59:00,
2013-11-28 10:00:00,36.0,17.7,30.33,North,3,0.0,6.0,47,0.00,,,0.00,446.00,VWS V14.01,2013-11-28 15:00:00,
2013-11-28 10:01:00,36.5,17.2,30.33,North,0,0.0,0.0,45,0.00,,,0.00,462.00,VWS V14.01,2013-11-28 15:01:00,
2013-11-28 10:02:00,36.6,17.8,30.33,NE,53,6.0,6.0,46,0.00,,,0.00,466.00,VWS V14.01,2013-11-28 15:02:00,
2013-11-28 10:03:00,36.9,18.1,30.33,NE,40,5.0,6.0,46,0.00,,,0.00,466.00,VWS V14.01,2013-11-28 15:03:00,
2013-11-28 10:04:00,37.0,17.6,30.33,NNE,28,0.0,6.0,45,0.00,,,0.00,468.00,VWS V14.01,2013-11-28 15:04:00,
2013-11-28 10:05:00,36.3,17.0,30.33,NW,314,6.0,11.0,45,0.00,,,0.00,457.00,VWS V14.01,2013-11-28 15:05:00,
2013-11-28 10:06:00,37.0,17.6,30.33,NE,44,7.0,7.0,45,0.00,,,0.00,471.00,VWS V14.01,2013-11-28 15:06:00,
2013-11-28 10:07:00,37.2,17.3,30.33,NNE,15,6.0,10.0,44,0.00,,,0.00,475.00,VWS V14.01,2013-11-28 15:07:00,
2013-11-28 10:08:00,37.0,16.6,30.33,North,6,4.0,10.0,43,0.00,,,0.00,476.00,VWS V14.01,2013-11-28 15:08:00,
2013-11-28 10:09:00,37.0,16.6,30.33,North,3,5.0,6.0,43,0.00,,,0.00,478.00,VWS V14.01,2013-11-28 15:09:00,
2013-11-28 10:10:00,36.8,18.0,30.33,North,0,1.0,6.0,46,0.00,,,0.00,466.00,VWS V14.01,2013-11-28 15:10:00,
2013-11-28 10:11:00,36.8,17.0,30.33,North,0,0.0,3.0,44,0.00,,,0.00,482.00,VWS V14.01,2013-11-28 15:11:00,
2013-11-28 10:12:00,36.8,17.5,30.33,North,2,0.0,0.0,45,0.00,,,0.00,482.00,VWS V14.01,2013-11-28 15:12:00,
2013-11-28 10:13:00,36.9,17.6,30.33,NNW,332,0.0,2.0,45,0.00,,,0.00,487.00,VWS V14.01,2013-11-28 15:13:00,
2013-11-28 10:14:00,36.9,18.1,30.33,NW,314,0.0,4.0,46,0.00,,,0.00,487.00,VWS V14.01,2013-11-28 15:14:00,
2013-11-28 10:15:00,37.0,17.1,30.33,North,0,6.0,10.0,44,0.00,,,0.00,475.00,VWS V14.01,2013-11-28 15:15:00,
2013-11-28 10:16:00,37.0,18.2,30.33,NW,314,0.0,0.0,46,0.00,,,0.00,490.00,VWS V14.01,2013-11-28 15:16:00,
2013-11-28 10:17:00,37.0,17.1,30.33,NW,314,0.0,0.0,44,0.00,,,0.00,494.00,VWS V14.01,2013-11-28 15:17:00,
2013-11-28 10:18:00,37.2,17.3,30.33,NNW,346,8.0,8.0,44,0.00,,,0.00,494.00,VWS V14.01,2013-11-28 15:18:00,
2013-11-28 10:19:00,37.2,17.3,30.33,North,3,4.0,8.0,44,0.00,,,0.00,497.00,VWS V14.01,2013-11-28 15:19:00,
2013-11-28 10:20:00,36.9,17.6,30.33,NNW,332,0.0,2.0,45,0.00,,,0.00,485.00,VWS V14.01,2013-11-28 15:20:00,
2013-11-28 10:21:00,37.3,16.9,30.33,North,358,5.0,9.0,43,0.00,,,0.00,501.00,VWS V14.01,2013-11-28 15:21:00,
2013-11-28 10:22:00,37.3,16.3,30.33,North,349,0.0,5.0,42,0.00,,,0.00,503.00,VWS V14.01,2013-11-28 15:22:00,
2013-11-28 10:23:00,37.3,17.4,30.33,North,4,5.0,5.0,44,0.00,,,0.00,504.00,VWS V14.01,2013-11-28 15:23:00,
2013-11-28 10:24:00,37.5,17.6,30.33,North,358,0.0,6.0,44,0.00,,,0.00,506.00,VWS V14.01,2013-11-28 15:24:00,
2013-11-28 10:25:00,37.2,17.3,30.33,North,350,6.0,6.0,44,0.00,,,0.00,494.00,VWS V14.01,2013-11-28 15:25:00,
2013-11-28 10:26:00,37.5,17.6,30.33,North,6,4.0,4.0,44,0.00,,,0.00,510.00,VWS V14.01,2013-11-28 15:26:00,
2013-11-28 10:27:00,37.5,17.0,30.33,ENE,68,1.0,6.0,43,0.00,,,0.00,512.00,VWS V14.01,2013-11-28 15:27:00,
2013-11-28 10:28:00,37.5,17.0,30.33,North,10,4.0,4.0,43,0.00,,,0.00,512.00,VWS V14.01,2013-11-28 15:28:00,
2013-11-28 10:29:00,37.5,17.0,30.33,NNE,15,1.0,6.0,43,0.00,,,0.00,515.00,VWS V14.01,2013-11-28 15:29:00,
2013-11-28 10:30:00,37.3,16.3,30.33,North,7,1.0,1.0,42,0.00,,,0.00,503.00,VWS V14.01,2013-11-28 15:30:00,
2013-11-28 10:31:00,37.5,17.6,30.33,NNE,25,3.0,7.0,44,0.00,,,0.00,519.00,VWS V14.01,2013-11-28 15:31:00,
2013-11-28 10:32:00,37.5,17.6,30.33,NNE,15,0.0,4.0,44,0.00,,,0.00,520.00,VWS V14.01,2013-11-28 15:32:00,
2013-11-28 10:33:00,37.5,17.6,30.33,NNE,15,0.0,0.0,44,0.00,,,0.00,520.00,VWS V14.01,2013-11-28 15:33:00,
2013-11-28 10:34:00,37.5,17.0,30.33,North,356,3.0,4.0,43,0.00,,,0.00,522.00,VWS V14.01,2013-11-28 15:34:00,
2013-11-28 10:35:00,37.5,17.0,30.33,North,358,0.0,4.0,43,0.00,,,0.00,522.00,VWS V14.01,2013-11-28 15:35:00,
2013-11-28 10:36:00,37.5,17.0,30.33,North,11,0.0,1.0,43,0.00,,,0.00,512.00,VWS V14.01,2013-11-28 15:36:00,
2013-11-28 10:37:00,37.6,17.1,30.33,North,10,0.0,4.0,43,0.00,,,0.00,526.00,VWS V14.01,2013-11-28 15:37:00,
2013-11-28 10:38:00,37.6,17.1,30.33,NNE,18,0.0,4.0,43,0.00,,,0.00,527.00,VWS V14.01,2013-11-28 15:38:00,
2013-11-28 10:39:00,37.6,17.7,30.33,NNE,16,0.0,2.0,44,0.00,,,0.00,529.00,VWS V14.01,2013-11-28 15:39:00,
2013-11-28 10:40:00,37.8,18.4,30.33,NNE,16,0.0,0.0,45,0.00,,,0.00,531.00,VWS V14.01,2013-11-28 15:40:00,
2013-11-28 10:41:00,37.5,17.6,30.33,NNE,15,0.0,0.0,44,0.00,,,0.00,520.00,VWS V14.01,2013-11-28 15:41:00,
2013-11-28 10:42:00,37.9,17.4,30.33,NNW,338,5.0,5.0,43,0.00,,,0.00,533.00,VWS V14.01,2013-11-28 15:42:00,
2013-11-28 10:43:00,37.9,18.5,30.33,North,349,3.0,5.0,45,0.00,,,0.00,536.00,VWS V14.01,2013-11-28 15:43:00,
2013-11-28 10:44:00,38.0,18.6,30.33,North,354,2.0,6.0,45,0.00,,,0.00,538.00,VWS V14.01,2013-11-28 15:44:00,
2013-11-28 10:45:00,38.2,19.8,30.33,North,356,0.0,5.0,47,0.00,,,0.00,540.00,VWS V14.01,2013-11-28 15:45:00,
2013-11-28 10:46:00,37.6,17.1,30.33,NNE,18,0.0,4.0,43,0.00,,,0.00,527.00,VWS V14.01,2013-11-28 15:46:00,
2013-11-28 10:47:00,38.3,17.8,30.33,North,0,0.0,4.0,43,0.00,,,0.00,541.00,VWS V14.01,2013-11-28 15:47:00,
2013-11-28 10:48:00,38.5,18.5,30.33,North,354,0.0,0.0,44,0.00,,,0.00,543.00,VWS V14.01,2013-11-28 15:48:00,
2013-11-28 10:49:00,38.5,18.0,30.33,North,354,0.0,0.0,43,0.00,,,0.00,545.00,VWS V14.01,2013-11-28 15:49:00,
2013-11-28 10:50:00,38.6,17.5,30.33,North,354,0.0,0.0,42,0.00,,,0.00,545.00,VWS V14.01,2013-11-28 15:50:00,
2013-11-28 10:51:00,37.9,18.5,30.33,North,349,3.0,5.0,45,0.00,,,0.00,536.00,VWS V14.01,2013-11-28 15:51:00,
2013-11-28 10:52:00,38.6,18.6,30.33,North,5,5.0,8.0,44,0.00,,,0.00,548.00,VWS V14.01,2013-11-28 15:52:00,
2013-11-28 10:53:00,38.6,18.0,30.33,NNE,18,0.0,6.0,43,0.00,,,0.00,548.00,VWS V14.01,2013-11-28 15:53:00,
2013-11-28 10:54:00,38.6,18.6,30.33,NNE,18,0.0,0.0,44,0.00,,,0.00,550.00,VWS V14.01,2013-11-28 15:54:00,
2013-11-28 10:55:00,38.6,18.0,30.33,NW,321,0.0,7.0,43,0.00,,,0.00,550.00,VWS V14.01,2013-11-28 15:55:00,
2013-11-28 10:56:00,38.5,18.5,30.33,North,354,0.0,0.0,44,0.00,,,0.00,543.00,VWS V14.01,2013-11-28 15:56:00,
2013-11-28 10:57:00,38.6,17.0,30.33,NNE,12,6.0,6.0,41,0.00,,,0.00,554.00,VWS V14.01,2013-11-28 15:57:00,
2013-11-28 10:58:00,38.5,18.0,30.33,North,3,0.0,6.0,43,0.00,,,0.00,555.00,VWS V14.01,2013-11-28 15:58:00,
2013-11-28 10:59:00,38.5,18.0,30.33,NNE,21,9.0,9.0,43,0.00,,,0.00,555.00,VWS V14.01,2013-11-28 15:59:00,
2013-11-28 11:00:00,38.5,18.0,30.33,North,358,1.0,9.0,43,0.00,,,0.00,557.00,VWS V14.01,2013-11-28 16:00:00,
2013-11-28 11:01:00,38.6,18.0,30.33,NNE,18,0.0,6.0,43,0.00,,,0.00,548.00,VWS V14.01,2013-11-28 16:01:00,
2013-11-28 11:02:00,38.3,17.8,30.33,NNE,15,3.0,7.0,43,0.00,,,0.00,559.00,VWS V14.01,2013-11-28 16:02:00,
2013-11-28 11:03:00,38.3,17.8,30.33,NNE,15,0.0,3.0,43,0.00,,,0.00,559.00,VWS V14.01,2013-11-28 16:03:00,
2013-11-28 11:04:00,38.3,17.2,30.33,NNE,15,0.0,0.0,42,0.00,,,0.00,559.00,VWS V14.01,2013-11-28 16:04:00,
2013-11-28 11:05:00,38.3,17.2,30.33,NNE,15,0.0,0.0,42,0.00,,,0.00,561.00,VWS V14.01,2013-11-28 16:05:00,
2013-11-28 11:06:00,38.5,18.0,30.33,North,4,0.0,0.0,43,0.00,,,0.00,555.00,VWS V14.01,2013-11-28 16:06:00,
2013-11-28 11:07:00,38.5,17.4,30.33,NW,321,2.0,2.0,42,0.00,,,0.00,563.00,VWS V14.01,2013-11-28 16:07:00,
2013-11-28 11:08:00,38.6,18.6,30.33,North,356,4.0,6.0,44,0.00,,,0.00,564.00,VWS V14.01,2013-11-28 16:08:00,
2013-11-28 11:09:00,38.8,19.3,30.33,West,274,1.0,4.0,45,0.00,,,0.00,566.00,VWS V14.01,2013-11-28 16:09:00,
2013-11-28 11:10:00,38.9,18.9,30.33,NW,306,3.0,4.0,44,0.00,,,0.00,568.00,VWS V14.01,2013-11-28 16:10:00,
2013-11-28 11:11:00,38.3,17.2,30.33,NNE,15,0.0,0.0,42,0.00,,,0.00,559.00,VWS V14.01,2013-11-28 16:11:00,
2013-11-28 11:12:00,39.2,19.1,30.33,NW,307,0.0,3.0,44,0.00,,,0.00,568.00,VWS V14.01,2013-11-28 16:12:00,
2013-11-28 11:13:00,39.3,19.8,30.33,NNE,15,3.0,6.0,45,0.00,,,0.00,570.00,VWS V14.01,2013-11-28 16:13:00,
2013-11-28 11:14:00,39.3,18.7,30.33,North,2,9.0,9.0,43,0.00,,,0.00,570.00,VWS V14.01,2013-11-28 16:14:00,
2013-11-28 11:15:00,39.5,18.9,30.32,North,3,0.0,9.0,43,0.00,,,0.00,570.00,VWS V14.01,2013-11-28 16:15:00,
2013-11-28 11:16:00,38.6,19.1,30.33,North,356,4.0,4.0,45,0.00,,,0.00,564.00,VWS V14.01,2013-11-28 16:16:00,
2013-11-28 11:17:00,39.6,19.5,30.32,North,2,0.0,4.0,44,0.00,,,0.00,573.00,VWS V14.01,2013-11-28 16:17:00,
2013-11-28 11:18:00,39.6,19.0,30.32,NNE,32,0.0,0.0,43,0.00,,,0.00,573.00,VWS V14.01,2013-11-28 16:18:00,
2013-11-28 11:19:00,39.6,19.0,30.32,NE,52,0.0,0.0,43,0.00,,,0.00,573.00,VWS V14.01,2013-11-28 16:19:00,
2013-11-28 11:20:00,39.8,19.1,30.32,NE,55,5.0,5.0,43,0.00,,,0.00,571.00,VWS V14.01,2013-11-28 16:20:00,
2013-11-28 11:21:00,39.3,18.7,30.33,North,0,3.0,4.0,43,0.00,,,0.00,570.00,VWS V14.01,2013-11-28 16:21:00,
2013-11-28 11:22:00,39.9,18.1,30.32,NE,36,0.0,5.0,41,0.00,,,0.00,575.00,VWS V14.01,2013-11-28 16:22:00,
2013-11-28 11:23:00,39.9,18.1,30.32,NE,52,1.0,3.0,41,0.00,,,0.00,577.00,VWS V14.01,2013-11-28 16:23:00,
2013-11-28 11:24:00,39.9,18.1,30.32,NE,44,3.0,3.0,41,0.00,,,0.00,577.00,VWS V14.01,2013-11-28 16:24:00,
2013-11-28 11:25:00,40.1,18.3,30.32,NNE,24,4.0,5.0,41,0.00,,,0.00,577.00,VWS V14.01,2013-11-28 16:25:00,
2013-11-28 11:26:00,39.6,19.0,30.32,NE,52,0.0,0.0,43,0.00,,,0.00,573.00,VWS V14.01,2013-11-28 16:26:00,
2013-11-28 11:27:00,40.1,18.3,30.32,NNE,27,0.0,4.0,41,0.00,,,0.00,578.00,VWS V14.01,2013-11-28 16:27:00,
2013-11-28 11:28:00,40.2,17.8,30.32,NNE,27,0.0,0.0,40,0.00,,,0.00,580.00,VWS V14.01,2013-11-28 16:28:00,
2013-11-28 11:29:00,40.2,17.8,30.32,NNE,27,0.0,0.0,40,0.00,,,0.00,580.00,VWS V14.01,2013-11-28 16:29:00,
2013-11-28 11:30:00,40.3,17.9,30.32,NNE,27,0.0,0.0,40,0.00,,,0.00,580.00,VWS V14.01,2013-11-28 16:30:00,
2013-11-28 11:31:00,39.9,18.1,30.32,NE,52,0.0,1.0,41,0.00,,,0.00,577.00,VWS V14.01,2013-11-28 16:31:00,
2013-11-28 11:32:00,40.3,18.5,30.32,North,6,1.0,6.0,41,0.00,,,0.00,580.00,VWS V14.01,2013-11-28 16:32:00,
2013-11-28 11:33:00,40.5,19.2,30.32,NNE,26,5.0,5.0,42,0.00,,,0.00,584.00,VWS V14.01,2013-11-28 16:33:00,
2013-11-28 11:34:00,40.5,18.1,30.32,NNE,20,0.0,5.0,40,0.00,,,0.00,584.00,VWS V14.01,2013-11-28 16:34:00,
2013-11-28 11:35:00,40.5,18.7,30.32,NW,309,0.0,1.0,41,0.00,,,0.00,584.00,VWS V14.01,2013-11-28 16:35:00,
2013-11-28 11:36:00,40.2,17.8,30.32,NNE,27,0.0,0.0,40,0.00,,,0.00,580.00,VWS V14.01,2013-11-28 16:36:00,
2013-11-28 11:37:00,40.6,19.9,30.32,NE,56,1.0,5.0,43,0.00,,,0.00,585.00,VWS V14.01,2013-11-28 16:37:00,
2013-11-28 11:38:00,40.8,19.5,30.32,NE,35,1.0,2.0,42,0.00,,,0.00,585.00,VWS V14.01,2013-11-28 16:38:00,
2013-11-28 11:39:00,40.8,18.9,30.32,NE,51,0.0,3.0,41,0.00,,,0.00,585.00,VWS V14.01,2013-11-28 16:39:00,
2013-11-28 11:40:00,40.8,18.9,30.32,NE,49,2.0,2.0,41,0.00,,,0.00,585.00,VWS V14.01,2013-11-28 16:40:00,
2013-11-28 11:41:00,40.5,19.2,30.32,NNE,23,0.0,5.0,42,0.00,,,0.00,584.00,VWS V14.01,2013-11-28 16:41:00,
2013-11-28 11:42:00,40.9,18.5,30.32,North,0,0.0,0.0,40,0.00,,,0.00,585.00,VWS V14.01,2013-11-28 16:42:00,
2013-11-28 11:43:00,40.9,18.5,30.32,WNW,300,5.0,5.0,40,0.00,,,0.00,587.00,VWS V14.01,2013-11-28 16:43:00,
2013-11-28 11:44:00,41.1,19.2,30.31,West,274,7.0,7.0,41,0.00,,,0.00,589.00,VWS V14.01,2013-11-28 16:44:00,
2013-11-28 11:45:00,41.1,19.2,30.31,WNW,302,7.0,7.0,41,0.00,,,0.00,589.00,VWS V14.01,2013-11-28 16:45:00,
2013-11-28 11:46:00,40.8,18.9,30.32,NE,46,0.0,3.0,41,0.00,,,0.00,585.00,VWS V14.01,2013-11-28 16:46:00,
2013-11-28 11:47:00,41.1,19.2,30.31,NNW,337,0.0,5.0,41,0.00,,,0.00,591.00,VWS V14.01,2013-11-28 16:47:00,
2013-11-28 11:48:00,41.1,19.2,30.31,NNW,329,0.0,0.0,41,0.00,,,0.00,591.00,VWS V14.01,2013-11-28 16:48:00,
2013-11-28 11:49:00,41.2,20.4,30.31,NNW,329,0.0,0.0,43,0.00,,,0.00,592.00,VWS V14.01,2013-11-28 16:49:00,
2013-11-28 11:50:00,41.3,20.5,30.31,NW,306,3.0,4.0,43,0.00,,,0.00,592.00,VWS V14.01,2013-11-28 16:50:00,
2013-11-28 11:51:00,41.1,19.2,30.32,West,274,1.0,7.0,41,0.00,,,0.00,589.00,VWS V14.01,2013-11-28 16:51:00,
2013-11-28 11:52:00,41.5,19.0,30.31,SSW,213,2.0,2.0,40,0.00,,,0.00,589.00,VWS V14.01,2013-11-28 16:52:00,
2013-11-28 11:53:00,41.5,19.0,30.31,SSW,204,0.0,2.0,40,0.00,,,0.00,591.00,VWS V14.01,2013-11-28 16:53:00,
2013-11-28 11:54:00,41.6,19.1,30.31,SSW,210,0.0,0.0,40,0.00,,,0.00,591.00,VWS V14.01,2013-11-28 16:54:00,
2013-11-28 11:55:00,41.6,18.5,30.31,WSW,255,2.0,4.0,39,0.00,,,0.00,591.00,VWS V14.01,2013-11-28 16:55:00,
2013-11-28 11:56:00,41.8,19.3,30.31,WNW,283,0.0,2.0,40,0.00,,,0.00,591.00,VWS V14.01,2013-11-28 16:56:00,
2013-11-28 11:57:00,41.2,19.9,30.31,NNW,329,0.0,0.0,42,0.00,,,0.00,592.00,VWS V14.01,2013-11-28 16:57:00,
2013-11-28 11:58:00,41.8,18.7,30.31,West,265,0.0,0.0,39,0.00,,,0.00,591.00,VWS V14.01,2013-11-28 16:58:00,
2013-11-28 11:59:00,41.8,19.3,30.31,North,354,6.0,7.0,40,0.00,,,0.00,591.00,VWS V14.01,2013-11-28 16:59:00,
2013-11-28 12:00:00,41.9,19.4,30.31,NW,324,0.0,6.0,40,0.00,,,0.00,592.00,VWS V14.01,2013-11-28 17:00:00,
2013-11-28 12:02:00,41.6,19.1,30.31,SSW,205,0.0,0.0,40,0.00,,,0.00,591.00,VWS V14.01,2013-11-28 17:02:00,
2013-11-28 12:04:00,42.2,18.4,30.31,NW,319,4.0,4.0,38,0.00,,,0.00,591.00,VWS V14.01,2013-11-28 17:04:00,
2013-11-28 12:05:00,42.2,18.4,30.31,NW,325,5.0,5.0,38,0.00,,,0.00,591.00,VWS V14.01,2013-11-28 17:05:00,
2013-11-28 12:06:00,42.2,19.0,30.31,NW,317,0.0,5.0,39,0.00,,,0.00,591.00,VWS V14.01,2013-11-28 17:06:00,
2013-11-28 12:07:00,41.8,19.3,30.31,North,354,6.0,7.0,40,0.00,,,0.00,591.00,VWS V14.01,2013-11-28 17:07:00,
2013-11-28 12:08:00,42.1,17.7,30.31,NW,317,0.0,0.0,37,0.00,,,0.00,591.00,VWS V14.01,2013-11-28 17:08:00,
2013-11-28 12:09:00,42.1,17.7,30.31,NW,317,2.0,2.0,37,0.00,,,0.00,591.00,VWS V14.01,2013-11-28 17:09:00,
2013-11-28 12:10:00,42.1,19.0,30.31,NW,317,0.0,2.0,39,0.00,,,0.00,592.00,VWS V14.01,2013-11-28 17:10:00,
2013-11-28 12:11:00,42.1,19.0,30.31,NW,317,0.0,0.0,39,0.00,,,0.00,591.00,VWS V14.01,2013-11-28 17:11:00,
2013-11-28 12:12:00,41.9,19.4,30.31,NW,324,0.0,6.0,40,0.00,,,0.00,592.00,VWS V14.01,2013-11-28 17:12:00,
2013-11-28 12:13:00,42.2,18.4,30.31,NW,317,0.0,3.0,38,0.00,,,0.00,592.00,VWS V14.01,2013-11-28 17:13:00,
2013-11-28 12:14:00,42.3,19.7,30.30,WSW,252,4.0,5.0,40,0.00,,,0.00,589.00,VWS V14.01,2013-11-28 17:14:00,
2013-11-28 12:15:00,42.2,17.8,30.30,WSW,257,5.0,5.0,37,0.00,,,0.00,589.00,VWS V14.01,2013-11-28 17:15:00,
2013-11-28 12:16:00,42.2,19.6,30.30,WNW,287,3.0,5.0,40,0.00,,,0.00,589.00,VWS V14.01,2013-11-28 17:16:00,
2013-11-28 12:17:00,42.1,17.7,30.31,NW,317,0.0,2.0,37,0.00,,,0.00,591.00,VWS V14.01,2013-11-28 17:17:00,
2013-11-28 12:18:00,42.3,18.5,30.30,WNW,287,0.0,0.0,38,0.00,,,0.00,591.00,VWS V14.01,2013-11-28 17:18:00,
2013-11-28 12:19:00,42.3,18.5,30.30,WNW,287,0.0,0.0,38,0.00,,,0.00,589.00,VWS V14.01,2013-11-28 17:19:00,
2013-11-28 12:20:00,42.3,19.7,30.30,North,3,7.0,7.0,40,0.00,,,0.00,587.00,VWS V14.01,2013-11-28 17:20:00,
2013-11-28 12:21:00,42.5,19.3,30.30,North,358,3.0,10.0,39,0.00,,,0.00,587.00,VWS V14.01,2013-11-28 17:21:00,
2013-11-28 12:22:00,42.2,19.6,30.30,WSW,252,3.0,5.0,40,0.00,,,0.00,589.00,VWS V14.01,2013-11-28 17:22:00,
2013-11-28 12:23:00,42.6,18.8,30.30,NNW,339,5.0,5.0,38,0.00,,,0.00,587.00,VWS V14.01,2013-11-28 17:23:00,
2013-11-28 12:24:00,42.6,20.0,30.30,NNW,342,1.0,5.0,40,0.00,,,0.00,589.00,VWS V14.01,2013-11-28 17:24:00,
2013-11-28 12:25:00,42.8,19.0,30.30,WNW,300,3.0,3.0,38,0.00,,,0.00,587.00,VWS V14.01,2013-11-28 17:25:00,
2013-11-28 12:26:00,42.8,18.4,30.30,NW,316,3.0,4.0,37,0.00,,,0.00,587.00,VWS V14.01,2013-11-28 17:26:00,
2013-11-28 12:27:00,42.3,18.5,30.30,NW,308,3.0,3.0,38,0.00,,,0.00,589.00,VWS V14.01,2013-11-28 17:27:00,
2013-11-28 12:28:00,42.8,19.0,30.30,NW,316,0.0,0.0,38,0.00,,,0.00,585.00,VWS V14.01,2013-11-28 17:28:00,
2013-11-28 12:29:00,42.8,19.0,30.30,NW,316,1.0,1.0,38,0.00,,,0.00,587.00,VWS V14.01,2013-11-28 17:29:00,
2013-11-28 12:30:00,42.9,19.7,30.30,NNW,345,0.0,6.0,39,0.00,,,0.00,584.00,VWS V14.01,2013-11-28 17:30:00,
2013-11-28 12:31:00,42.9,19.7,30.30,NNW,345,0.0,0.0,39,0.00,,,0.00,584.00,VWS V14.01,2013-11-28 17:31:00,
2013-11-28 12:32:00,42.8,20.2,30.30,NE,37,0.0,3.0,40,0.00,,,0.00,585.00,VWS V14.01,2013-11-28 17:32:00,
2013-11-28 12:33:00,42.9,19.7,30.30,NW,318,0.0,4.0,39,0.00,,,0.00,584.00,VWS V14.01,2013-11-28 17:33:00,
2013-11-28 12:34:00,42.9,18.4,30.30,NW,316,0.0,4.0,37,0.00,,,0.00,582.00,VWS V14.01,2013-11-28 17:34:00,
2013-11-28 12:35:00,42.9,18.4,30.30,WNW,303,4.0,4.0,37,0.00,,,0.00,582.00,VWS V14.01,2013-11-28 17:35:00,
2013-11-28 12:36:00,42.9,19.1,30.30,NW,308,0.0,4.0,38,0.00,,,0.00,582.00,VWS V14.01,2013-11-28 17:36:00,
2013-11-28 12:37:00,42.9,18.4,30.30,NW,308,0.0,0.0,37,0.00,,,0.00,580.00,VWS V14.01,2013-11-28 17:37:00,
2013-11-28 12:38:00,42.9,19.7,30.30,NNW,345,0.0,6.0,39,0.00,,,0.00,584.00,VWS V14.01,2013-11-28 17:38:00,
2013-11-28 12:39:00,42.9,19.7,30.30,NW,308,1.0,1.0,39,0.00,,,0.00,578.00,VWS V14.01,2013-11-28 17:39:00,
2013-11-28 12:40:00,43.1,19.8,30.30,North,9,1.0,3.0,39,0.00,,,0.00,578.00,VWS V14.01,2013-11-28 17:40:00,
2013-11-28 12:41:00,43.1,19.2,30.30,North,8,3.0,3.0,38,0.00,,,0.00,578.00,VWS V14.01,2013-11-28 17:41:00,
2013-11-28 12:42:00,43.1,18.6,30.30,NNE,12,0.0,3.0,37,0.00,,,0.00,578.00,VWS V14.01,2013-11-28 17:42:00,
2013-11-28 12:43:00,42.9,18.4,30.30,WNW,303,4.0,4.0,37,0.00,,,0.00,582.00,VWS V14.01,2013-11-28 17:43:00,
2013-11-28 12:44:00,43.2,18.7,30.30,North,11,0.0,0.0,37,0.00,,,0.00,577.00,VWS V14.01,2013-11-28 17:44:00,
2013-11-28 12:45:00,43.2,18.7,30.30,North,11,0.0,3.0,37,0.00,,,0.00,577.00,VWS V14.01,2013-11-28 17:45:00,
2013-11-28 12:46:00,43.3,18.2,30.30,North,11,0.0,0.0,36,0.00,,,0.00,577.00,VWS V14.01,2013-11-28 17:46:00,
2013-11-28 12:47:00,43.3,18.2,30.30,NE,50,3.0,4.0,36,0.00,,,0.00,575.00,VWS V14.01,2013-11-28 17:47:00,
2013-11-28 12:48:00,43.1,19.8,30.30,North,9,1.0,3.0,39,0.00,,,0.00,578.00,VWS V14.01,2013-11-28 17:48:00,
2013-11-28 12:49:00,43.3,19.4,30.30,ENE,61,5.0,5.0,38,0.00,,,0.00,573.00,VWS V14.01,2013-11-28 17:49:00,
2013-11-28 12:50:00,43.3,18.8,30.30,NNE,33,1.0,6.0,37,0.00,,,0.00,575.00,VWS V14.01,2013-11-28 17:50:00,
2013-11-28 12:51:00,43.3,19.4,30.30,NE,34,3.0,5.0,38,0.00,,,0.00,573.00,VWS V14.01,2013-11-28 17:51:00,
2013-11-28 12:52:00,43.5,19.6,30.30,NE,37,3.0,4.0,38,0.00,,,0.00,573.00,VWS V14.01,2013-11-28 17:52:00,
2013-11-28 12:53:00,43.2,18.7,30.30,North,11,0.0,3.0,37,0.00,,,0.00,577.00,VWS V14.01,2013-11-28 17:53:00,
2013-11-28 12:54:00,43.5,19.6,30.30,NNE,32,2.0,3.0,38,0.00,,,0.00,568.00,VWS V14.01,2013-11-28 17:54:00,
2013-11-28 12:55:00,43.5,19.6,30.30,NE,36,1.0,3.0,38,0.00,,,0.00,570.00,VWS V14.01,2013-11-28 17:55:00,
2013-11-28 12:56:00,43.5,18.3,30.30,NE,45,0.0,3.0,36,0.00,,,0.00,568.00,VWS V14.01,2013-11-28 17:56:00,
2013-11-28 12:57:00,43.5,19.0,30.30,NE,34,2.0,2.0,37,0.00,,,0.00,566.00,VWS V14.01,2013-11-28 17:57:00,
2013-11-28 12:58:00,43.3,18.8,30.30,NNE,33,1.0,6.0,37,0.00,,,0.00,575.00,VWS V14.01,2013-11-28 17:58:00,
2013-11-28 12:59:00,43.6,19.7,30.30,ENE,66,0.0,0.0,38,0.00,,,0.00,566.00,VWS V14.01,2013-11-28 17:59:00,
2013-11-28 13:00:00,43.8,19.2,30.29,ENE,70,3.0,3.0,37,0.00,,,0.00,564.00,VWS V14.01,2013-11-28 18:00:00,
2013-11-28 13:01:00,43.8,18.6,30.29,ENE,72,2.0,3.0,36,0.00,,,0.00,564.00,VWS V14.01,2013-11-28 18:01:00,
2013-11-28 13:02:00,43.8,19.9,30.29,ESE,117,3.0,5.0,38,0.00,,,0.00,563.00,VWS V14.01,2013-11-28 18:02:00,
2013-11-28 13:03:00,43.5,18.3,30.30,NE,45,3.0,3.0,36,0.00,,,0.00,568.00,VWS V14.01,2013-11-28 18:03:00,
2013-11-28 13:04:00,43.8,18.6,30.29,ESE,117,0.0,0.0,36,0.00,,,0.00,561.00,VWS V14.01,2013-11-28 18:04:00,
2013-11-28 13:05:00,43.6,17.8,30.29,ESE,117,0.0,0.0,35,0.00,,,0.00,559.00,VWS V14.01,2013-11-28 18:05:00,
2013-11-28 13:06:00,43.6,18.4,30.29,ESE,117,0.0,1.0,36,0.00,,,0.00,559.00,VWS V14.01,2013-11-28 18:06:00,
2013-11-28 13:07:00,43.8,19.9,30.29,ESE,117,0.0,0.0,38,0.00,,,0.00,559.00,VWS V14.01,2013-11-28 18:07:00,
2013-11-28 13:08:00,43.8,20.5,30.29,ENE,70,0.0,3.0,39,0.00,,,0.00,564.00,VWS V14.01,2013-11-28 18:08:00,
2013-11-28 13:09:00,43.8,19.9,30.29,ESE,117,0.0,0.0,38,0.00,,,0.00,554.00,VWS V14.01,2013-11-28 18:09:00,
2013-11-28 13:10:00,43.8,19.2,30.29,ESE,117,0.0,0.0,37,0.00,,,0.00,555.00,VWS V14.01,2013-11-28 18:10:00,
2013-11-28 13:11:00,43.9,18.7,30.29,ESE,117,0.0,0.0,36,0.00,,,0.00,552.00,VWS V14.01,2013-11-28 18:11:00,
2013-11-28 13:12:00,44.1,18.2,30.29,SSE,168,4.0,4.0,35,0.00,,,0.00,550.00,VWS V14.01,2013-11-28 18:12:00,
2013-11-28 13:13:00,43.6,18.4,30.29,ESE,117,0.0,0.0,36,0.00,,,0.00,559.00,VWS V14.01,2013-11-28 18:13:00,
2013-11-28 13:14:00,44.1,18.2,30.29,SW,216,3.0,3.0,35,0.00,,,0.00,550.00,VWS V14.01,2013-11-28 18:14:00,
2013-11-28 13:15:00,44.1,18.9,30.29,SSE,167,0.0,4.0,36,0.00,,,0.00,550.00,VWS V14.01,2013-11-28 18:15:00,
2013-11-28 13:16:00,44.1,18.9,30.29,SSE,158,0.0,0.0,36,0.00,,,0.00,545.00,VWS V14.01,2013-11-28 18:16:00,
2013-11-28 13:17:00,44.1,18.9,30.29,SSE,158,0.0,0.0,36,0.00,,,0.00,543.00,VWS V14.01,2013-11-28 18:17:00,
2013-11-28 13:18:00,43.8,19.2,30.29,ESE,117,0.0,0.0,37,0.00,,,0.00,555.00,VWS V14.01,2013-11-28 18:18:00,
2013-11-28 13:19:00,43.9,18.7,30.29,SE,124,3.0,4.0,36,0.00,,,0.00,543.00,VWS V14.01,2013-11-28 18:19:00,
2013-11-28 13:20:00,43.9,18.7,30.29,ESE,120,3.0,4.0,36,0.00,,,0.00,540.00,VWS V14.01,2013-11-28 18:20:00,
2013-11-28 13:21:00,43.9,19.3,30.29,ESE,120,0.0,3.0,37,0.00,,,0.00,540.00,VWS V14.01,2013-11-28 18:21:00,
2013-11-28 13:22:00,44.1,19.5,30.29,ESE,120,0.0,0.0,37,0.00,,,0.00,540.00,VWS V14.01,2013-11-28 18:22:00,
2013-11-28 13:23:00,44.1,18.9,30.29,SSE,160,0.0,0.0,36,0.00,,,0.00,550.00,VWS V14.01,2013-11-28 18:23:00,
2013-11-28 13:24:00,44.1,18.2,30.29,ESE,120,0.0,0.0,35,0.00,,,0.00,536.00,VWS V14.01,2013-11-28 18:24:00,
2013-11-28 13:25:00,44.2,19.6,30.29,ESE,120,0.0,0.0,37,0.00,,,0.00,536.00,VWS V14.01,2013-11-28 18:25:00,
2013-11-28 13:26:00,44.3,19.7,30.29,ESE,120,0.0,0.0,37,0.00,,,0.00,534.00,VWS V14.01,2013-11-28 18:26:00,
2013-11-28 13:27:00,44.5,19.9,30.29,ESE,120,0.0,0.0,37,0.00,,,0.00,531.00,VWS V14.01,2013-11-28 18:27:00,
2013-11-28 13:28:00,43.9,18.7,30.29,ESE,120,2.0,3.0,36,0.00,,,0.00,540.00,VWS V14.01,2013-11-28 18:28:00,
2013-11-28 13:29:00,44.8,18.2,30.29,North,6,3.0,6.0,34,0.00,,,0.00,529.00,VWS V14.01,2013-11-28 18:29:00,
2013-11-28 13:30:00,44.8,18.8,30.29,North,0,0.0,3.0,35,0.00,,,0.00,531.00,VWS V14.01,2013-11-28 18:30:00,
2013-11-28 13:31:00,44.8,18.2,30.29,North,358,2.0,4.0,34,0.00,,,0.00,527.00,VWS V14.01,2013-11-28 18:31:00,
2013-11-28 13:32:00,44.8,18.2,30.29,North,358,3.0,3.0,34,0.00,,,0.00,526.00,VWS V14.01,2013-11-28 18:32:00,
2013-11-28 13:33:00,44.3,19.7,30.29,ESE,120,0.0,0.0,37,0.00,,,0.00,534.00,VWS V14.01,2013-11-28 18:33:00,
2013-11-28 13:34:00,44.8,18.8,30.29,North,358,0.0,0.0,35,0.00,,,0.00,522.00,VWS V14.01,2013-11-28 18:34:00,
2013-11-28 13:35:00,44.8,17.5,30.29,East,94,2.0,2.0,33,0.00,,,0.00,520.00,VWS V14.01,2013-11-28 18:35:00,
2013-11-28 13:36:00,44.8,17.5,30.29,East,96,0.0,2.0,33,0.00,,,0.00,520.00,VWS V14.01,2013-11-28 18:36:00,
2013-11-28 13:37:00,44.6,17.3,30.29,North,0,4.0,4.0,33,0.00,,,0.00,520.00,VWS V14.01,2013-11-28 18:37:00,
2013-11-28 13:38:00,44.8,18.2,30.29,North,358,4.0,4.0,34,0.00,,,0.00,527.00,VWS V14.01,2013-11-28 18:38:00,
2013-11-28 13:39:00,44.5,18.6,30.29,NE,43,0.0,6.0,35,0.00,,,0.00,513.00,VWS V14.01,2013-11-28 18:39:00,
2013-11-28 13:40:00,44.5,17.9,30.29,NE,45,0.0,0.0,34,0.00,,,0.00,512.00,VWS V14.01,2013-11-28 18:40:00,
2013-11-28 13:41:00,44.3,17.7,30.29,NE,45,0.0,0.0,34,0.00,,,0.00,512.00,VWS V14.01,2013-11-28 18:41:00,
2013-11-28 13:42:00,44.3,18.4,30.29,NE,51,0.0,0.0,35,0.00,,,0.00,512.00,VWS V14.01,2013-11-28 18:42:00,
2013-11-28 13:43:00,44.8,17.5,30.29,East,96,0.0,2.0,33,0.00,,,0.00,520.00,VWS V14.01,2013-11-28 18:43:00,
2013-11-28 13:44:00,44.5,18.6,30.30,North,357,3.0,3.0,35,0.00,,,0.00,506.00,VWS V14.01,2013-11-28 18:44:00,
2013-11-28 13:45:00,44.5,17.9,30.30,North,358,1.0,3.0,34,0.00,,,0.00,503.00,VWS V14.01,2013-11-28 18:45:00,
2013-11-28 13:46:00,44.5,16.5,30.30,North,358,0.0,1.0,32,0.00,,,0.00,501.00,VWS V14.01,2013-11-28 18:46:00,
2013-11-28 13:47:00,44.6,18.0,30.30,North,358,0.0,0.0,34,0.00,,,0.00,501.00,VWS V14.01,2013-11-28 18:47:00,
2013-11-28 13:48:00,44.3,17.7,30.29,NE,45,0.0,0.0,34,0.00,,,0.00,512.00,VWS V14.01,2013-11-28 18:48:00,
2013-11-28 13:49:00,44.8,18.8,30.30,North,0,3.0,6.0,35,0.00,,,0.00,496.00,VWS V14.01,2013-11-28 18:49:00,
2013-11-28 13:50:00,44.8,18.8,30.30,North,0,4.0,4.0,35,0.00,,,0.00,492.00,VWS V14.01,2013-11-28 18:50:00,
2013-11-28 13:51:00,44.8,18.2,30.30,North,358,0.0,7.0,34,0.00,,,0.00,494.00,VWS V14.01,2013-11-28 18:51:00,
2013-11-28 13:52:00,44.8,18.8,30.30,North,358,5.0,5.0,35,0.00,,,0.00,490.00,VWS V14.01,2013-11-28 18:52:00,
2013-11-28 13:53:00,44.9,18.9,30.30,North,11,4.0,5.0,35,0.00,,,0.00,487.00,VWS V14.01,2013-11-28 18:53:00,
2013-11-28 13:54:00,44.5,16.5,30.30,North,358,0.0,1.0,32,0.00,,,0.00,501.00,VWS V14.01,2013-11-28 18:54:00,
2013-11-28 13:55:00,44.9,18.9,30.30,North,3,2.0,5.0,35,0.00,,,0.00,485.00,VWS V14.01,2013-11-28 18:55:00,
2013-11-28 13:56:00,44.9,18.9,30.30,North,4,2.0,2.0,35,0.00,,,0.00,482.00,VWS V14.01,2013-11-28 18:56:00,
2013-11-28 13:57:00,44.9,18.2,30.30,North,0,2.0,6.0,34,0.00,,,0.00,482.00,VWS V14.01,2013-11-28 18:57:00,
2013-11-28 13:58:00,44.9,18.9,30.30,North,351,0.0,2.0,35,0.00,,,0.00,478.00,VWS V14.01,2013-11-28 18:58:00,
2013-11-28 13:59:00,44.8,18.2,30.30,North,358,5.0,7.0,34,0.00,,,0.00,494.00,VWS V14.01,2013-11-28 18:59:00,
2013-11-28 14:00:00,44.9,18.9,30.30,NNW,340,0.0,0.0,35,0.00,,,0.00,476.00,VWS V14.01,2013-11-28 19:00:00,
2013-11-28 14:01:00,44.9,17.6,30.30,NNW,340,0.0,0.0,33,0.00,,,0.00,473.00,VWS V14.01,2013-11-28 19:01:00,
2013-11-28 14:02:00,45.1,17.7,30.30,NNW,340,0.0,0.0,33,0.00,,,0.00,473.00,VWS V14.01,2013-11-28 19:02:00,
2013-11-28 14:03:00,45.1,17.0,30.30,NNW,340,0.0,0.0,32,0.00,,,0.00,469.00,VWS V14.01,2013-11-28 19:03:00,
2013-11-28 14:04:00,44.9,18.9,30.30,North,4,0.0,2.0,35,0.00,,,0.00,482.00,VWS V14.01,2013-11-28 19:04:00,
2013-11-28 14:05:00,44.8,17.5,30.30,NNW,340,0.0,0.0,33,0.00,,,0.00,464.00,VWS V14.01,2013-11-28 19:05:00,
2013-11-28 14:06:00,44.8,16.8,30.30,NNW,340,0.0,0.0,32,0.00,,,0.00,464.00,VWS V14.01,2013-11-28 19:06:00,
2013-11-28 14:07:00,44.8,17.5,30.30,NNE,18,5.0,5.0,33,0.00,,,0.00,462.00,VWS V14.01,2013-11-28 19:07:00,
2013-11-28 14:08:00,44.8,18.2,30.30,NNE,18,0.0,5.0,34,0.00,,,0.00,461.00,VWS V14.01,2013-11-28 19:08:00,
2013-11-28 14:09:00,44.9,17.6,30.30,NNW,340,0.0,0.0,33,0.00,,,0.00,475.00,VWS V14.01,2013-11-28 19:09:00,
2013-11-28 14:10:00,44.9,18.2,30.30,North,6,0.0,0.0,34,0.00,,,0.00,457.00,VWS V14.01,2013-11-28 19:10:00,
2013-11-28 14:11:00,45.1,17.7,30.30,NNE,17,0.0,1.0,33,0.00,,,0.00,454.00,VWS V14.01,2013-11-28 19:11:00,
2013-11-28 14:12:00,45.1,18.4,30.30,NW,313,2.0,4.0,34,0.00,,,0.00,452.00,VWS V14.01,2013-11-28 19:12:00,
2013-11-28 14:13:00,45.1,18.4,30.30,North,0,4.0,4.0,34,0.00,,,0.00,450.00,VWS V14.01,2013-11-28 19:13:00,
2013-11-28 14:14:00,44.8,16.8,30.30,NNW,340,0.0,0.0,32,0.00,,,0.00,464.00,VWS V14.01,2013-11-28 19:14:00,
2013-11-28 14:15:00,45.2,18.5,30.30,North,0,0.0,0.0,34,0.00,,,0.00,445.00,VWS V14.01,2013-11-28 19:15:00,
2013-11-28 14:16:00,45.2,18.5,30.30,North,354,5.0,5.0,34,0.00,,,0.00,445.00,VWS V14.01,2013-11-28 19:16:00,
2013-11-28 14:17:00,45.2,18.5,30.30,North,4,0.0,5.0,34,0.00,,,0.00,443.00,VWS V14.01,2013-11-28 19:17:00,
2013-11-28 14:18:00,45.2,17.8,30.30,NNE,20,3.0,4.0,33,0.00,,,0.00,441.00,VWS V14.01,2013-11-28 19:18:00,
2013-11-28 14:19:00,45.1,17.7,30.30,NNE,20,0.0,1.0,33,0.00,,,0.00,455.00,VWS V14.01,2013-11-28 19:19:00,
2013-11-28 14:20:00,45.1,18.4,30.30,NNW,347,0.0,2.0,34,0.00,,,0.00,434.00,VWS V14.01,2013-11-28 19:20:00,
2013-11-28 14:21:00,45.1,18.4,30.30,NNW,347,0.0,0.0,34,0.00,,,0.00,432.00,VWS V14.01,2013-11-28 19:21:00,
2013-11-28 14:22:00,44.9,16.8,30.30,NE,35,0.0,0.0,32,0.00,,,0.00,431.00,VWS V14.01,2013-11-28 19:22:00,
2013-11-28 14:23:00,44.8,17.5,30.30,ENE,72,3.0,4.0,33,0.00,,,0.00,429.00,VWS V14.01,2013-11-28 19:23:00,
2013-11-28 14:24:00,45.2,18.5,30.30,North,354,5.0,5.0,34,0.00,,,0.00,445.00,VWS V14.01,2013-11-28 19:24:00,
2013-11-28 14:25:00,44.5,17.9,30.30,ENE,58,0.0,2.0,34,0.00,,,0.00,424.00,VWS V14.01,2013-11-28 19:25:00,
2013-11-28 14:26:00,44.5,17.2,30.30,ENE,59,0.0,0.0,33,0.00,,,0.00,424.00,VWS V14.01,2013-11-28 19:26:00,
2013-11-28 14:27:00,44.3,17.7,30.30,ENE,59,0.0,0.0,34,0.00,,,0.00,420.00,VWS V14.01,2013-11-28 19:27:00,
2013-11-28 14:28:00,44.3,17.7,30.30,ENE,59,0.0,0.0,34,0.00,,,0.00,415.00,VWS V14.01,2013-11-28 19:28:00,
2013-11-28 14:29:00,45.1,18.4,30.30,NNW,347,0.0,0.0,34,0.00,,,0.00,432.00,VWS V14.01,2013-11-28 19:29:00,
2013-11-28 14:30:00,44.3,19.0,30.30,ENE,59,0.0,0.0,36,0.00,,,0.00,411.00,VWS V14.01,2013-11-28 19:30:00,
2013-11-28 14:31:00,44.2,19.0,30.30,North,0,3.0,5.0,36,0.00,,,0.00,410.00,VWS V14.01,2013-11-28 19:31:00,
2013-11-28 14:32:00,44.2,18.3,30.30,North,1,5.0,5.0,35,0.00,,,0.00,408.00,VWS V14.01,2013-11-28 19:32:00,
2013-11-28 14:33:00,44.2,18.3,30.30,North,5,3.0,6.0,35,0.00,,,0.00,406.00,VWS V14.01,2013-11-28 19:33:00,
2013-11-28 14:34:00,44.5,17.2,30.30,ENE,59,0.0,0.0,33,0.00,,,0.00,424.00,VWS V14.01,2013-11-28 19:34:00,
2013-11-28 14:35:00,44.1,18.9,30.30,North,358,6.0,9.0,36,0.00,,,0.00,401.00,VWS V14.01,2013-11-28 19:35:00,
2013-11-28 14:36:00,43.9,18.0,30.30,North,355,4.0,9.0,35,0.00,,,0.00,306.00,VWS V14.01,2013-11-28 19:36:00,
2013-11-28 14:37:00,43.9,18.0,30.30,North,354,2.0,4.0,35,0.00,,,0.00,306.00,VWS V14.01,2013-11-28 19:37:00,
2013-11-28 14:38:00,43.8,18.0,30.30,NNW,345,3.0,3.0,35,0.00,,,0.00,77.00,VWS V14.01,2013-11-28 19:38:00,
2013-11-28 14:39:00,44.2,19.0,30.30,North,1,1.0,4.0,36,0.00,,,0.00,410.00,VWS V14.01,2013-11-28 19:39:00,
2013-11-28 14:40:00,43.8,18.0,30.30,NNW,345,0.0,0.0,35,0.00,,,0.00,53.00,VWS V14.01,2013-11-28 19:40:00,
2013-11-28 14:41:00,43.8,18.0,30.30,NNW,345,0.0,0.0,35,0.00,,,0.00,72.00,VWS V14.01,2013-11-28 19:41:00,
2013-11-28 14:42:00,43.6,17.8,30.30,NNW,345,0.0,0.0,35,0.00,,,0.00,60.00,VWS V14.01,2013-11-28 19:42:00,
2013-11-28 14:43:00,43.6,17.8,30.30,North,0,0.0,0.0,35,0.00,,,0.00,49.00,VWS V14.01,2013-11-28 19:43:00,
2013-11-28 14:44:00,43.9,18.0,30.30,North,355,1.0,4.0,35,0.00,,,0.00,306.00,VWS V14.01,2013-11-28 19:44:00,
2013-11-28 14:45:00,43.6,17.1,30.30,North,0,0.0,0.0,34,0.00,,,0.00,51.00,VWS V14.01,2013-11-28 19:45:00,
2013-11-28 14:46:00,43.5,17.0,30.30,North,354,2.0,3.0,34,0.00,,,0.00,51.00,VWS V14.01,2013-11-28 19:46:00,
2013-11-28 14:47:00,43.5,17.7,30.30,North,354,1.0,2.0,35,0.00,,,0.00,56.00,VWS V14.01,2013-11-28 19:47:00,
2013-11-28 14:48:00,43.5,19.0,30.30,North,354,2.0,5.0,37,0.00,,,0.00,51.00,VWS V14.01,2013-11-28 19:48:00,
2013-11-28 14:49:00,43.8,18.0,30.30,NNW,345,0.0,0.0,35,0.00,,,0.00,72.00,VWS V14.01,2013-11-28 19:49:00,
2013-11-28 14:50:00,43.5,17.0,30.30,North,354,0.0,0.0,34,0.00,,,0.00,51.00,VWS V14.01,2013-11-28 19:50:00,
2013-11-28 14:51:00,43.5,16.3,30.30,North,354,0.0,1.0,33,0.00,,,0.00,49.00,VWS V14.01,2013-11-28 19:51:00,
2013-11-28 14:52:00,43.5,17.0,30.30,North,354,0.0,0.0,34,0.00,,,0.00,49.00,VWS V14.01,2013-11-28 19:52:00,
2013-11-28 14:53:00,43.3,16.8,30.30,North,354,0.0,0.0,34,0.00,,,0.00,49.00,VWS V14.01,2013-11-28 19:53:00,
2013-11-28 14:54:00,43.5,17.7,30.30,North,354,0.0,2.0,35,0.00,,,0.00,56.00,VWS V14.01,2013-11-28 19:54:00,
2013-11-28 14:55:00,43.3,17.5,30.30,NNW,330,0.0,5.0,35,0.00,,,0.00,49.00,VWS V14.01,2013-11-28 19:55:00,
2013-11-28 14:56:00,43.3,17.5,30.30,NNW,330,0.0,0.0,35,0.00,,,0.00,49.00,VWS V14.01,2013-11-28 19:56:00,
2013-11-28 14:57:00,43.3,17.5,30.30,NNW,330,0.0,3.0,35,0.00,,,0.00,49.00,VWS V14.01,2013-11-28 19:57:00,
2013-11-28 14:58:00,43.3,16.8,30.30,NNW,329,0.0,0.0,34,0.00,,,0.00,49.00,VWS V14.01,2013-11-28 19:58:00,
2013-11-28 14:59:00,43.5,17.0,30.30,North,354,0.0,0.0,34,0.00,,,0.00,49.00,VWS V14.01,2013-11-28 19:59:00,
2013-11-28 15:00:00,43.3,16.8,30.30,NNW,329,0.0,0.0,34,0.00,,,0.00,49.00,VWS V14.01,2013-11-28 20:00:00,
2013-11-28 15:01:00,43.3,16.8,30.30,NNW,329,0.0,0.0,34,0.00,,,0.00,49.00,VWS V14.01,2013-11-28 20:01:00,
2013-11-28 15:02:00,43.3,16.8,30.30,NNW,329,0.0,0.0,34,0.00,,,0.00,49.00,VWS V14.01,2013-11-28 20:02:00,
2013-11-28 15:03:00,43.3,16.1,30.30,NNW,329,0.0,0.0,33,0.00,,,0.00,47.00,VWS V14.01,2013-11-28 20:03:00,
2013-11-28 15:04:00,43.3,17.5,30.30,NNW,330,0.0,3.0,35,0.00,,,0.00,49.00,VWS V14.01,2013-11-28 20:04:00,
2013-11-28 15:05:00,43.3,17.5,30.30,NNW,329,0.0,0.0,35,0.00,,,0.00,47.00,VWS V14.01,2013-11-28 20:05:00,
2013-11-28 15:06:00,43.3,18.2,30.30,North,0,3.0,4.0,36,0.00,,,0.00,47.00,VWS V14.01,2013-11-28 20:06:00,
2013-11-28 15:07:00,43.3,18.2,30.30,North,0,0.0,3.0,36,0.00,,,0.00,47.00,VWS V14.01,2013-11-28 20:07:00,
2013-11-28 15:08:00,43.3,17.5,30.30,North,0,0.0,0.0,35,0.00,,,0.00,47.00,VWS V14.01,2013-11-28 20:08:00,
2013-11-28 15:10:00,43.3,16.8,30.30,NNW,329,0.0,0.0,34,0.00,,,0.00,49.00,VWS V14.01,2013-11-28 20:10:00,
2013-11-28 15:11:00,43.3,18.2,30.30,North,0,0.0,0.0,36,0.00,,,0.00,47.00,VWS V14.01,2013-11-28 20:11:00,
2013-11-28 15:12:00,43.2,18.1,30.30,North,0,0.0,0.0,36,0.00,,,0.00,47.00,VWS V14.01,2013-11-28 20:12:00,
2013-11-28 15:14:00,43.2,18.1,30.30,North,0,0.0,1.0,36,0.00,,,0.00,47.00,VWS V14.01,2013-11-28 20:14:00,
2013-11-28 15:15:00,43.3,18.2,30.30,North,0,0.0,3.0,36,0.00,,,0.00,47.00,VWS V14.01,2013-11-28 20:15:00,
2013-11-28 15:16:00,43.2,18.1,30.31,North,0,0.0,0.0,36,0.00,,,0.00,47.00,VWS V14.01,2013-11-28 20:16:00,
2013-11-28 15:17:00,43.2,18.1,30.31,North,0,0.0,0.0,36,0.00,,,0.00,47.00,VWS V14.01,2013-11-28 20:17:00,
2013-11-28 15:18:00,43.2,18.1,30.31,North,0,0.0,0.0,36,0.00,,,0.00,47.00,VWS V14.01,2013-11-28 20:18:00,
2013-11-28 15:19:00,43.2,18.1,30.31,North,0,0.0,0.0,36,0.00,,,0.00,47.00,VWS V14.01,2013-11-28 20:19:00,
2013-11-28 15:20:00,43.2,18.1,30.30,North,0,0.0,0.0,36,0.00,,,0.00,47.00,VWS V14.01,2013-11-28 20:20:00,
2013-11-28 15:21:00,43.1,17.3,30.31,North,0,0.0,0.0,35,0.00,,,0.00,47.00,VWS V14.01,2013-11-28 20:21:00,
2013-11-28 15:22:00,43.1,16.7,30.31,North,0,0.0,0.0,34,0.00,,,0.00,51.00,VWS V14.01,2013-11-28 20:22:00,
2013-11-28 15:23:00,43.1,17.3,30.31,North,0,0.0,0.0,35,0.00,,,0.00,47.00,VWS V14.01,2013-11-28 20:23:00,
2013-11-28 15:24:00,43.1,18.0,30.31,North,2,0.0,1.0,36,0.00,,,0.00,44.00,VWS V14.01,2013-11-28 20:24:00,
2013-11-28 15:25:00,43.2,18.1,30.31,North,0,0.0,0.0,36,0.00,,,0.00,47.00,VWS V14.01,2013-11-28 20:25:00,
2013-11-28 15:26:00,42.9,18.4,30.31,North,2,0.0,0.0,37,0.00,,,0.00,44.00,VWS V14.01,2013-11-28 20:26:00,
2013-11-28 15:27:00,42.9,17.8,30.31,North,2,0.0,0.0,36,0.00,,,0.00,44.00,VWS V14.01,2013-11-28 20:27:00,
2013-11-28 15:28:00,42.9,17.1,30.31,North,2,0.0,0.0,35,0.00,,,0.00,44.00,VWS V14.01,2013-11-28 20:28:00,
2013-11-28 15:29:00,42.9,17.1,30.31,North,2,0.0,0.0,35,0.00,,,0.00,47.00,VWS V14.01,2013-11-28 20:29:00,
2013-11-28 15:30:00,43.1,16.7,30.31,North,0,0.0,0.0,34,0.00,,,0.00,51.00,VWS V14.01,2013-11-28 20:30:00,
2013-11-28 15:31:00,42.9,17.8,30.31,North,2,0.0,0.0,36,0.00,,,0.00,42.00,VWS V14.01,2013-11-28 20:31:00,
2013-11-28 15:32:00,42.9,17.8,30.31,North,2,0.0,0.0,36,0.00,,,0.00,42.00,VWS V14.01,2013-11-28 20:32:00,
2013-11-28 15:33:00,42.9,17.1,30.31,North,2,0.0,0.0,35,0.00,,,0.00,42.00,VWS V14.01,2013-11-28 20:33:00,
2013-11-28 15:34:00,42.9,17.1,30.31,North,2,0.0,0.0,35,0.00,,,0.00,40.00,VWS V14.01,2013-11-28 20:34:00,
2013-11-28 15:35:00,42.9,17.1,30.31,North,2,0.0,0.0,35,0.00,,,0.00,44.00,VWS V14.01,2013-11-28 20:35:00,
2013-11-28 15:36:00,42.9,16.5,30.31,North,2,0.0,0.0,34,0.00,,,0.00,40.00,VWS V14.01,2013-11-28 20:36:00,
2013-11-28 15:37:00,42.9,16.5,30.31,North,2,0.0,0.0,34,0.00,,,0.00,40.00,VWS V14.01,2013-11-28 20:37:00,
2013-11-28 15:38:00,42.9,16.5,30.31,North,2,0.0,0.0,34,0.00,,,0.00,40.00,VWS V14.01,2013-11-28 20:38:00,
2013-11-28 15:39:00,42.8,17.7,30.31,North,2,0.0,0.0,36,0.00,,,0.00,39.00,VWS V14.01,2013-11-28 20:39:00,
2013-11-28 15:40:00,42.9,17.8,30.31,North,2,0.0,0.0,36,0.00,,,0.00,42.00,VWS V14.01,2013-11-28 20:40:00,
2013-11-28 15:41:00,42.8,18.4,30.31,NNE,27,0.0,2.0,37,0.00,,,0.00,39.00,VWS V14.01,2013-11-28 20:41:00,
2013-11-28 15:42:00,42.8,19.0,30.31,NNE,27,0.0,0.0,38,0.00,,,0.00,39.00,VWS V14.01,2013-11-28 20:42:00,
2013-11-28 15:43:00,42.8,19.0,30.31,NNE,27,0.0,0.0,38,0.00,,,0.00,37.00,VWS V14.01,2013-11-28 20:43:00,
2013-11-28 15:44:00,42.8,17.7,30.31,NNE,27,0.0,0.0,36,0.00,,,0.00,37.00,VWS V14.01,2013-11-28 20:44:00,
2013-11-28 15:45:00,42.9,16.5,30.31,North,2,0.0,0.0,34,0.00,,,0.00,40.00,VWS V14.01,2013-11-28 20:45:00,
2013-11-28 15:46:00,42.6,17.5,30.31,NNE,27,0.0,0.0,36,0.00,,,0.00,35.00,VWS V14.01,2013-11-28 20:46:00,
2013-11-28 15:47:00,42.6,16.9,30.31,NNE,27,0.0,0.0,35,0.00,,,0.00,35.00,VWS V14.01,2013-11-28 20:47:00,
2013-11-28 15:48:00,42.5,17.4,30.31,NNE,27,1.0,2.0,36,0.00,,,0.00,35.00,VWS V14.01,2013-11-28 20:48:00,
2013-11-28 15:49:00,42.5,18.7,30.31,NNE,27,0.0,1.0,38,0.00,,,0.00,35.00,VWS V14.01,2013-11-28 20:49:00,
2013-11-28 15:50:00,42.8,19.0,30.31,NNE,27,0.0,0.0,38,0.00,,,0.00,39.00,VWS V14.01,2013-11-28 20:50:00,
2013-11-28 15:51:00,42.5,18.1,30.31,NNE,27,0.0,0.0,37,0.00,,,0.00,33.00,VWS V14.01,2013-11-28 20:51:00,
2013-11-28 15:52:00,42.3,17.3,30.31,NNE,27,0.0,0.0,36,0.00,,,0.00,32.00,VWS V14.01,2013-11-28 20:52:00,
2013-11-28 15:53:00,42.3,17.9,30.31,NNE,27,0.0,0.0,37,0.00,,,0.00,32.00,VWS V14.01,2013-11-28 20:53:00,
2013-11-28 15:54:00,42.3,17.9,30.31,NNE,27,0.0,0.0,37,0.00,,,0.00,32.00,VWS V14.01,2013-11-28 20:54:00,
2013-11-28 15:55:00,42.6,16.9,30.31,NNE,27,0.0,0.0,35,0.00,,,0.00,35.00,VWS V14.01,2013-11-28 20:55:00,
2013-11-28 15:56:00,42.2,18.4,30.31,ESE,123,2.0,4.0,38,0.00,,,0.00,30.00,VWS V14.01,2013-11-28 20:56:00,
2013-11-28 15:57:00,42.2,19.0,30.31,ESE,123,0.0,2.0,39,0.00,,,0.00,28.00,VWS V14.01,2013-11-28 20:57:00,
2013-11-28 15:58:00,42.1,19.0,30.31,ESE,123,0.0,0.0,39,0.00,,,0.00,28.00,VWS V14.01,2013-11-28 20:58:00,
2013-11-28 15:59:00,42.1,18.3,30.32,ESE,122,0.0,0.0,38,0.00,,,0.00,26.00,VWS V14.01,2013-11-28 20:59:00,
2013-11-28 16:00:00,42.3,17.3,30.31,NNE,27,0.0,0.0,36,0.00,,,0.00,32.00,VWS V14.01,2013-11-28 21:00:00,
2013-11-28 16:01:00,41.9,18.8,30.32,ESE,123,0.0,0.0,39,0.00,,,0.00,25.00,VWS V14.01,2013-11-28 21:01:00,
2013-11-28 16:02:00,41.9,18.8,30.32,ESE,122,0.0,0.0,39,0.00,,,0.00,25.00,VWS V14.01,2013-11-28 21:02:00,
2013-11-28 16:03:00,41.8,18.7,30.32,ESE,123,0.0,0.0,39,0.00,,,0.00,23.00,VWS V14.01,2013-11-28 21:03:00,
2013-11-28 16:04:00,41.8,18.7,30.32,ESE,122,0.0,0.0,39,0.00,,,0.00,21.00,VWS V14.01,2013-11-28 21:04:00,
2013-11-28 16:05:00,42.2,19.0,30.31,ESE,122,0.0,0.0,39,0.00,,,0.00,28.00,VWS V14.01,2013-11-28 21:05:00,
2013-11-28 16:06:00,41.6,18.5,30.32,ESE,123,0.0,0.0,39,0.00,,,0.00,21.00,VWS V14.01,2013-11-28 21:06:00,
2013-11-28 16:07:00,41.6,18.5,30.32,ESE,122,0.0,0.0,39,0.00,,,0.00,19.00,VWS V14.01,2013-11-28 21:07:00,
2013-11-28 16:08:00,41.5,17.8,30.32,ESE,122,0.0,0.0,38,0.00,,,0.00,19.00,VWS V14.01,2013-11-28 21:08:00,
2013-11-28 16:09:00,41.5,17.8,30.32,ESE,123,0.0,0.0,38,0.00,,,0.00,19.00,VWS V14.01,2013-11-28 21:09:00,
2013-11-28 16:10:00,41.8,18.7,30.32,ESE,122,0.0,0.0,39,0.00,,,0.00,23.00,VWS V14.01,2013-11-28 21:10:00,
2013-11-28 16:11:00,41.3,18.2,30.32,ESE,122,0.0,0.0,39,0.00,,,0.00,18.00,VWS V14.01,2013-11-28 21:11:00,
2013-11-28 16:12:00,41.3,18.2,30.32,ESE,123,0.0,0.0,39,0.00,,,0.00,18.00,VWS V14.01,2013-11-28 21:12:00,
2013-11-28 16:13:00,41.3,17.0,30.32,ESE,123,0.0,0.0,37,0.00,,,0.00,18.00,VWS V14.01,2013-11-28 21:13:00,
2013-11-28 16:14:00,41.2,17.5,30.32,ESE,123,0.0,0.0,38,0.00,,,0.00,16.00,VWS V14.01,2013-11-28 21:14:00,
2013-11-28 16:15:00,41.6,18.5,30.32,ESE,122,0.0,0.0,39,0.00,,,0.00,19.00,VWS V14.01,2013-11-28 21:15:00,
2013-11-28 16:16:00,41.2,18.7,30.32,ESE,122,0.0,0.0,40,0.00,,,0.00,16.00,VWS V14.01,2013-11-28 21:16:00,
2013-11-28 16:17:00,41.2,19.9,30.32,ESE,122,0.0,0.0,42,0.00,,,0.00,16.00,VWS V14.01,2013-11-28 21:17:00,
2013-11-28 16:18:00,41.1,20.3,30.32,ESE,123,0.0,0.0,43,0.00,,,0.00,16.00,VWS V14.01,2013-11-28 21:18:00,
2013-11-28 16:19:00,41.1,20.3,30.32,ESE,123,0.0,0.0,43,0.00,,,0.00,16.00,VWS V14.01,2013-11-28 21:19:00,
2013-11-28 16:20:00,41.3,17.0,30.32,ESE,122,0.0,0.0,37,0.00,,,0.00,18.00,VWS V14.01,2013-11-28 21:20:00,
2013-11-28 16:21:00,40.9,20.1,30.32,ESE,123,0.0,0.0,43,0.00,,,0.00,14.00,VWS V14.01,2013-11-28 21:21:00,
2013-11-28 16:22:00,40.9,20.1,30.32,ESE,123,0.0,0.0,43,0.00,,,0.00,14.00,VWS V14.01,2013-11-28 21:22:00,
2013-11-28 16:23:00,40.8,20.0,30.32,ESE,122,0.0,0.0,43,0.00,,,0.00,14.00,VWS V14.01,2013-11-28 21:23:00,
2013-11-28 16:24:00,40.8,21.1,30.32,ESE,123,0.0,0.0,45,0.00,,,0.00,14.00,VWS V14.01,2013-11-28 21:24:00,
2013-11-28 16:25:00,41.1,20.3,30.32,ESE,122,0.0,0.0,43,0.00,,,0.00,16.00,VWS V14.01,2013-11-28 21:25:00,
2013-11-28 16:26:00,40.6,20.4,30.32,ESE,123,0.0,0.0,44,0.00,,,0.00,14.00,VWS V14.01,2013-11-28 21:26:00,
2013-11-28 16:27:00,40.5,20.9,30.32,ESE,123,0.0,0.0,45,0.00,,,0.00,12.00,VWS V14.01,2013-11-28 21:27:00,
2013-11-28 16:28:00,40.5,21.4,30.32,ESE,122,0.0,0.0,46,0.00,,,0.00,12.00,VWS V14.01,2013-11-28 21:28:00,
2013-11-28 16:29:00,40.3,21.2,30.32,ESE,123,0.0,0.0,46,0.00,,,0.00,12.00,VWS V14.01,2013-11-28 21:29:00,
2013-11-28 16:30:00,40.2,21.1,30.32,ESE,123,0.0,0.0,46,0.00,,,0.00,12.00,VWS V14.01,2013-11-28 21:30:00,
2013-11-28 16:31:00,40.8,20.0,30.32,ESE,123,0.0,0.0,43,0.00,,,0.00,14.00,VWS V14.01,2013-11-28 21:31:00,
2013-11-28 16:32:00,40.2,21.6,30.32,ESE,122,0.0,0.0,47,0.00,,,0.00,12.00,VWS V14.01,2013-11-28 21:32:00,
2013-11-28 16:33:00,40.1,21.5,30.32,ESE,122,0.0,0.0,47,0.00,,,0.00,11.00,VWS V14.01,2013-11-28 21:33:00,
2013-11-28 16:34:00,39.9,21.8,30.32,ESE,122,0.0,0.0,48,0.00,,,0.00,11.00,VWS V14.01,2013-11-28 21:34:00,
2013-11-28 16:35:00,39.9,21.8,30.32,ESE,123,0.0,0.0,48,0.00,,,0.00,11.00,VWS V14.01,2013-11-28 21:35:00,
2013-11-28 16:36:00,40.5,21.4,30.32,ESE,122,0.0,0.0,46,0.00,,,0.00,12.00,VWS V14.01,2013-11-28 21:36:00,
2013-11-28 16:37:00,39.6,22.0,30.32,ESE,122,0.0,0.0,49,0.00,,,0.00,11.00,VWS V14.01,2013-11-28 21:37:00,
2013-11-28 16:38:00,39.6,22.0,30.32,ESE,122,0.0,0.0,49,0.00,,,0.00,11.00,VWS V14.01,2013-11-28 21:38:00,
2013-11-28 16:39:00,39.5,22.4,30.32,ESE,123,0.0,0.0,50,0.00,,,0.00,9.00,VWS V14.01,2013-11-28 21:39:00,
2013-11-28 16:40:00,39.3,21.8,30.32,ESE,123,0.0,0.0,49,0.00,,,0.00,9.00,VWS V14.01,2013-11-28 21:40:00,
2013-11-28 16:41:00,40.1,21.5,30.32,ESE,122,0.0,0.0,47,0.00,,,0.00,11.00,VWS V14.01,2013-11-28 21:41:00,
2013-11-28 16:42:00,39.2,21.7,30.32,ESE,123,0.0,0.0,49,0.00,,,0.00,9.00,VWS V14.01,2013-11-28 21:42:00,
2013-11-28 16:43:00,39.1,21.6,30.32,ESE,123,0.0,0.0,49,0.00,,,0.00,9.00,VWS V14.01,2013-11-28 21:43:00,
2013-11-28 16:44:00,38.9,21.4,30.32,ESE,123,0.0,0.0,49,0.00,,,0.00,7.00,VWS V14.01,2013-11-28 21:44:00,
2013-11-28 16:45:00,38.8,21.3,30.32,ESE,123,0.0,0.0,49,0.00,,,0.00,7.00,VWS V14.01,2013-11-28 21:45:00,
2013-11-28 16:46:00,39.6,22.0,30.32,ESE,122,0.0,0.0,49,0.00,,,0.00,11.00,VWS V14.01,2013-11-28 21:46:00,
2013-11-28 16:47:00,38.6,21.1,30.32,ESE,122,0.0,0.0,49,0.00,,,0.00,7.00,VWS V14.01,2013-11-28 21:47:00,
2013-11-28 16:48:00,38.5,21.0,30.32,ESE,123,0.0,0.0,49,0.00,,,0.00,5.00,VWS V14.01,2013-11-28 21:48:00,
2013-11-28 16:49:00,38.5,21.5,30.32,ESE,123,0.0,0.0,50,0.00,,,0.00,5.00,VWS V14.01,2013-11-28 21:49:00,
2013-11-28 16:50:00,38.3,22.2,30.32,ESE,123,0.0,0.0,52,0.00,,,0.00,5.00,VWS V14.01,2013-11-28 21:50:00,
2013-11-28 16:51:00,39.1,21.6,30.32,ESE,123,0.0,0.0,49,0.00,,,0.00,9.00,VWS V14.01,2013-11-28 21:51:00,
2013-11-28 16:52:00,38.2,22.1,30.32,ESE,123,0.0,0.0,52,0.00,,,0.00,0.00,VWS V14.01,2013-11-28 21:52:00,
2013-11-28 16:53:00,38.2,22.6,30.32,ESE,123,0.0,0.0,53,0.00,,,0.00,0.00,VWS V14.01,2013-11-28 21:53:00,
2013-11-28 16:54:00,38.0,22.4,30.32,ESE,123,0.0,0.0,53,0.00,,,0.00,0.00,VWS V14.01,2013-11-28 21:54:00,
2013-11-28 16:55:00,37.9,22.8,30.32,ESE,123,0.0,0.0,54,0.00,,,0.00,0.00,VWS V14.01,2013-11-28 21:55:00,
2013-11-28 16:56:00,38.5,21.0,30.32,ESE,123,0.0,0.0,49,0.00,,,0.00,5.00,VWS V14.01,2013-11-28 21:56:00,
2013-11-28 16:57:00,37.8,23.1,30.32,ESE,123,0.0,0.0,55,0.00,,,0.00,0.00,VWS V14.01,2013-11-28 21:57:00,
2013-11-28 16:58:00,37.8,23.1,30.32,ESE,123,0.0,0.0,55,0.00,,,0.00,0.00,VWS V14.01,2013-11-28 21:58:00,
2013-11-28 16:59:00,37.6,23.3,30.32,ESE,123,0.0,0.0,56,0.00,,,0.00,0.00,VWS V14.01,2013-11-28 21:59:00,
2013-11-28 17:00:00,37.5,23.2,30.33,ESE,123,0.0,0.0,56,0.00,,,0.00,0.00,VWS V14.01,2013-11-28 22:00:00,
2013-11-28 17:01:00,38.2,22.6,30.32,ESE,123,0.0,0.0,53,0.00,,,0.00,0.00,VWS V14.01,2013-11-28 22:01:00,
2013-11-28 17:02:00,37.3,23.1,30.33,ESE,123,0.0,0.0,56,0.00,,,0.00,0.00,VWS V14.01,2013-11-28 22:02:00,
2013-11-28 17:03:00,37.2,23.0,30.33,ESE,123,0.0,0.0,56,0.00,,,0.00,0.00,VWS V14.01,2013-11-28 22:03:00,
2013-11-28 17:04:00,37.2,23.0,30.33,ESE,123,0.0,0.0,56,0.00,,,0.00,0.00,VWS V14.01,2013-11-28 22:04:00,
2013-11-28 17:05:00,37.0,22.8,30.33,ESE,123,0.0,0.0,56,0.00,,,0.00,0.00,VWS V14.01,2013-11-28 22:05:00,
2013-11-28 17:06:00,37.8,23.1,30.32,ESE,123,0.0,0.0,55,0.00,,,0.00,0.00,VWS V14.01,2013-11-28 22:06:00,
2013-11-28 17:07:00,36.9,22.7,30.33,ESE,123,0.0,0.0,56,0.00,,,0.00,0.00,VWS V14.01,2013-11-28 22:07:00,
2013-11-28 17:08:00,36.8,23.0,30.33,ESE,123,0.0,0.0,57,0.00,,,0.00,0.00,VWS V14.01,2013-11-28 22:08:00,
2013-11-28 17:09:00,36.8,23.4,30.33,ESE,123,0.0,0.0,58,0.00,,,0.00,0.00,VWS V14.01,2013-11-28 22:09:00,
2013-11-28 17:10:00,36.6,23.6,30.33,ESE,123,0.0,0.0,59,0.00,,,0.00,0.00,VWS V14.01,2013-11-28 22:10:00,
2013-11-28 17:11:00,37.2,23.0,30.33,ESE,123,0.0,0.0,56,0.00,,,0.00,0.00,VWS V14.01,2013-11-28 22:11:00,
2013-11-28 17:12:00,36.5,24.0,30.33,ESE,123,0.0,0.0,60,0.00,,,0.00,0.00,VWS V14.01,2013-11-28 22:12:00,
2013-11-28 17:13:00,36.3,24.1,30.33,ESE,123,0.0,0.0,61,0.00,,,0.00,0.00,VWS V14.01,2013-11-28 22:13:00,
2013-11-28 17:14:00,36.2,24.1,30.33,ESE,123,0.0,0.0,61,0.00,,,0.00,0.00,VWS V14.01,2013-11-28 22:14:00,
2013-11-28 17:15:00,36.0,23.9,30.33,ESE,122,0.0,0.0,61,0.00,,,0.00,0.00,VWS V14.01,2013-11-28 22:15:00,
2013-11-28 17:16:00,36.8,23.0,30.33,ESE,122,0.0,0.0,57,0.00,,,0.00,0.00,VWS V14.01,2013-11-28 22:16:00,
2013-11-28 17:17:00,35.9,23.4,30.33,ESE,123,0.0,0.0,60,0.00,,,0.00,0.00,VWS V14.01,2013-11-28 22:17:00,
2013-11-28 17:18:00,35.9,23.8,30.33,ESE,123,0.0,0.0,61,0.00,,,0.00,0.00,VWS V14.01,2013-11-28 22:18:00,
2013-11-28 17:19:00,35.8,23.7,30.33,ESE,122,0.0,0.0,61,0.00,,,0.00,0.00,VWS V14.01,2013-11-28 22:19:00,
2013-11-28 17:20:00,35.6,23.5,30.33,ESE,123,0.0,0.0,61,0.00,,,0.00,0.00,VWS V14.01,2013-11-28 22:20:00,
2013-11-28 17:21:00,36.3,24.1,30.33,ESE,123,0.0,0.0,61,0.00,,,0.00,0.00,VWS V14.01,2013-11-28 22:21:00,
2013-11-28 17:22:00,35.5,23.4,30.33,ESE,123,0.0,0.0,61,0.00,,,0.00,0.00,VWS V14.01,2013-11-28 22:22:00,
2013-11-28 17:23:00,35.3,23.2,30.33,ESE,123,0.0,0.0,61,0.00,,,0.00,0.00,VWS V14.01,2013-11-28 22:23:00,
2013-11-28 17:24:00,35.3,23.6,30.33,ESE,123,0.0,0.0,62,0.00,,,0.00,0.00,VWS V14.01,2013-11-28 22:24:00,
2013-11-28 17:25:00,35.2,23.9,30.33,ESE,123,0.0,0.0,63,0.00,,,0.00,0.00,VWS V14.01,2013-11-28 22:25:00,
2013-11-28 17:26:00,35.8,23.7,30.33,ESE,123,0.0,0.0,61,0.00,,,0.00,0.00,VWS V14.01,2013-11-28 22:26:00,
2013-11-28 17:27:00,35.0,23.7,30.33,ESE,123,0.0,0.0,63,0.00,,,0.00,0.00,VWS V14.01,2013-11-28 22:27:00,
2013-11-28 17:28:00,35.0,23.7,30.33,ESE,123,0.0,0.0,63,0.00,,,0.00,0.00,VWS V14.01,2013-11-28 22:28:00,
2013-11-28 17:29:00,34.9,23.6,30.33,ESE,123,0.0,0.0,63,0.00,,,0.00,0.00,VWS V14.01,2013-11-28 22:29:00,
2013-11-28 17:30:00,34.9,23.6,30.33,ESE,123,0.0,0.0,63,0.00,,,0.00,0.00,VWS V14.01,2013-11-28 22:30:00,
2013-11-28 17:31:00,35.3,23.2,30.33,ESE,123,0.0,0.0,61,0.00,,,0.00,0.00,VWS V14.01,2013-11-28 22:31:00,
2013-11-28 17:32:00,34.7,23.0,30.33,ESE,123,0.0,0.0,62,0.00,,,0.00,0.00,VWS V14.01,2013-11-28 22:32:00,
2013-11-28 17:33:00,34.6,23.3,30.33,ESE,123,0.0,0.0,63,0.00,,,0.00,0.00,VWS V14.01,2013-11-28 22:33:00,
2013-11-28 17:34:00,34.6,23.3,30.33,ESE,123,0.0,0.0,63,0.00,,,0.00,0.00,VWS V14.01,2013-11-28 22:34:00,
2013-11-28 17:35:00,34.4,23.1,30.33,ESE,122,0.0,0.0,63,0.00,,,0.00,0.00,VWS V14.01,2013-11-28 22:35:00,
2013-11-28 17:36:00,34.9,23.6,30.33,ESE,123,0.0,0.0,63,0.00,,,0.00,0.00,VWS V14.01,2013-11-28 22:36:00,
2013-11-28 17:37:00,34.3,23.0,30.33,ESE,123,0.0,0.0,63,0.00,,,0.00,0.00,VWS V14.01,2013-11-28 22:37:00,
2013-11-28 17:38:00,34.1,22.8,30.33,ESE,123,0.0,0.0,63,0.00,,,0.00,0.00,VWS V14.01,2013-11-28 22:38:00,
2013-11-28 17:39:00,34.1,22.8,30.33,ESE,123,0.0,0.0,63,0.00,,,0.00,0.00,VWS V14.01,2013-11-28 22:39:00,
2013-11-28 17:40:00,34.0,22.7,30.33,ESE,123,0.0,0.0,63,0.00,,,0.00,0.00,VWS V14.01,2013-11-28 22:40:00,
2013-11-28 17:41:00,34.6,23.3,30.33,ESE,123,0.0,0.0,63,0.00,,,0.00,0.00,VWS V14.01,2013-11-28 22:41:00,
2013-11-28 17:42:00,33.8,22.9,30.33,ESE,123,0.0,0.0,64,0.00,,,0.00,0.00,VWS V14.01,2013-11-28 22:42:00,
2013-11-28 17:43:00,33.8,22.9,30.33,ESE,123,0.0,0.0,64,0.00,,,0.00,0.00,VWS V14.01,2013-11-28 22:43:00,
2013-11-28 17:44:00,33.7,22.8,30.33,ESE,123,0.0,0.0,64,0.00,,,0.00,0.00,VWS V14.01,2013-11-28 22:44:00,
2013-11-28 17:45:00,33.7,23.2,30.34,ESE,122,0.0,0.0,65,0.00,,,0.00,0.00,VWS V14.01,2013-11-28 22:45:00,
2013-11-28 17:46:00,33.5,23.0,30.34,ESE,123,0.0,0.0,65,0.00,,,0.00,0.00,VWS V14.01,2013-11-28 22:46:00,
2013-11-28 17:47:00,34.1,22.8,30.33,ESE,123,0.0,0.0,63,0.00,,,0.00,0.00,VWS V14.01,2013-11-28 22:47:00,
2013-11-28 17:48:00,33.4,22.9,30.34,ESE,122,0.0,0.0,65,0.00,,,0.00,0.00,VWS V14.01,2013-11-28 22:48:00,
2013-11-28 17:49:00,33.4,22.9,30.34,ESE,123,0.0,0.0,65,0.00,,,0.00,0.00,VWS V14.01,2013-11-28 22:49:00,
2013-11-28 17:50:00,33.2,22.7,30.34,ESE,123,0.0,0.0,65,0.00,,,0.00,0.00,VWS V14.01,2013-11-28 22:50:00,
2013-11-28 17:51:00,33.2,22.4,30.34,ESE,123,0.0,0.0,64,0.00,,,0.00,0.00,VWS V14.01,2013-11-28 22:51:00,
2013-11-28 17:52:00,33.7,22.8,30.33,ESE,122,0.0,0.0,64,0.00,,,0.00,0.00,VWS V14.01,2013-11-28 22:52:00,
2013-11-28 17:53:00,33.1,22.3,30.34,ESE,123,0.0,0.0,64,0.00,,,0.00,0.00,VWS V14.01,2013-11-28 22:53:00,
2013-11-28 17:54:00,33.1,22.3,30.34,ESE,123,0.0,0.0,64,0.00,,,0.00,0.00,VWS V14.01,2013-11-28 22:54:00,
2013-11-28 17:55:00,32.9,22.1,30.34,ESE,123,0.0,0.0,64,0.00,,,0.00,0.00,VWS V14.01,2013-11-28 22:55:00,
2013-11-28 17:56:00,32.8,22.0,30.34,ESE,123,0.0,0.0,64,0.00,,,0.00,0.00,VWS V14.01,2013-11-28 22:56:00,
2013-11-28 17:57:00,33.4,22.9,30.34,ESE,123,0.0,0.0,65,0.00,,,0.00,0.00,VWS V14.01,2013-11-28 22:57:00,
2013-11-28 17:58:00,32.8,22.0,30.34,ESE,123,0.0,0.0,64,0.00,,,0.00,0.00,VWS V14.01,2013-11-28 22:58:00,
2013-11-28 17:59:00,32.7,21.9,30.34,ESE,123,0.0,0.0,64,0.00,,,0.00,0.00,VWS V14.01,2013-11-28 22:59:00,
2013-11-28 18:00:00,32.7,22.2,30.35,ESE,123,0.0,0.0,65,0.00,,,0.00,0.00,VWS V14.01,2013-11-28 23:00:00,
2013-11-28 18:01:00,32.5,22.1,30.35,ESE,122,0.0,0.0,65,0.00,,,0.00,0.00,VWS V14.01,2013-11-28 23:01:00,
2013-11-28 18:02:00,33.1,22.3,30.34,ESE,123,0.0,0.0,64,0.00,,,0.00,0.00,VWS V14.01,2013-11-28 23:02:00,
2013-11-28 18:03:00,32.4,22.0,30.35,ESE,123,0.0,0.0,65,0.00,,,0.00,0.00,VWS V14.01,2013-11-28 23:03:00,
2013-11-28 18:04:00,32.4,22.3,30.35,ESE,123,0.0,0.0,66,0.00,,,0.00,0.00,VWS V14.01,2013-11-28 23:04:00,
2013-11-28 18:05:00,32.2,22.1,30.35,ESE,123,0.0,0.0,66,0.00,,,0.00,0.00,VWS V14.01,2013-11-28 23:05:00,
2013-11-28 18:06:00,32.2,22.5,30.35,ESE,123,0.0,0.0,67,0.00,,,0.00,0.00,VWS V14.01,2013-11-28 23:06:00,
2013-11-28 18:07:00,32.7,21.9,30.34,ESE,123,0.0,0.0,64,0.00,,,0.00,0.00,VWS V14.01,2013-11-28 23:07:00,
2013-11-28 18:08:00,32.1,23.1,30.35,ESE,123,0.0,0.0,69,0.00,,,0.00,0.00,VWS V14.01,2013-11-28 23:08:00,
2013-11-28 18:09:00,32.1,23.1,30.35,ESE,123,0.0,0.0,69,0.00,,,0.00,0.00,VWS V14.01,2013-11-28 23:09:00,
2013-11-28 18:10:00,31.9,23.2,30.35,ESE,123,0.0,0.0,70,0.00,,,0.00,0.00,VWS V14.01,2013-11-28 23:10:00,
2013-11-28 18:11:00,31.9,23.2,30.35,ESE,123,0.0,0.0,70,0.00,,,0.00,0.00,VWS V14.01,2013-11-28 23:11:00,
2013-11-28 18:12:00,32.4,22.3,30.35,ESE,123,0.0,0.0,66,0.00,,,0.00,0.00,VWS V14.01,2013-11-28 23:12:00,
2013-11-28 18:13:00,31.8,23.5,30.35,ESE,123,0.0,0.0,71,0.00,,,0.00,0.00,VWS V14.01,2013-11-28 23:13:00,
2013-11-28 18:14:00,31.8,23.5,30.35,ESE,123,0.0,0.0,71,0.00,,,0.00,0.00,VWS V14.01,2013-11-28 23:14:00,
2013-11-28 18:15:00,31.8,23.8,30.35,ESE,123,0.0,0.0,72,0.00,,,0.00,0.00,VWS V14.01,2013-11-28 23:15:00,
2013-11-28 18:16:00,31.8,23.8,30.35,ESE,123,0.0,0.0,72,0.00,,,0.00,0.00,VWS V14.01,2013-11-28 23:16:00,
2013-11-28 18:17:00,32.1,23.1,30.35,ESE,123,0.0,0.0,69,0.00,,,0.00,0.00,VWS V14.01,2013-11-28 23:17:00,
2013-11-28 18:18:00,31.6,24.0,30.35,ESE,123,0.0,0.0,73,0.00,,,0.00,0.00,VWS V14.01,2013-11-28 23:18:00,
2013-11-28 18:19:00,31.6,24.3,30.35,ESE,123,0.0,0.0,74,0.00,,,0.00,0.00,VWS V14.01,2013-11-28 23:19:00,
2013-11-28 18:20:00,31.5,24.2,30.35,ESE,123,0.0,0.0,74,0.00,,,0.00,0.00,VWS V14.01,2013-11-28 23:20:00,
2013-11-28 18:21:00,31.5,24.5,30.35,ESE,123,0.0,0.0,75,0.00,,,0.00,0.00,VWS V14.01,2013-11-28 23:21:00,
2013-11-28 18:22:00,31.8,23.5,30.35,ESE,123,0.0,0.0,71,0.00,,,0.00,0.00,VWS V14.01,2013-11-28 23:22:00,
2013-11-28 18:23:00,31.5,24.5,30.35,ESE,123,0.0,0.0,75,0.00,,,0.00,0.00,VWS V14.01,2013-11-28 23:23:00,
2013-11-28 18:24:00,31.3,24.3,30.35,ESE,123,0.0,0.0,75,0.00,,,0.00,0.00,VWS V14.01,2013-11-28 23:24:00,
2013-11-28 18:25:00,31.3,24.3,30.35,ESE,123,0.0,0.0,75,0.00,,,0.00,0.00,VWS V14.01,2013-11-28 23:25:00,
2013-11-28 18:26:00,31.3,24.3,30.35,ESE,122,0.0,0.0,75,0.00,,,0.00,0.00,VWS V14.01,2013-11-28 23:26:00,
2013-11-28 18:27:00,31.6,24.3,30.35,ESE,123,0.0,0.0,74,0.00,,,0.00,0.00,VWS V14.01,2013-11-28 23:27:00,
2013-11-28 18:28:00,31.2,24.2,30.35,ESE,123,0.0,0.0,75,0.00,,,0.00,0.00,VWS V14.01,2013-11-28 23:28:00,
2013-11-28 18:29:00,31.2,24.2,30.35,ESE,122,0.0,0.0,75,0.00,,,0.00,0.00,VWS V14.01,2013-11-28 23:29:00,
2013-11-28 18:30:00,31.2,24.2,30.37,ESE,123,0.0,0.0,75,0.00,,,0.00,0.00,VWS V14.01,2013-11-28 23:30:00,
2013-11-28 18:31:00,31.0,24.0,30.37,ESE,123,0.0,0.0,75,0.00,,,0.00,0.00,VWS V14.01,2013-11-28 23:31:00,
2013-11-28 18:32:00,31.3,24.3,30.35,ESE,123,0.0,0.0,75,0.00,,,0.00,0.00,VWS V14.01,2013-11-28 23:32:00,
2013-11-28 18:33:00,30.9,23.9,30.37,ESE,123,0.0,0.0,75,0.00,,,0.00,0.00,VWS V14.01,2013-11-28 23:33:00,
2013-11-28 18:34:00,30.9,23.9,30.37,ESE,123,0.0,0.0,75,0.00,,,0.00,0.00,VWS V14.01,2013-11-28 23:34:00,
2013-11-28 18:35:00,30.9,23.9,30.37,ESE,123,0.0,0.0,75,0.00,,,0.00,0.00,VWS V14.01,2013-11-28 23:35:00,
2013-11-28 18:36:00,30.9,23.9,30.37,ESE,122,0.0,0.0,75,0.00,,,0.00,0.00,VWS V14.01,2013-11-28 23:36:00,
2013-11-28 18:37:00,31.2,24.2,30.35,ESE,122,0.0,0.0,75,0.00,,,0.00,0.00,VWS V14.01,2013-11-28 23:37:00,
2013-11-28 18:38:00,30.7,23.7,30.37,ESE,123,0.0,0.0,75,0.00,,,0.00,0.00,VWS V14.01,2013-11-28 23:38:00,
2013-11-28 18:39:00,30.6,23.6,30.37,ESE,123,0.0,0.0,75,0.00,,,0.00,0.00,VWS V14.01,2013-11-28 23:39:00,
2013-11-28 18:40:00,30.6,23.6,30.37,ESE,123,0.0,0.0,75,0.00,,,0.00,0.00,VWS V14.01,2013-11-28 23:40:00,
2013-11-28 18:41:00,30.6,23.6,30.37,ESE,123,0.0,0.0,75,0.00,,,0.00,0.00,VWS V14.01,2013-11-28 23:41:00,
2013-11-28 18:42:00,30.9,23.9,30.37,ESE,123,0.0,0.0,75,0.00,,,0.00,0.00,VWS V14.01,2013-11-28 23:42:00,
2013-11-28 18:43:00,30.4,23.4,30.37,ESE,123,0.0,0.0,75,0.00,,,0.00,0.00,VWS V14.01,2013-11-28 23:43:00,
2013-11-28 18:44:00,30.4,23.4,30.37,ESE,123,0.0,0.0,75,0.00,,,0.00,0.00,VWS V14.01,2013-11-28 23:44:00,
2013-11-28 18:45:00,30.3,23.3,30.37,ESE,122,0.0,0.0,75,0.00,,,0.00,0.00,VWS V14.01,2013-11-28 23:45:00,
2013-11-28 18:46:00,30.3,23.3,30.37,ESE,123,0.0,0.0,75,0.00,,,0.00,0.00,VWS V14.01,2013-11-28 23:46:00,
2013-11-28 18:47:00,30.6,23.6,30.37,ESE,123,0.0,0.0,75,0.00,,,0.00,0.00,VWS V14.01,2013-11-28 23:47:00,
2013-11-28 18:48:00,30.1,23.5,30.37,ESE,123,0.0,0.0,76,0.00,,,0.00,0.00,VWS V14.01,2013-11-28 23:48:00,
2013-11-28 18:49:00,30.1,23.5,30.37,ESE,123,0.0,0.0,76,0.00,,,0.00,0.00,VWS V14.01,2013-11-28 23:49:00,
2013-11-28 18:50:00,30.1,23.5,30.37,ESE,123,0.0,0.0,76,0.00,,,0.00,0.00,VWS V14.01,2013-11-28 23:50:00,
2013-11-28 18:51:00,30.1,23.5,30.37,ESE,122,0.0,0.0,76,0.00,,,0.00,0.00,VWS V14.01,2013-11-28 23:51:00,
2013-11-28 18:52:00,30.4,23.4,30.37,ESE,123,0.0,0.0,75,0.00,,,0.00,0.00,VWS V14.01,2013-11-28 23:52:00,
2013-11-28 18:53:00,30.0,23.4,30.37,ESE,123,0.0,0.0,76,0.00,,,0.00,0.00,VWS V14.01,2013-11-28 23:53:00,
2013-11-28 18:54:00,30.0,23.4,30.37,ESE,123,0.0,0.0,76,0.00,,,0.00,0.00,VWS V14.01,2013-11-28 23:54:00,
2013-11-28 18:55:00,29.8,23.2,30.37,ESE,123,0.0,0.0,76,0.00,,,0.00,0.00,VWS V14.01,2013-11-28 23:55:00,
2013-11-28 18:56:00,29.8,23.2,30.37,ESE,122,0.0,0.0,76,0.00,,,0.00,0.00,VWS V14.01,2013-11-28 23:56:00,
2013-11-28 18:57:00,30.1,23.5,30.37,ESE,123,0.0,0.0,76,0.00,,,0.00,0.00,VWS V14.01,2013-11-28 23:57:00,
2013-11-28 18:58:00,29.8,23.5,30.37,ESE,123,0.0,0.0,77,0.00,,,0.00,0.00,VWS V14.01,2013-11-28 23:58:00,
2013-11-28 18:59:00,29.7,23.4,30.37,ESE,123,0.0,0.0,77,0.00,,,0.00,0.00,VWS V14.01,2013-11-28 23:59:00,
2013-11-28 19:00:00,29.7,23.4,30.37,ESE,123,0.0,0.0,77,0.00,,,0.00,0.00,VWS V14.01,2013-11-29 00:00:00,
2013-11-28 19:01:00,29.7,23.4,30.37,ESE,122,0.0,0.0,77,0.00,,,0.00,0.00,VWS V14.01,2013-11-29 00:01:00,
2013-11-28 19:02:00,30.0,23.4,30.37,ESE,123,0.0,0.0,76,0.00,,,0.00,0.00,VWS V14.01,2013-11-29 00:02:00,
2013-11-28 19:03:00,29.5,23.5,30.37,ESE,122,0.0,0.0,78,0.00,,,0.00,0.00,VWS V14.01,2013-11-29 00:03:00,
2013-11-28 19:04:00,29.5,23.5,30.37,ESE,123,0.0,0.0,78,0.00,,,0.00,0.00,VWS V14.01,2013-11-29 00:04:00,
2013-11-28 19:05:00,29.5,23.5,30.37,ESE,122,0.0,0.0,78,0.00,,,0.00,0.00,VWS V14.01,2013-11-29 00:05:00,
2013-11-28 19:06:00,29.5,23.8,30.37,ESE,123,0.0,0.0,79,0.00,,,0.00,0.00,VWS V14.01,2013-11-29 00:06:00,
2013-11-28 19:07:00,29.7,23.4,30.37,ESE,123,0.0,0.0,77,0.00,,,0.00,0.00,VWS V14.01,2013-11-29 00:07:00,
2013-11-28 19:08:00,29.4,23.7,30.37,ESE,123,0.0,0.0,79,0.00,,,0.00,0.00,VWS V14.01,2013-11-29 00:08:00,
2013-11-28 19:09:00,29.4,23.7,30.37,ESE,122,0.0,0.0,79,0.00,,,0.00,0.00,VWS V14.01,2013-11-29 00:09:00,
2013-11-28 19:10:00,29.4,23.7,30.37,ESE,123,0.0,0.0,79,0.00,,,0.00,0.00,VWS V14.01,2013-11-29 00:10:00,
2013-11-28 19:11:00,29.4,24.0,30.37,ESE,123,0.0,0.0,80,0.00,,,0.00,0.00,VWS V14.01,2013-11-29 00:11:00,
2013-11-28 19:12:00,29.3,23.9,30.37,ESE,122,0.0,0.0,80,0.00,,,0.00,0.00,VWS V14.01,2013-11-29 00:12:00,
2013-11-28 19:13:00,29.5,23.5,30.37,ESE,122,0.0,0.0,78,0.00,,,0.00,0.00,VWS V14.01,2013-11-29 00:13:00,
2013-11-28 19:14:00,29.3,23.9,30.38,ESE,123,0.0,0.0,80,0.00,,,0.00,0.00,VWS V14.01,2013-11-29 00:14:00,
2013-11-28 19:15:00,29.3,23.9,30.38,ESE,122,0.0,0.0,80,0.00,,,0.00,0.00,VWS V14.01,2013-11-29 00:15:00,
2013-11-28 19:16:00,29.3,23.9,30.38,ESE,123,0.0,0.0,80,0.00,,,0.00,0.00,VWS V14.01,2013-11-29 00:16:00,
2013-11-28 19:17:00,29.1,23.7,30.38,ESE,122,0.0,0.0,80,0.00,,,0.00,0.00,VWS V14.01,2013-11-29 00:17:00,
2013-11-28 19:18:00,29.4,23.7,30.37,ESE,123,0.0,0.0,79,0.00,,,0.00,0.00,VWS V14.01,2013-11-29 00:18:00,
2013-11-28 19:19:00,29.1,23.7,30.38,ESE,122,0.0,0.0,80,0.00,,,0.00,0.00,VWS V14.01,2013-11-29 00:19:00,
2013-11-28 19:20:00,29.1,23.7,30.38,ESE,123,0.0,0.0,80,0.00,,,0.00,0.00,VWS V14.01,2013-11-29 00:20:00,
2013-11-28 19:21:00,29.0,23.6,30.38,ESE,123,0.0,0.0,80,0.00,,,0.00,0.00,VWS V14.01,2013-11-29 00:21:00,
2013-11-28 19:22:00,29.0,23.6,30.38,ESE,122,0.0,0.0,80,0.00,,,0.00,0.00,VWS V14.01,2013-11-29 00:22:00,
2013-11-28 19:23:00,29.3,23.9,30.38,ESE,123,0.0,0.0,80,0.00,,,0.00,0.00,VWS V14.01,2013-11-29 00:23:00,
2013-11-28 19:24:00,29.0,23.6,30.38,ESE,123,0.0,0.0,80,0.00,,,0.00,0.00,VWS V14.01,2013-11-29 00:24:00,
2013-11-28 19:25:00,29.0,23.6,30.38,ESE,122,0.0,0.0,80,0.00,,,0.00,0.00,VWS V14.01,2013-11-29 00:25:00,
2013-11-28 19:26:00,28.8,23.4,30.38,ESE,123,0.0,0.0,80,0.00,,,0.00,0.00,VWS V14.01,2013-11-29 00:26:00,
2013-11-28 19:27:00,28.8,23.7,30.38,ESE,123,0.0,0.0,81,0.00,,,0.00,0.00,VWS V14.01,2013-11-29 00:27:00,
2013-11-28 19:28:00,29.1,23.7,30.38,ESE,122,0.0,0.0,80,0.00,,,0.00,0.00,VWS V14.01,2013-11-29 00:28:00,
2013-11-28 19:29:00,28.8,23.7,30.38,ESE,123,0.0,0.0,81,0.00,,,0.00,0.00,VWS V14.01,2013-11-29 00:29:00,
2013-11-28 19:30:00,28.8,23.7,30.38,ESE,123,0.0,0.0,81,0.00,,,0.00,0.00,VWS V14.01,2013-11-29 00:30:00,
2013-11-28 19:31:00,28.7,23.6,30.38,ESE,123,0.0,0.0,81,0.00,,,0.00,0.00,VWS V14.01,2013-11-29 00:31:00,
2013-11-28 19:32:00,28.7,23.6,30.38,ESE,122,0.0,0.0,81,0.00,,,0.00,0.00,VWS V14.01,2013-11-29 00:32:00,
2013-11-28 19:33:00,29.0,23.6,30.38,ESE,122,0.0,0.0,80,0.00,,,0.00,0.00,VWS V14.01,2013-11-29 00:33:00,
2013-11-28 19:34:00,28.7,23.6,30.38,ESE,122,0.0,0.0,81,0.00,,,0.00,0.00,VWS V14.01,2013-11-29 00:34:00,
2013-11-28 19:35:00,28.7,23.6,30.38,ESE,123,0.0,0.0,81,0.00,,,0.00,0.00,VWS V14.01,2013-11-29 00:35:00,
2013-11-28 19:36:00,28.5,23.4,30.38,ESE,123,0.0,0.0,81,0.00,,,0.00,0.00,VWS V14.01,2013-11-29 00:36:00,
2013-11-28 19:37:00,28.5,23.7,30.38,ESE,123,0.0,0.0,82,0.00,,,0.00,0.00,VWS V14.01,2013-11-29 00:37:00,
2013-11-28 19:38:00,28.8,23.7,30.38,ESE,123,0.0,0.0,81,0.00,,,0.00,0.00,VWS V14.01,2013-11-29 00:38:00,
2013-11-28 19:39:00,28.5,23.7,30.38,ESE,122,0.0,0.0,82,0.00,,,0.00,0.00,VWS V14.01,2013-11-29 00:39:00,
2013-11-28 19:40:00,28.5,23.7,30.38,ESE,122,0.0,0.0,82,0.00,,,0.00,0.00,VWS V14.01,2013-11-29 00:40:00,
2013-11-28 19:41:00,28.5,24.0,30.38,ESE,123,0.0,0.0,83,0.00,,,0.00,0.00,VWS V14.01,2013-11-29 00:41:00,
2013-11-28 19:42:00,28.5,24.0,30.38,ESE,123,0.0,0.0,83,0.00,,,0.00,0.00,VWS V14.01,2013-11-29 00:42:00,
2013-11-28 19:43:00,28.7,23.6,30.38,ESE,123,0.0,0.0,81,0.00,,,0.00,0.00,VWS V14.01,2013-11-29 00:43:00,
2013-11-28 19:44:00,28.5,24.0,30.38,ESE,123,0.0,0.0,83,0.00,,,0.00,0.00,VWS V14.01,2013-11-29 00:44:00,
2013-11-28 19:45:00,28.4,23.9,30.38,ESE,122,0.0,0.0,83,0.00,,,0.00,0.00,VWS V14.01,2013-11-29 00:45:00,
2013-11-28 19:46:00,28.4,23.9,30.38,ESE,123,0.0,0.0,83,0.00,,,0.00,0.00,VWS V14.01,2013-11-29 00:46:00,
2013-11-28 19:47:00,28.4,23.9,30.38,ESE,123,0.0,0.0,83,0.00,,,0.00,0.00,VWS V14.01,2013-11-29 00:47:00,
2013-11-28 19:48:00,28.5,23.7,30.38,ESE,122,0.0,0.0,82,0.00,,,0.00,0.00,VWS V14.01,2013-11-29 00:48:00,
2013-11-28 19:49:00,28.4,23.9,30.38,ESE,123,0.0,0.0,83,0.00,,,0.00,0.00,VWS V14.01,2013-11-29 00:49:00,
2013-11-28 19:50:00,28.4,23.9,30.38,ESE,122,0.0,0.0,83,0.00,,,0.00,0.00,VWS V14.01,2013-11-29 00:50:00,
2013-11-28 19:51:00,28.4,23.9,30.38,ESE,123,0.0,0.0,83,0.00,,,0.00,0.00,VWS V14.01,2013-11-29 00:51:00,
2013-11-28 19:52:00,28.2,23.7,30.38,ESE,122,0.0,0.0,83,0.00,,,0.00,0.00,VWS V14.01,2013-11-29 00:52:00,
2013-11-28 19:53:00,28.4,23.9,30.38,ESE,122,0.0,0.0,83,0.00,,,0.00,0.00,VWS V14.01,2013-11-29 00:53:00,
2013-11-28 19:54:00,28.2,23.7,30.38,ESE,123,0.0,0.0,83,0.00,,,0.00,0.00,VWS V14.01,2013-11-29 00:54:00,
2013-11-28 19:55:00,28.2,23.7,30.38,ESE,123,0.0,0.0,83,0.00,,,0.00,0.00,VWS V14.01,2013-11-29 00:55:00,
2013-11-28 19:56:00,28.2,23.7,30.38,ESE,123,0.0,0.0,83,0.00,,,0.00,0.00,VWS V14.01,2013-11-29 00:56:00,
2013-11-28 19:57:00,28.1,23.6,30.38,ESE,122,0.0,0.0,83,0.00,,,0.00,0.00,VWS V14.01,2013-11-29 00:57:00,
2013-11-28 19:58:00,28.4,23.9,30.38,ESE,122,0.0,0.0,83,0.00,,,0.00,0.00,VWS V14.01,2013-11-29 00:58:00,
2013-11-28 19:59:00,28.1,23.6,30.38,ESE,122,0.0,0.0,83,0.00,,,0.00,0.00,VWS V14.01,2013-11-29 00:59:00,
2013-11-28 20:00:00,28.1,23.6,30.39,ESE,123,0.0,0.0,83,0.00,,,0.00,0.00,VWS V14.01,2013-11-29 01:00:00,
2013-11-28 20:01:00,27.9,23.4,30.39,ESE,123,0.0,0.0,83,0.00,,,0.00,0.00,VWS V14.01,2013-11-29 01:01:00,
2013-11-28 20:02:00,27.9,23.4,30.39,ESE,123,0.0,0.0,83,0.00,,,0.00,0.00,VWS V14.01,2013-11-29 01:02:00,
2013-11-28 20:03:00,28.2,23.7,30.38,ESE,123,0.0,0.0,83,0.00,,,0.00,0.00,VWS V14.01,2013-11-29 01:03:00,
2013-11-28 20:04:00,27.9,23.4,30.39,ESE,123,0.0,0.0,83,0.00,,,0.00,0.00,VWS V14.01,2013-11-29 01:04:00,
2013-11-28 20:05:00,27.9,23.4,30.39,ESE,123,0.0,0.0,83,0.00,,,0.00,0.00,VWS V14.01,2013-11-29 01:05:00,
2013-11-28 20:06:00,27.9,23.4,30.39,ESE,123,0.0,0.0,83,0.00,,,0.00,0.00,VWS V14.01,2013-11-29 01:06:00,
2013-11-28 20:07:00,27.9,23.4,30.39,ESE,123,0.0,0.0,83,0.00,,,0.00,0.00,VWS V14.01,2013-11-29 01:07:00,
2013-11-28 20:08:00,28.1,23.6,30.39,ESE,123,0.0,0.0,83,0.00,,,0.00,0.00,VWS V14.01,2013-11-29 01:08:00,
2013-11-28 20:09:00,27.9,23.4,30.39,ESE,123,0.0,0.0,83,0.00,,,0.00,0.00,VWS V14.01,2013-11-29 01:09:00,
2013-11-28 20:10:00,27.9,23.4,30.39,ESE,122,0.0,0.0,83,0.00,,,0.00,0.00,VWS V14.01,2013-11-29 01:10:00,
2013-11-28 20:11:00,27.9,23.7,30.39,ESE,123,0.0,0.0,84,0.00,,,0.00,0.00,VWS V14.01,2013-11-29 01:11:00,
2013-11-28 20:12:00,27.9,23.7,30.39,ESE,123,0.0,0.0,84,0.00,,,0.00,0.00,VWS V14.01,2013-11-29 01:12:00,
2013-11-28 20:13:00,27.9,23.4,30.39,ESE,123,0.0,0.0,83,0.00,,,0.00,0.00,VWS V14.01,2013-11-29 01:13:00,
2013-11-28 20:14:00,27.8,23.6,30.38,ESE,123,0.0,0.0,84,0.00,,,0.00,0.00,VWS V14.01,2013-11-29 01:14:00,
2013-11-28 20:15:00,27.8,23.6,30.38,ESE,123,0.0,0.0,84,0.00,,,0.00,0.00,VWS V14.01,2013-11-29 01:15:00,
2013-11-28 20:16:00,27.8,23.6,30.38,ESE,122,0.0,0.0,84,0.00,,,0.00,0.00,VWS V14.01,2013-11-29 01:16:00,
2013-11-28 20:17:00,27.8,23.6,30.38,ESE,122,0.0,0.0,84,0.00,,,0.00,0.00,VWS V14.01,2013-11-29 01:17:00,
2013-11-28 20:18:00,27.9,23.7,30.39,ESE,123,0.0,0.0,84,0.00,,,0.00,0.00,VWS V14.01,2013-11-29 01:18:00,
2013-11-28 20:19:00,27.8,23.6,30.38,ESE,122,0.0,0.0,84,0.00,,,0.00,0.00,VWS V14.01,2013-11-29 01:19:00,
2013-11-28 20:20:00,27.6,23.4,30.38,ESE,123,0.0,0.0,84,0.00,,,0.00,0.00,VWS V14.01,2013-11-29 01:20:00,
2013-11-28 20:21:00,27.6,23.4,30.38,ESE,122,0.0,0.0,84,0.00,,,0.00,0.00,VWS V14.01,2013-11-29 01:21:00,
2013-11-28 20:22:00,27.6,23.4,30.38,ESE,123,0.0,0.0,84,0.00,,,0.00,0.00,VWS V14.01,2013-11-29 01:22:00,
2013-11-28 20:23:00,27.8,23.6,30.38,ESE,123,0.0,0.0,84,0.00,,,0.00,0.00,VWS V14.01,2013-11-29 01:23:00,
2013-11-28 20:24:00,27.6,23.4,30.38,ESE,122,0.0,0.0,84,0.00,,,0.00,0.00,VWS V14.01,2013-11-29 01:24:00,
2013-11-28 20:25:00,27.8,23.6,30.38,ESE,123,0.0,0.0,84,0.00,,,0.00,0.00,VWS V14.01,2013-11-29 01:25:00,
2013-11-28 20:26:00,27.8,23.6,30.38,ESE,122,0.0,0.0,84,0.00,,,0.00,0.00,VWS V14.01,2013-11-29 01:26:00,
2013-11-28 20:27:00,27.8,23.6,30.38,ESE,122,0.0,0.0,84,0.00,,,0.00,0.00,VWS V14.01,2013-11-29 01:27:00,
2013-11-28 20:28:00,27.6,23.4,30.38,ESE,123,0.0,0.0,84,0.00,,,0.00,0.00,VWS V14.01,2013-11-29 01:28:00,
2013-11-28 20:29:00,27.6,23.4,30.38,ESE,122,0.0,0.0,84,0.00,,,0.00,0.00,VWS V14.01,2013-11-29 01:29:00,
2013-11-28 20:30:00,27.6,23.4,30.38,ESE,122,0.0,0.0,84,0.00,,,0.00,0.00,VWS V14.01,2013-11-29 01:30:00,
2013-11-28 20:31:00,27.6,23.4,30.38,ESE,122,0.0,0.0,84,0.00,,,0.00,0.00,VWS V14.01,2013-11-29 01:31:00,
2013-11-28 20:32:00,27.6,23.4,30.38,ESE,122,0.0,0.0,84,0.00,,,0.00,0.00,VWS V14.01,2013-11-29 01:32:00,
2013-11-28 20:33:00,27.6,23.4,30.38,ESE,123,0.0,0.0,84,0.00,,,0.00,0.00,VWS V14.01,2013-11-29 01:33:00,
2013-11-28 20:34:00,27.8,23.6,30.38,ESE,123,0.0,0.0,84,0.00,,,0.00,0.00,VWS V14.01,2013-11-29 01:34:00,
2013-11-28 20:35:00,27.6,23.4,30.38,ESE,123,0.0,0.0,84,0.00,,,0.00,0.00,VWS V14.01,2013-11-29 01:35:00,
2013-11-28 20:36:00,27.6,23.4,30.38,ESE,123,0.0,0.0,84,0.00,,,0.00,0.00,VWS V14.01,2013-11-29 01:36:00,
2013-11-28 20:37:00,27.5,23.6,30.38,ESE,122,0.0,0.0,85,0.00,,,0.00,0.00,VWS V14.01,2013-11-29 01:37:00,
2013-11-28 20:38:00,27.5,23.6,30.38,ESE,122,0.0,0.0,85,0.00,,,0.00,0.00,VWS V14.01,2013-11-29 01:38:00,
2013-11-28 20:39:00,27.6,23.4,30.38,ESE,123,0.0,0.0,84,0.00,,,0.00,0.00,VWS V14.01,2013-11-29 01:39:00,
2013-11-28 20:40:00,27.5,23.6,30.38,ESE,122,0.0,0.0,85,0.00,,,0.00,0.00,VWS V14.01,2013-11-29 01:40:00,
2013-11-28 20:41:00,27.5,23.6,30.38,ESE,122,0.0,0.0,85,0.00,,,0.00,0.00,VWS V14.01,2013-11-29 01:41:00,
2013-11-28 20:42:00,27.5,23.6,30.38,ESE,123,0.0,0.0,85,0.00,,,0.00,0.00,VWS V14.01,2013-11-29 01:42:00,
2013-11-28 20:43:00,27.5,23.6,30.38,ESE,123,0.0,0.0,85,0.00,,,0.00,0.00,VWS V14.01,2013-11-29 01:43:00,
2013-11-28 20:44:00,27.6,23.4,30.38,ESE,123,0.0,0.0,84,0.00,,,0.00,0.00,VWS V14.01,2013-11-29 01:44:00,
2013-11-28 20:45:00,27.5,23.6,30.39,ESE,122,0.0,0.0,85,0.00,,,0.00,0.00,VWS V14.01,2013-11-29 01:45:00,
2013-11-28 20:46:00,27.5,23.6,30.39,ESE,123,0.0,0.0,85,0.00,,,0.00,0.00,VWS V14.01,2013-11-29 01:46:00,
2013-11-28 20:47:00,27.5,23.6,30.39,ESE,122,0.0,0.0,85,0.00,,,0.00,0.00,VWS V14.01,2013-11-29 01:47:00,
2013-11-28 20:48:00,27.3,23.4,30.39,ESE,122,0.0,0.0,85,0.00,,,0.00,0.00,VWS V14.01,2013-11-29 01:48:00,
2013-11-28 20:49:00,27.5,23.6,30.38,ESE,122,0.0,0.0,85,0.00,,,0.00,0.00,VWS V14.01,2013-11-29 01:49:00,
2013-11-28 20:50:00,27.3,23.4,30.39,ESE,122,0.0,0.0,85,0.00,,,0.00,0.00,VWS V14.01,2013-11-29 01:50:00,
2013-11-28 20:51:00,27.3,23.4,30.39,ESE,122,0.0,0.0,85,0.00,,,0.00,0.00,VWS V14.01,2013-11-29 01:51:00,
2013-11-28 20:52:00,27.3,23.4,30.39,ESE,122,0.0,0.0,85,0.00,,,0.00,0.00,VWS V14.01,2013-11-29 01:52:00,
2013-11-28 20:53:00,27.3,23.4,30.39,ESE,122,0.0,0.0,85,0.00,,,0.00,0.00,VWS V14.01,2013-11-29 01:53:00,
2013-11-28 20:54:00,27.5,23.6,30.39,ESE,123,0.0,0.0,85,0.00,,,0.00,0.00,VWS V14.01,2013-11-29 01:54:00,
2013-11-28 20:55:00,27.3,23.4,30.39,ESE,122,0.0,0.0,85,0.00,,,0.00,0.00,VWS V14.01,2013-11-29 01:55:00,
2013-11-28 20:56:00,27.2,23.3,30.39,ESE,122,0.0,0.0,85,0.00,,,0.00,0.00,VWS V14.01,2013-11-29 01:56:00,
2013-11-28 20:57:00,27.2,23.3,30.39,ESE,123,0.0,0.0,85,0.00,,,0.00,0.00,VWS V14.01,2013-11-29 01:57:00,
2013-11-28 20:58:00,27.2,23.3,30.39,ESE,123,0.0,0.0,85,0.00,,,0.00,0.00,VWS V14.01,2013-11-29 01:58:00,
2013-11-28 20:59:00,27.3,23.4,30.39,ESE,123,0.0,0.0,85,0.00,,,0.00,0.00,VWS V14.01,2013-11-29 01:59:00,
2013-11-28 21:00:00,27.2,23.3,30.39,ESE,122,0.0,0.0,85,0.00,,,0.00,0.00,VWS V14.01,2013-11-29 02:00:00,
2013-11-28 21:01:00,27.2,23.6,30.39,ESE,123,0.0,0.0,86,0.00,,,0.00,0.00,VWS V14.01,2013-11-29 02:01:00,
2013-11-28 21:02:00,27.2,23.6,30.39,ESE,123,0.0,0.0,86,0.00,,,0.00,0.00,VWS V14.01,2013-11-29 02:02:00,
2013-11-28 21:03:00,27.2,23.6,30.39,ESE,122,0.0,0.0,86,0.00,,,0.00,0.00,VWS V14.01,2013-11-29 02:03:00,
2013-11-28 21:04:00,27.2,23.3,30.39,ESE,122,0.0,0.0,85,0.00,,,0.00,0.00,VWS V14.01,2013-11-29 02:04:00,
2013-11-28 21:05:00,27.2,23.3,30.39,ESE,123,0.0,0.0,85,0.00,,,0.00,0.00,VWS V14.01,2013-11-29 02:05:00,
2013-11-28 21:06:00,27.0,23.1,30.39,ESE,123,0.0,0.0,85,0.00,,,0.00,0.00,VWS V14.01,2013-11-29 02:06:00,
2013-11-28 21:07:00,27.0,23.4,30.39,ESE,123,0.0,0.0,86,0.00,,,0.00,0.00,VWS V14.01,2013-11-29 02:07:00,
2013-11-28 21:08:00,27.0,23.4,30.39,ESE,123,0.0,0.0,86,0.00,,,0.00,0.00,VWS V14.01,2013-11-29 02:08:00,
2013-11-28 21:09:00,27.2,23.6,30.39,ESE,122,0.0,0.0,86,0.00,,,0.00,0.00,VWS V14.01,2013-11-29 02:09:00,
2013-11-28 21:10:00,27.0,23.4,30.39,ESE,123,0.0,0.0,86,0.00,,,0.00,0.00,VWS V14.01,2013-11-29 02:10:00,
2013-11-28 21:11:00,27.0,23.4,30.39,ESE,122,0.0,0.0,86,0.00,,,0.00,0.00,VWS V14.01,2013-11-29 02:11:00,
2013-11-28 21:12:00,27.0,23.4,30.39,ESE,123,0.0,0.0,86,0.00,,,0.00,0.00,VWS V14.01,2013-11-29 02:12:00,
2013-11-28 21:13:00,27.0,23.4,30.39,ESE,123,0.0,0.0,86,0.00,,,0.00,0.00,VWS V14.01,2013-11-29 02:13:00,
2013-11-28 21:14:00,27.0,23.4,30.39,ESE,122,0.0,0.0,86,0.00,,,0.00,0.00,VWS V14.01,2013-11-29 02:14:00,
2013-11-28 21:15:00,27.0,23.4,30.39,ESE,122,0.0,0.0,86,0.00,,,0.00,0.00,VWS V14.01,2013-11-29 02:15:00,
2013-11-28 21:16:00,26.9,23.3,30.39,ESE,123,0.0,0.0,86,0.00,,,0.00,0.00,VWS V14.01,2013-11-29 02:16:00,
2013-11-28 21:17:00,26.9,23.3,30.39,ESE,122,0.0,0.0,86,0.00,,,0.00,0.00,VWS V14.01,2013-11-29 02:17:00,
2013-11-28 21:18:00,26.9,23.3,30.39,ESE,122,0.0,0.0,86,0.00,,,0.00,0.00,VWS V14.01,2013-11-29 02:18:00,
2013-11-28 21:19:00,27.0,23.4,30.39,ESE,122,0.0,0.0,86,0.00,,,0.00,0.00,VWS V14.01,2013-11-29 02:19:00,
2013-11-28 21:20:00,26.9,23.3,30.39,ESE,123,0.0,0.0,86,0.00,,,0.00,0.00,VWS V14.01,2013-11-29 02:20:00,
2013-11-28 21:21:00,26.9,23.3,30.39,ESE,122,0.0,0.0,86,0.00,,,0.00,0.00,VWS V14.01,2013-11-29 02:21:00,
2013-11-28 21:22:00,26.7,23.1,30.39,ESE,123,0.0,0.0,86,0.00,,,0.00,0.00,VWS V14.01,2013-11-29 02:22:00,
2013-11-28 21:23:00,26.7,23.1,30.39,ESE,122,0.0,0.0,86,0.00,,,0.00,0.00,VWS V14.01,2013-11-29 02:23:00,
2013-11-28 21:24:00,26.9,23.3,30.39,ESE,122,0.0,0.0,86,0.00,,,0.00,0.00,VWS V14.01,2013-11-29 02:24:00,
2013-11-28 21:25:00,26.7,23.1,30.39,ESE,123,0.0,0.0,86,0.00,,,0.00,0.00,VWS V14.01,2013-11-29 02:25:00,
2013-11-28 21:26:00,26.7,23.4,30.39,ESE,122,0.0,0.0,87,0.00,,,0.00,0.00,VWS V14.01,2013-11-29 02:26:00,
2013-11-28 21:27:00,26.7,23.4,30.39,ESE,123,0.0,0.0,87,0.00,,,0.00,0.00,VWS V14.01,2013-11-29 02:27:00,
2013-11-28 21:28:00,26.7,23.4,30.39,ESE,123,0.0,0.0,87,0.00,,,0.00,0.00,VWS V14.01,2013-11-29 02:28:00,
2013-11-28 21:29:00,26.9,23.3,30.39,ESE,122,0.0,0.0,86,0.00,,,0.00,0.00,VWS V14.01,2013-11-29 02:29:00,
2013-11-28 21:30:00,26.9,23.6,30.39,ESE,123,0.0,0.0,87,0.00,,,0.00,0.00,VWS V14.01,2013-11-29 02:30:00,
2013-11-28 21:31:00,26.7,23.4,30.39,ESE,122,0.0,0.0,87,0.00,,,0.00,0.00,VWS V14.01,2013-11-29 02:31:00,
2013-11-28 21:32:00,26.9,23.6,30.39,ESE,123,0.0,0.0,87,0.00,,,0.00,0.00,VWS V14.01,2013-11-29 02:32:00,
2013-11-28 21:33:00,26.7,23.4,30.39,ESE,122,0.0,0.0,87,0.00,,,0.00,0.00,VWS V14.01,2013-11-29 02:33:00,
2013-11-28 21:34:00,26.7,23.4,30.39,ESE,123,0.0,0.0,87,0.00,,,0.00,0.00,VWS V14.01,2013-11-29 02:34:00,
2013-11-28 21:35:00,26.7,23.4,30.39,ESE,123,0.0,0.0,87,0.00,,,0.00,0.00,VWS V14.01,2013-11-29 02:35:00,
2013-11-28 21:36:00,26.7,23.4,30.39,ESE,122,0.0,0.0,87,0.00,,,0.00,0.00,VWS V14.01,2013-11-29 02:36:00,
2013-11-28 21:37:00,26.7,23.4,30.39,ESE,122,0.0,0.0,87,0.00,,,0.00,0.00,VWS V14.01,2013-11-29 02:37:00,
2013-11-28 21:38:00,26.7,23.4,30.39,ESE,122,0.0,0.0,87,0.00,,,0.00,0.00,VWS V14.01,2013-11-29 02:38:00,
2013-11-28 21:39:00,26.7,23.4,30.39,ESE,122,0.0,0.0,87,0.00,,,0.00,0.00,VWS V14.01,2013-11-29 02:39:00,
2013-11-28 21:40:00,26.7,23.4,30.39,ESE,122,0.0,0.0,87,0.00,,,0.00,0.00,VWS V14.01,2013-11-29 02:40:00,
2013-11-28 21:41:00,26.7,23.4,30.39,ESE,122,0.0,0.0,87,0.00,,,0.00,0.00,VWS V14.01,2013-11-29 02:41:00,
2013-11-28 21:42:00,26.7,23.4,30.39,ESE,122,0.0,0.0,87,0.00,,,0.00,0.00,VWS V14.01,2013-11-29 02:42:00,
2013-11-28 21:43:00,26.7,23.4,30.39,ESE,122,0.0,0.0,87,0.00,,,0.00,0.00,VWS V14.01,2013-11-29 02:43:00,
2013-11-28 21:44:00,26.7,23.4,30.39,ESE,123,0.0,0.0,87,0.00,,,0.00,0.00,VWS V14.01,2013-11-29 02:44:00,
2013-11-28 21:45:00,26.7,23.4,30.40,ESE,122,0.0,0.0,87,0.00,,,0.00,0.00,VWS V14.01,2013-11-29 02:45:00,
2013-11-28 21:46:00,26.7,23.4,30.40,ESE,122,0.0,0.0,87,0.00,,,0.00,0.00,VWS V14.01,2013-11-29 02:46:00,
2013-11-28 21:47:00,26.7,23.4,30.40,ESE,122,0.0,0.0,87,0.00,,,0.00,0.00,VWS V14.01,2013-11-29 02:47:00,
2013-11-28 21:48:00,26.6,23.3,30.40,ESE,123,0.0,0.0,87,0.00,,,0.00,0.00,VWS V14.01,2013-11-29 02:48:00,
2013-11-28 21:49:00,26.7,23.4,30.39,ESE,123,0.0,0.0,87,0.00,,,0.00,0.00,VWS V14.01,2013-11-29 02:49:00,
2013-11-28 21:50:00,26.6,23.3,30.40,ESE,122,0.0,0.0,87,0.00,,,0.00,0.00,VWS V14.01,2013-11-29 02:50:00,
2013-11-28 21:51:00,26.6,23.3,30.40,ESE,123,0.0,0.0,87,0.00,,,0.00,0.00,VWS V14.01,2013-11-29 02:51:00,
2013-11-28 21:52:00,26.6,23.3,30.40,ESE,122,0.0,0.0,87,0.00,,,0.00,0.00,VWS V14.01,2013-11-29 02:52:00,
2013-11-28 21:53:00,26.4,23.1,30.40,ESE,123,0.0,0.0,87,0.00,,,0.00,0.00,VWS V14.01,2013-11-29 02:53:00,
2013-11-28 21:54:00,26.7,23.4,30.40,ESE,122,0.0,0.0,87,0.00,,,0.00,0.00,VWS V14.01,2013-11-29 02:54:00,
2013-11-28 21:55:00,26.4,23.1,30.40,ESE,122,0.0,0.0,87,0.00,,,0.00,0.00,VWS V14.01,2013-11-29 02:55:00,
2013-11-28 21:56:00,26.4,23.1,30.40,ESE,123,0.0,0.0,87,0.00,,,0.00,0.00,VWS V14.01,2013-11-29 02:56:00,
2013-11-28 21:57:00,26.4,23.1,30.40,ESE,122,0.0,0.0,87,0.00,,,0.00,0.00,VWS V14.01,2013-11-29 02:57:00,
2013-11-28 21:58:00,26.4,23.1,30.40,ESE,122,0.0,0.0,87,0.00,,,0.00,0.00,VWS V14.01,2013-11-29 02:58:00,
2013-11-28 21:59:00,26.4,23.1,30.40,ESE,123,0.0,0.0,87,0.00,,,0.00,0.00,VWS V14.01,2013-11-29 02:59:00,
2013-11-28 22:00:00,26.6,23.3,30.40,ESE,123,0.0,0.0,87,0.00,,,0.00,0.00,VWS V14.01,2013-11-29 03:00:00,
2013-11-28 22:01:00,26.3,23.0,30.40,ESE,123,0.0,0.0,87,0.00,,,0.00,0.00,VWS V14.01,2013-11-29 03:01:00,
2013-11-28 22:02:00,26.3,23.0,30.40,ESE,123,0.0,0.0,87,0.00,,,0.00,0.00,VWS V14.01,2013-11-29 03:02:00,
2013-11-28 22:03:00,26.3,23.0,30.40,ESE,122,0.0,0.0,87,0.00,,,0.00,0.00,VWS V14.01,2013-11-29 03:03:00,
2013-11-28 22:04:00,26.1,22.8,30.40,ESE,122,0.0,0.0,87,0.00,,,0.00,0.00,VWS V14.01,2013-11-29 03:04:00,
2013-11-28 22:05:00,26.4,23.1,30.40,ESE,122,0.0,0.0,87,0.00,,,0.00,0.00,VWS V14.01,2013-11-29 03:05:00,
2013-11-28 22:06:00,26.1,22.8,30.40,ESE,122,0.0,0.0,87,0.00,,,0.00,0.00,VWS V14.01,2013-11-29 03:06:00,
2013-11-28 22:07:00,26.1,22.8,30.40,ESE,122,0.0,0.0,87,0.00,,,0.00,0.00,VWS V14.01,2013-11-29 03:07:00,
2013-11-28 22:08:00,26.1,22.8,30.40,ESE,122,0.0,0.0,87,0.00,,,0.00,0.00,VWS V14.01,2013-11-29 03:08:00,
2013-11-28 22:09:00,26.0,22.7,30.40,ESE,123,0.0,0.0,87,0.00,,,0.00,0.00,VWS V14.01,2013-11-29 03:09:00,
2013-11-28 22:10:00,26.3,23.0,30.40,ESE,123,0.0,0.0,87,0.00,,,0.00,0.00,VWS V14.01,2013-11-29 03:10:00,
2013-11-28 22:11:00,26.0,22.7,30.40,ESE,122,0.0,0.0,87,0.00,,,0.00,0.00,VWS V14.01,2013-11-29 03:11:00,
2013-11-28 22:12:00,26.0,22.7,30.40,ESE,122,0.0,0.0,87,0.00,,,0.00,0.00,VWS V14.01,2013-11-29 03:12:00,
2013-11-28 22:13:00,26.0,22.7,30.40,ESE,123,0.0,0.0,87,0.00,,,0.00,0.00,VWS V14.01,2013-11-29 03:13:00,
2013-11-28 22:14:00,25.8,22.5,30.40,ESE,122,0.0,0.0,87,0.00,,,0.00,0.00,VWS V14.01,2013-11-29 03:14:00,
2013-11-28 22:15:00,26.1,22.8,30.40,ESE,122,0.0,0.0,87,0.00,,,0.00,0.00,VWS V14.01,2013-11-29 03:15:00,
2013-11-28 22:16:00,25.8,22.5,30.40,ESE,123,0.0,0.0,87,0.00,,,0.00,0.00,VWS V14.01,2013-11-29 03:16:00,
2013-11-28 22:17:00,25.8,22.5,30.40,ESE,123,0.0,0.0,87,0.00,,,0.00,0.00,VWS V14.01,2013-11-29 03:17:00,
2013-11-28 22:18:00,25.8,22.5,30.40,ESE,123,0.0,0.0,87,0.00,,,0.00,0.00,VWS V14.01,2013-11-29 03:18:00,
2013-11-28 22:19:00,25.7,22.4,30.40,ESE,122,0.0,0.0,87,0.00,,,0.00,0.00,VWS V14.01,2013-11-29 03:19:00,
2013-11-28 22:20:00,26.0,22.7,30.40,ESE,123,0.0,0.0,87,0.00,,,0.00,0.00,VWS V14.01,2013-11-29 03:20:00,
2013-11-28 22:21:00,25.7,22.4,30.40,ESE,122,0.0,0.0,87,0.00,,,0.00,0.00,VWS V14.01,2013-11-29 03:21:00,
2013-11-28 22:22:00,25.7,22.4,30.40,ESE,122,0.0,0.0,87,0.00,,,0.00,0.00,VWS V14.01,2013-11-29 03:22:00,
2013-11-28 22:23:00,25.8,22.5,30.40,ESE,122,0.0,0.0,87,0.00,,,0.00,0.00,VWS V14.01,2013-11-29 03:23:00,
2013-11-28 22:24:00,25.8,22.5,30.40,ESE,122,0.0,0.0,87,0.00,,,0.00,0.00,VWS V14.01,2013-11-29 03:24:00,
2013-11-28 22:25:00,25.8,22.5,30.40,ESE,123,0.0,0.0,87,0.00,,,0.00,0.00,VWS V14.01,2013-11-29 03:25:00,
2013-11-28 22:26:00,25.8,22.5,30.40,ESE,122,0.0,0.0,87,0.00,,,0.00,0.00,VWS V14.01,2013-11-29 03:26:00,
2013-11-28 22:27:00,25.8,22.7,30.40,ESE,123,0.0,0.0,88,0.00,,,0.00,0.00,VWS V14.01,2013-11-29 03:27:00,
2013-11-28 22:28:00,25.8,22.5,30.40,ESE,123,0.0,0.0,87,0.00,,,0.00,0.00,VWS V14.01,2013-11-29 03:28:00,
2013-11-28 22:29:00,25.8,22.5,30.40,ESE,123,0.0,0.0,87,0.00,,,0.00,0.00,VWS V14.01,2013-11-29 03:29:00,
2013-11-28 22:30:00,25.7,22.4,30.40,ESE,122,0.0,0.0,87,0.00,,,0.00,0.00,VWS V14.01,2013-11-29 03:30:00,
2013-11-28 22:31:00,25.8,22.5,30.40,ESE,122,0.0,0.0,87,0.00,,,0.00,0.00,VWS V14.01,2013-11-29 03:31:00,
2013-11-28 22:32:00,25.7,22.4,30.40,ESE,122,0.0,0.0,87,0.00,,,0.00,0.00,VWS V14.01,2013-11-29 03:32:00,
2013-11-28 22:33:00,25.7,22.4,30.40,ESE,122,0.0,0.0,87,0.00,,,0.00,0.00,VWS V14.01,2013-11-29 03:33:00,
2013-11-28 22:34:00,25.7,22.4,30.40,ESE,122,0.0,0.0,87,0.00,,,0.00,0.00,VWS V14.01,2013-11-29 03:34:00,
2013-11-28 22:35:00,25.8,22.7,30.40,ESE,123,0.0,0.0,88,0.00,,,0.00,0.00,VWS V14.01,2013-11-29 03:35:00,
2013-11-28 22:36:00,25.7,22.6,30.40,ESE,122,0.0,0.0,88,0.00,,,0.00,0.00,VWS V14.01,2013-11-29 03:36:00,
2013-11-28 22:37:00,25.7,22.6,30.40,ESE,122,0.0,0.0,88,0.00,,,0.00,0.00,VWS V14.01,2013-11-29 03:37:00,
2013-11-28 22:38:00,25.7,22.6,30.40,ESE,122,0.0,0.0,88,0.00,,,0.00,0.00,VWS V14.01,2013-11-29 03:38:00,
2013-11-28 22:39:00,25.7,22.6,30.40,ESE,123,0.0,0.0,88,0.00,,,0.00,0.00,VWS V14.01,2013-11-29 03:39:00,
2013-11-28 22:40:00,25.7,22.4,30.40,ESE,122,0.0,0.0,87,0.00,,,0.00,0.00,VWS V14.01,2013-11-29 03:40:00,
2013-11-28 22:41:00,25.7,22.6,30.40,ESE,122,0.0,0.0,88,0.00,,,0.00,0.00,VWS V14.01,2013-11-29 03:41:00,
2013-11-28 22:42:00,25.6,22.5,30.40,ESE,122,0.0,0.0,88,0.00,,,0.00,0.00,VWS V14.01,2013-11-29 03:42:00,
2013-11-28 22:43:00,25.6,22.5,30.40,ESE,122,0.0,0.0,88,0.00,,,0.00,0.00,VWS V14.01,2013-11-29 03:43:00,
2013-11-28 22:44:00,25.6,22.5,30.40,ESE,122,0.0,0.0,88,0.00,,,0.00,0.00,VWS V14.01,2013-11-29 03:44:00,
2013-11-28 22:45:00,25.7,22.6,30.40,ESE,123,0.0,0.0,88,0.00,,,0.00,0.00,VWS V14.01,2013-11-29 03:45:00,
2013-11-28 22:46:00,25.6,22.5,30.40,ESE,122,0.0,0.0,88,0.00,,,0.00,0.00,VWS V14.01,2013-11-29 03:46:00,
2013-11-28 22:47:00,25.6,22.5,30.40,ESE,122,0.0,0.0,88,0.00,,,0.00,0.00,VWS V14.01,2013-11-29 03:47:00,
2013-11-28 22:48:00,25.6,22.5,30.40,ESE,122,0.0,0.0,88,0.00,,,0.00,0.00,VWS V14.01,2013-11-29 03:48:00,
2013-11-28 22:49:00,25.6,22.5,30.40,ESE,122,0.0,0.0,88,0.00,,,0.00,0.00,VWS V14.01,2013-11-29 03:49:00,
2013-11-28 22:50:00,25.6,22.5,30.40,ESE,122,0.0,0.0,88,0.00,,,0.00,0.00,VWS V14.01,2013-11-29 03:50:00,
2013-11-28 22:51:00,25.7,22.6,30.40,ESE,122,0.0,0.0,88,0.00,,,0.00,0.00,VWS V14.01,2013-11-29 03:51:00,
2013-11-28 22:52:00,25.7,22.6,30.40,ESE,122,0.0,0.0,88,0.00,,,0.00,0.00,VWS V14.01,2013-11-29 03:52:00,
2013-11-28 22:53:00,25.7,22.9,30.40,ESE,122,0.0,0.0,89,0.00,,,0.00,0.00,VWS V14.01,2013-11-29 03:53:00,
2013-11-28 22:54:00,25.8,23.0,30.40,ESE,123,0.0,0.0,89,0.00,,,0.00,0.00,VWS V14.01,2013-11-29 03:54:00,
2013-11-28 22:55:00,25.6,22.5,30.40,ESE,123,0.0,0.0,88,0.00,,,0.00,0.00,VWS V14.01,2013-11-29 03:55:00,
2013-11-28 22:56:00,25.8,23.0,30.40,ESE,122,0.0,0.0,89,0.00,,,0.00,0.00,VWS V14.01,2013-11-29 03:56:00,
2013-11-28 22:57:00,25.8,23.0,30.40,ESE,122,0.0,0.0,89,0.00,,,0.00,0.00,VWS V14.01,2013-11-29 03:57:00,
2013-11-28 22:58:00,25.8,23.0,30.40,ESE,122,0.0,0.0,89,0.00,,,0.00,0.00,VWS V14.01,2013-11-29 03:58:00,
2013-11-28 22:59:00,25.8,23.0,30.40,ESE,122,0.0,0.0,89,0.00,,,0.00,0.00,VWS V14.01,2013-11-29 03:59:00,
2013-11-28 23:00:00,25.7,22.9,30.40,ESE,122,0.0,0.0,89,0.00,,,0.00,0.00,VWS V14.01,2013-11-29 04:00:00,
2013-11-28 23:01:00,25.8,23.0,30.41,ESE,122,0.0,0.0,89,0.00,,,0.00,0.00,VWS V14.01,2013-11-29 04:01:00,
2013-11-28 23:02:00,25.8,23.0,30.41,ESE,122,0.0,0.0,89,0.00,,,0.00,0.00,VWS V14.01,2013-11-29 04:02:00,
2013-11-28 23:03:00,25.8,23.0,30.41,ESE,122,0.0,0.0,89,0.00,,,0.00,0.00,VWS V14.01,2013-11-29 04:03:00,
2013-11-28 23:04:00,25.8,23.0,30.41,ESE,122,0.0,0.0,89,0.00,,,0.00,0.00,VWS V14.01,2013-11-29 04:04:00,
2013-11-28 23:05:00,25.8,23.0,30.40,ESE,122,0.0,0.0,89,0.00,,,0.00,0.00,VWS V14.01,2013-11-29 04:05:00,
2013-11-28 23:06:00,25.8,23.0,30.41,ESE,122,0.0,0.0,89,0.00,,,0.00,0.00,VWS V14.01,2013-11-29 04:06:00,
2013-11-28 23:07:00,25.8,23.0,30.41,ESE,122,0.0,0.0,89,0.00,,,0.00,0.00,VWS V14.01,2013-11-29 04:07:00,
2013-11-28 23:08:00,25.8,23.0,30.41,ESE,122,0.0,0.0,89,0.00,,,0.00,0.00,VWS V14.01,2013-11-29 04:08:00,
2013-11-28 23:09:00,25.8,23.0,30.41,ESE,122,0.0,0.0,89,0.00,,,0.00,0.00,VWS V14.01,2013-11-29 04:09:00,
2013-11-28 23:10:00,25.8,23.0,30.41,ESE,122,0.0,0.0,89,0.00,,,0.00,0.00,VWS V14.01,2013-11-29 04:10:00,
2013-11-28 23:11:00,25.8,23.0,30.41,ESE,122,0.0,0.0,89,0.00,,,0.00,0.00,VWS V14.01,2013-11-29 04:11:00,
2013-11-28 23:12:00,25.8,23.0,30.41,ESE,122,0.0,0.0,89,0.00,,,0.00,0.00,VWS V14.01,2013-11-29 04:12:00,
2013-11-28 23:13:00,25.8,23.0,30.41,ESE,122,0.0,0.0,89,0.00,,,0.00,0.00,VWS V14.01,2013-11-29 04:13:00,
2013-11-28 23:15:00,25.8,23.0,30.41,ESE,122,0.0,0.0,89,0.00,,,0.00,0.00,VWS V14.01,2013-11-29 04:15:00,
2013-11-28 23:16:00,25.8,23.0,30.41,ESE,122,0.0,0.0,89,0.00,,,0.00,0.00,VWS V14.01,2013-11-29 04:16:00,
2013-11-28 23:17:00,25.8,23.0,30.41,ESE,122,0.0,0.0,89,0.00,,,0.00,0.00,VWS V14.01,2013-11-29 04:17:00,
2013-11-28 23:18:00,25.7,22.9,30.41,ESE,122,0.0,0.0,89,0.00,,,0.00,0.00,VWS V14.01,2013-11-29 04:18:00,
2013-11-28 23:19:00,25.7,22.9,30.41,ESE,122,0.0,0.0,89,0.00,,,0.00,0.00,VWS V14.01,2013-11-29 04:19:00,
2013-11-28 23:20:00,25.7,22.9,30.41,ESE,122,0.0,0.0,89,0.00,,,0.00,0.00,VWS V14.01,2013-11-29 04:20:00,
2013-11-28 23:21:00,25.8,23.0,30.41,ESE,122,0.0,0.0,89,0.00,,,0.00,0.00,VWS V14.01,2013-11-29 04:21:00,
2013-11-28 23:22:00,25.7,22.9,30.41,ESE,122,0.0,0.0,89,0.00,,,0.00,0.00,VWS V14.01,2013-11-29 04:22:00,
2013-11-28 23:23:00,25.7,22.9,30.41,ESE,122,0.0,0.0,89,0.00,,,0.00,0.00,VWS V14.01,2013-11-29 04:23:00,
2013-11-28 23:24:00,25.7,22.9,30.41,ESE,122,0.0,0.0,89,0.00,,,0.00,0.00,VWS V14.01,2013-11-29 04:24:00,
2013-11-28 23:25:00,25.6,22.8,30.41,ESE,122,0.0,0.0,89,0.00,,,0.00,0.00,VWS V14.01,2013-11-29 04:25:00,
2013-11-28 23:26:00,25.7,22.9,30.41,ESE,122,0.0,0.0,89,0.00,,,0.00,0.00,VWS V14.01,2013-11-29 04:26:00,
2013-11-28 23:27:00,25.6,22.8,30.41,ESE,122,0.0,0.0,89,0.00,,,0.00,0.00,VWS V14.01,2013-11-29 04:27:00,
2013-11-28 23:28:00,25.6,22.8,30.41,ESE,122,0.0,0.0,89,0.00,,,0.00,0.00,VWS V14.01,2013-11-29 04:28:00,
2013-11-28 23:29:00,25.6,22.8,30.41,ESE,122,0.0,0.0,89,0.00,,,0.00,0.00,VWS V14.01,2013-11-29 04:29:00,
2013-11-28 23:30:00,25.6,22.8,30.40,ESE,122,0.0,0.0,89,0.00,,,0.00,0.00,VWS V14.01,2013-11-29 04:30:00,
2013-11-28 23:31:00,25.7,22.9,30.41,ESE,122,0.0,0.0,89,0.00,,,0.00,0.00,VWS V14.01,2013-11-29 04:31:00,
2013-11-28 23:32:00,25.4,22.6,30.40,ESE,122,0.0,0.0,89,0.00,,,0.00,0.00,VWS V14.01,2013-11-29 04:32:00,
2013-11-28 23:33:00,25.4,22.6,30.40,ESE,122,0.0,0.0,89,0.00,,,0.00,0.00,VWS V14.01,2013-11-29 04:33:00,
2013-11-28 23:34:00,25.4,22.6,30.40,ESE,122,0.0,0.0,89,0.00,,,0.00,0.00,VWS V14.01,2013-11-29 04:34:00,
2013-11-28 23:35:00,25.4,22.6,30.40,ESE,122,0.0,0.0,89,0.00,,,0.00,0.00,VWS V14.01,2013-11-29 04:35:00,
2013-11-28 23:36:00,25.6,22.8,30.41,ESE,122,0.0,0.0,89,0.00,,,0.00,0.00,VWS V14.01,2013-11-29 04:36:00,
2013-11-28 23:37:00,25.4,22.6,30.40,ESE,123,0.0,0.0,89,0.00,,,0.00,0.00,VWS V14.01,2013-11-29 04:37:00,
2013-11-28 23:38:00,25.4,22.6,30.40,ESE,122,0.0,0.0,89,0.00,,,0.00,0.00,VWS V14.01,2013-11-29 04:38:00,
2013-11-28 23:39:00,25.4,22.6,30.40,ESE,122,0.0,0.0,89,0.00,,,0.00,0.00,VWS V14.01,2013-11-29 04:39:00,
2013-11-28 23:40:00,25.4,22.6,30.40,ESE,122,0.0,0.0,89,0.00,,,0.00,0.00,VWS V14.01,2013-11-29 04:40:00,
2013-11-28 23:41:00,25.4,22.6,30.40,ESE,122,0.0,0.0,89,0.00,,,0.00,0.00,VWS V14.01,2013-11-29 04:41:00,
2013-11-28 23:42:00,25.4,22.6,30.40,ESE,122,0.0,0.0,89,0.00,,,0.00,0.00,VWS V14.01,2013-11-29 04:42:00,
2013-11-28 23:43:00,25.4,22.6,30.40,ESE,122,0.0,0.0,89,0.00,,,0.00,0.00,VWS V14.01,2013-11-29 04:43:00,
2013-11-28 23:44:00,25.4,22.6,30.40,ESE,122,0.0,0.0,89,0.00,,,0.00,0.00,VWS V14.01,2013-11-29 04:44:00,
2013-11-28 23:45:00,25.4,22.6,30.41,ESE,122,0.0,0.0,89,0.00,,,0.00,0.00,VWS V14.01,2013-11-29 04:45:00,
2013-11-28 23:46:00,25.4,22.6,30.40,ESE,122,0.0,0.0,89,0.00,,,0.00,0.00,VWS V14.01,2013-11-29 04:46:00,
2013-11-28 23:47:00,25.4,22.6,30.41,ESE,122,0.0,0.0,89,0.00,,,0.00,0.00,VWS V14.01,2013-11-29 04:47:00,
2013-11-28 23:48:00,25.4,22.6,30.41,ESE,122,0.0,0.0,89,0.00,,,0.00,0.00,VWS V14.01,2013-11-29 04:48:00,
2013-11-28 23:49:00,25.4,22.6,30.41,ESE,122,0.0,0.0,89,0.00,,,0.00,0.00,VWS V14.01,2013-11-29 04:49:00,
2013-11-28 23:50:00,25.4,22.6,30.41,ESE,122,0.0,0.0,89,0.00,,,0.00,0.00,VWS V14.01,2013-11-29 04:50:00,
2013-11-28 23:51:00,25.4,22.6,30.40,ESE,122,0.0,0.0,89,0.00,,,0.00,0.00,VWS V14.01,2013-11-29 04:51:00,
2013-11-28 23:52:00,25.4,22.6,30.41,ESE,122,0.0,0.0,89,0.00,,,0.00,0.00,VWS V14.01,2013-11-29 04:52:00,
2013-11-28 23:53:00,25.4,22.6,30.41,ESE,122,0.0,0.0,89,0.00,,,0.00,0.00,VWS V14.01,2013-11-29 04:53:00,
2013-11-28 23:54:00,25.4,22.6,30.41,ESE,122,0.0,0.0,89,0.00,,,0.00,0.00,VWS V14.01,2013-11-29 04:54:00,
2013-11-28 23:55:00,25.4,22.6,30.41,ESE,122,0.0,0.0,89,0.00,,,0.00,0.00,VWS V14.01,2013-11-29 04:55:00,
2013-11-28 23:56:00,25.4,22.6,30.41,ESE,122,0.0,0.0,89,0.00,,,0.00,0.00,VWS V14.01,2013-11-29 04:56:00,
2013-11-28 23:57:00,25.4,22.6,30.41,ESE,122,0.0,0.0,89,0.00,,,0.00,0.00,VWS V14.01,2013-11-29 04:57:00,
2013-11-28 23:58:00,25.4,22.6,30.41,ESE,122,0.0,0.0,89,0.00,,,0.00,0.00,VWS V14.01,2013-11-29 04:58:00,
2013-11-28 23:59:00,25.3,22.5,30.41,ESE,122,0.0,0.0,89,0.00,,,0.00,0.00,VWS V14.01,2013-11-29 04:59:00,